[[{"header":{"parameterUnit":"m.s-1","parameterCategory":1,"la1":31.0,"la2":29.5877,"lo1":-88.7671,"lo2":-86.6584,"dy":0.0162,"dx":0.0185,"nx":115,"ny":88,"refTime":"2024-06-13T06:00:00:Z","depth":0,"parameterNumber":2,"parameterNumberName":"U-component_of_WINDS"},"data":[0.0,0.0,0.0,0.0,0.0,0.0,0.0,0.0,0.0,0.0,0.0,0.0,0.0,0.0,0.0,0.0,0.0,0.0,0.0,0.0,0.0,0.0,0.0,0.0,0.0,0.0,0.0,0.0,0.0,0.0,0.0,0.0,0.0,0.0,0.0,0.0,0.0,0.0,0.0,0.0,0.0,0.0,0.0,0.0,0.0,0.0,0.0,0.0,0.0,0.0,0.0,0.0,0.0,0.0,0.0,0.0,0.0,0.0,0.0,0.0,0.0,0.0,0.0,0.0,0.0,0.0,0.0,0.0,0.0,0.0,0.0,0.0,0.0,0.0,0.0,0.0,0.0,0.0,0.0,0.0,0.0,0.0,0.0,0.0,0.0,0.0,0.0,0.0,0.0,0.0,0.0,0.0,0.0,0.0,0.0,0.0,0.0,0.0,0.0,0.0,0.0,0.0,0.0,0.0,0.0,0.0,0.0,0.0,0.0,0.0,0.0,0.0,0.0,0.0,0.0,0.0,0.0,0.0,0.0,0.0,0.0,0.0,0.0,0.0,0.0,0.0,0.0,0.0,0.0,0.0,0.0,0.0,0.0,0.0,0.0,0.0,0.0,0.0,0.0,0.0,0.0,0.0,0.0,0.0,0.0,0.0,0.0,0.0,0.0,0.0,0.0,0.0,0.0,0.0,0.0,0.0,0.0,0.0,0.0,0.0,0.0,0.0,0.0,0.0,0.0,0.0,0.0,0.0,0.0,0.0,0.0,0.0,0.0,0.0,0.0,0.0,0.0,0.0,0.0,0.0,0.0,0.0,0.0,0.0,0.0,0.0,0.0,0.0,0.0,0.0,0.0,0.0,0.0,0.0,0.0,0.0,0.0,0.0,0.0,0.0,0.0,0.0,0.0,0.0,0.0,0.0,0.0,0.0,0.0,0.0,0.0,0.0,0.0,0.0,0.0,0.0,0.0,0.0,0.0,0.0,0.0,0.0,0.0,0.0,0.0,0.0,0.0,0.0,0.0,0.0,0.0,0.0,0.0,0.0,0.0,0.0,0.0,0.0,0.0,0.0,0.0,0.0,0.0,0.0,0.0,0.0,0.0,0.0,0.0,0.0,0.0,0.0,0.0,0.0,0.0,0.0,0.0,0.0,0.0,0.0,0.0,0.0,0.0,0.0,0.0,0.0,0.0,0.0,0.0,0.0,0.0,0.0,0.0,0.0,0.0,0.0,0.0,0.0,0.0,0.0,0.0,0.0,0.0,0.0,0.0,0.0,0.0,0.0,0.0,0.0,0.0,0.0,0.0,0.0,0.0,0.0,0.0,0.0,0.0,0.0,0.0,0.0,0.0,0.0,0.0,0.0,0.0,0.0,0.0,0.0,0.0,0.0,0.0,0.0,0.0,0.0,0.0,0.0,0.0,0.0,0.0,0.0,0.0,0.0,0.0,0.0,0.0,0.0,0.0,0.0,0.0,0.0,0.0,0.0,0.0,0.0,0.0,0.0,0.0,0.0,0.0,0.0,0.0,0.0,0.0,0.0,0.0,0.0,0.0,0.0,0.0,0.0,0.0,0.0,0.0,0.0,0.0,0.0,0.0,0.0,0.0,0.0,0.0,0.0,0.0,0.0,0.0,0.0,0.0,0.0,0.0,0.0,0.0,0.0,0.0,0.0,0.0,0.0,0.0,0.0,0.0,0.0,0.0,0.0,0.0,0.0,0.0,0.0,0.0,0.0,0.0,0.0,0.0,0.0,0.0,0.0,0.0,0.0,0.0,0.0,0.0,0.0,0.0,0.0,0.0,0.0,0.0,0.0,0.0,0.0,0.0,0.0,0.0,0.0,0.0,0.0,0.0,0.0,0.0,0.0,0.0,0.0,0.0,0.0,0.0,0.0,0.0,0.0,0.0,0.0,0.0,0.0,0.0,0.0,0.0,0.0,0.0,0.0,0.0,0.0,0.0,0.0,0.0,0.0,0.0,0.0,0.0,0.0,0.0,0.0,0.0,0.0,0.0,0.0,0.0,0.0,0.0,0.0,0.0,0.0,0.0,0.0,0.0,0.0,0.0,0.0,0.0,0.0,0.0,0.0,0.0,0.0,0.0,0.0,0.0,0.0,0.0,0.0,0.0,0.0,0.0,0.0,0.0,0.0,0.0,0.0,0.0,0.0,0.0,0.0,0.0,0.0,0.0,0.0,0.0,0.0,0.0,0.0,0.0,0.0,0.0,0.0,0.0,0.0,0.0,0.0,0.0,0.0,0.0,0.0,0.0,0.0,0.0,0.0,0.0,0.0,0.0,0.0,0.0,0.0,0.0,0.0,0.0,0.0,0.0,0.0,0.0,0.0,0.0,0.0,0.0,0.0,0.0,0.0,0.0,0.0,0.0,0.0,0.0,0.0,0.0,0.0,0.0,0.0,0.0,0.0,0.0,0.0,0.0,0.0,0.0,0.0,0.0,0.0,0.0,0.0,0.0,0.0,0.0,0.0,0.0,0.0,0.0,0.0,0.0,0.0,0.0,0.0,0.0,0.0,0.0,0.0,0.0,0.0,0.0,0.0,0.0,0.0,0.0,0.0,0.0,0.0,0.0,0.0,0.0,0.0,0.0,0.0,0.0,0.0,0.0,0.0,0.0,0.0,0.0,0.0,0.0,0.0,0.0,0.0,0.0,0.0,0.0,0.0,0.0,0.0,0.0,0.0,0.0,0.0,0.0,0.0,0.0,0.0,0.0,0.0,0.0,0.0,0.0,0.0,0.0,0.0,0.0,0.0,0.0,0.0,0.0,0.0,0.0,0.0,0.0,0.0,0.0,0.0,0.0,0.0,0.0,0.0,0.0,0.0,0.0,0.0,0.0,0.0,0.0,0.0,0.0,0.0,0.0,0.0,0.0,0.0,0.0,0.0,0.0,0.0,0.0,0.0,0.0,0.0,0.0,0.0,0.0,0.0,0.0,0.0,0.0,0.0,0.0,0.0,0.0,0.0,0.0,0.0,0.0,0.0,0.0,0.0,0.0,0.0,0.0,0.0,0.0,0.0,0.0,0.0,0.0,0.0,0.0,0.0,0.0,0.0,0.0,0.0,0.0,0.0,0.0,0.0,0.0,0.0,0.0,0.0,0.0,0.0,0.0,0.0,0.0,0.0,0.0,0.0,0.0,0.0,0.0,0.0,0.0,0.0,0.0,0.0,0.0,0.0,0.0,0.0,0.0,0.0,0.0,0.0,0.0,0.0,0.0,0.0,0.0,0.0,0.0,0.0,0.0,0.0,0.0,0.0,0.0,0.0,0.0,0.0,0.0,0.0,0.0,0.0,0.0,0.0,0.0,0.0,0.0,0.0,0.0,0.0,0.0,0.0,0.0,0.0,0.0,0.0,0.0,0.0,0.0,0.0,0.0,0.0,0.0,0.0,0.0,0.0,0.0,0.0,0.0,0.0,0.0,0.0,0.0,0.0,0.0,0.0,0.0,0.0,0.0,0.0,0.0,0.0,0.0,0.0,0.0,0.0,0.0,0.0,0.0,0.0,0.0,0.0,0.0,0.0,0.0,0.0,0.0,0.0,0.0,0.0,0.0,0.0,0.0,0.0,0.0,0.0,0.0,0.0,0.0,0.0,0.0,0.0,0.0,0.0,0.0,0.0,0.0,0.0,0.0,0.0,0.0,0.0,0.0,0.0,0.0,0.0,0.0,0.0,0.0,0.0,0.0,0.0,0.0,0.0,0.0,0.0,0.0,0.0,0.0,0.0,0.0,0.0,0.0,0.0,0.0,0.0,0.0,0.0,0.0,0.0,0.0,0.0,0.0,0.0,0.0,0.0,0.0,0.0,0.0,0.0,0.0,0.0,0.0,0.0,0.0,0.0,0.0,0.0,0.0,0.0,0.0,0.0,0.0,0.0,0.0,0.0,0.0,0.0,0.0,0.0,0.0,0.0,0.0,0.0,0.0,0.0,0.0,0.0,0.0,0.0,0.0,0.0,0.0,0.0,0.0,0.0,0.0,0.0,0.0,0.0,0.0,0.0,0.0,0.0,0.0,0.0,0.0,0.0,0.0,0.0,0.0,0.0,0.0,0.0,0.0,0.0,0.0,0.0,0.0,0.0,0.0,0.0,0.0,0.0,0.0,0.0,0.0,0.0,0.0,0.0,0.0,0.0,0.0,0.0,0.0,0.0,0.0,0.0,0.0,0.0,0.0,0.0,0.0,0.0,0.0,0.0,0.0,0.0,0.0,0.0,0.0,0.0,0.0,0.0,0.0,0.0,0.0,0.0,0.0,0.0,0.0,0.0,-2.9854,0.0,0.0,0.0,0.0,0.0,0.0,0.0,0.0,0.0,0.0,0.0,0.0,0.0,0.0,0.0,0.0,0.0,0.0,0.0,0.0,0.0,0.0,0.0,0.0,0.0,0.0,0.0,0.0,0.0,0.0,0.0,0.0,0.0,0.0,0.0,0.0,0.0,0.0,0.0,0.0,0.0,0.0,0.0,0.0,0.0,0.0,0.0,0.0,0.0,0.0,0.0,0.0,0.0,0.0,0.0,0.0,0.0,0.0,0.0,0.0,0.0,0.0,0.0,0.0,0.0,0.0,0.0,0.0,0.0,0.0,0.0,0.0,0.0,0.0,0.0,0.0,0.0,0.0,0.0,0.0,0.0,0.0,0.0,0.0,0.0,0.0,0.0,0.0,0.0,0.0,0.0,0.0,0.0,0.0,0.0,0.0,0.0,0.0,0.0,0.0,0.0,0.0,0.0,0.0,0.0,0.0,0.0,0.0,0.0,0.0,-3.4395,-3.3581,-3.3776,-3.292,-3.0763,0.0,0.0,0.0,0.0,0.0,0.0,0.0,0.0,0.0,0.0,0.0,0.0,0.0,0.0,0.0,0.0,0.0,0.0,0.0,0.0,0.0,0.0,0.0,0.0,0.0,0.0,0.0,0.0,0.0,0.0,0.0,0.0,0.0,0.0,0.0,0.0,0.0,0.0,0.0,0.0,0.0,0.0,0.0,0.0,0.0,0.0,0.0,0.0,0.0,0.0,0.0,0.0,0.0,0.0,0.0,0.0,0.0,0.0,0.0,0.0,0.0,0.0,0.0,0.0,0.0,0.0,0.0,0.0,0.0,0.0,0.0,0.0,0.0,0.0,0.0,0.0,0.0,0.0,0.0,0.0,0.0,0.0,0.0,0.0,0.0,0.0,0.0,0.0,0.0,0.0,0.0,0.0,0.0,0.0,0.0,0.0,0.0,0.0,0.0,0.0,0.0,0.0,0.0,0.0,0.0,0.0,0.0,0.0,0.0,0.0,0.0,0.0,-3.5623,-3.4495,-3.1709,0.0,0.0,0.0,0.0,0.0,0.0,0.0,0.0,0.0,0.0,0.0,0.0,0.0,0.0,0.0,0.0,0.0,0.0,0.0,0.0,0.0,0.0,0.0,0.0,0.0,0.0,0.0,0.0,0.0,0.0,0.0,0.0,0.0,0.0,0.0,0.0,0.0,0.0,0.0,0.0,0.0,0.0,0.0,0.0,0.0,0.0,0.0,0.0,0.0,0.0,0.0,0.0,0.0,0.0,0.0,0.0,0.0,0.0,0.0,0.0,0.0,0.0,0.0,0.0,0.0,0.0,0.0,0.0,0.0,0.0,0.0,0.0,0.0,0.0,0.0,0.0,0.0,0.0,0.0,0.0,0.0,0.0,0.0,0.0,0.0,0.0,0.0,0.0,0.0,0.0,0.0,0.0,0.0,0.0,0.0,0.0,0.0,0.0,0.0,0.0,0.0,0.0,0.0,0.0,0.0,0.0,0.0,0.0,0.0,0.0,-3.642,-3.6987,-3.6985,0.0,-3.2455,0.0,0.0,0.0,0.0,0.0,0.0,0.0,0.0,0.0,0.0,0.0,0.0,0.0,0.0,0.0,0.0,0.0,0.0,0.0,0.0,0.0,0.0,0.0,0.0,0.0,0.0,0.0,0.0,0.0,0.0,0.0,0.0,0.0,0.0,0.0,0.0,0.0,0.0,0.0,0.0,0.0,0.0,0.0,0.0,0.0,0.0,0.0,0.0,0.0,0.0,0.0,0.0,0.0,0.0,0.0,0.0,0.0,0.0,0.0,0.0,0.0,0.0,0.0,0.0,0.0,0.0,0.0,0.0,0.0,0.0,0.0,0.0,0.0,0.0,0.0,0.0,0.0,0.0,0.0,0.0,0.0,0.0,0.0,0.0,0.0,0.0,0.0,0.0,0.0,0.0,0.0,0.0,0.0,0.0,0.0,0.0,0.0,0.0,0.0,0.0,0.0,0.0,0.0,0.0,0.0,0.0,0.0,0.0,0.0,0.0,-3.8505,-3.815,-3.6856,-3.5234,0.0,0.0,0.0,0.0,0.0,0.0,0.0,0.0,0.0,0.0,0.0,0.0,0.0,0.0,0.0,0.0,0.0,0.0,0.0,0.0,0.0,0.0,0.0,0.0,0.0,0.0,0.0,0.0,0.0,0.0,0.0,0.0,0.0,0.0,0.0,0.0,0.0,0.0,0.0,0.0,0.0,0.0,0.0,0.0,0.0,0.0,0.0,0.0,0.0,0.0,0.0,0.0,0.0,0.0,0.0,0.0,0.0,0.0,0.0,0.0,0.0,0.0,0.0,0.0,0.0,0.0,0.0,0.0,0.0,0.0,0.0,0.0,0.0,0.0,0.0,0.0,0.0,0.0,0.0,0.0,0.0,0.0,0.0,0.0,0.0,0.0,0.0,0.0,0.0,0.0,0.0,0.0,0.0,0.0,0.0,0.0,0.0,0.0,0.0,0.0,0.0,0.0,0.0,0.0,0.0,0.0,0.0,0.0,0.0,0.0,-4.0247,-4.0032,-3.9226,-3.7508,-3.5751,-3.4058,0.0,0.0,0.0,0.0,0.0,0.0,0.0,0.0,0.0,0.0,0.0,0.0,0.0,0.0,0.0,0.0,0.0,0.0,0.0,0.0,0.0,0.0,0.0,0.0,0.0,0.0,0.0,0.0,0.0,0.0,0.0,0.0,0.0,0.0,0.0,0.0,0.0,0.0,0.0,0.0,0.0,0.0,0.0,0.0,0.0,0.0,0.0,0.0,0.0,0.0,0.0,0.0,0.0,0.0,0.0,0.0,0.0,0.0,0.0,0.0,0.0,0.0,0.0,0.0,0.0,0.0,0.0,0.0,0.0,0.0,0.0,0.0,0.0,0.0,0.0,0.0,0.0,0.0,0.0,0.0,0.0,0.0,0.0,0.0,0.0,0.0,0.0,0.0,0.0,0.0,0.0,0.0,0.0,0.0,0.0,0.0,0.0,0.0,0.0,0.0,0.0,0.0,0.0,0.0,0.0,0.0,0.0,0.0,-4.1175,-4.0696,-4.036,-4.0315,-3.9702,-3.7767,0.0,0.0,0.0,0.0,0.0,0.0,0.0,0.0,0.0,0.0,0.0,0.0,0.0,0.0,0.0,0.0,0.0,0.0,0.0,0.0,0.0,0.0,0.0,0.0,0.0,0.0,0.0,0.0,0.0,0.0,0.0,0.0,0.0,0.0,0.0,0.0,0.0,0.0,0.0,0.0,0.0,0.0,0.0,0.0,0.0,0.0,0.0,0.0,0.0,0.0,0.0,0.0,0.0,0.0,0.0,0.0,0.0,0.0,0.0,0.0,0.0,0.0,0.0,0.0,0.0,0.0,0.0,0.0,0.0,0.0,0.0,0.0,0.0,0.0,0.0,0.0,0.0,0.0,0.0,0.0,0.0,0.0,0.0,0.0,0.0,0.0,0.0,0.0,0.0,0.0,0.0,0.0,0.0,0.0,0.0,0.0,0.0,0.0,0.0,0.0,0.0,0.0,0.0,0.0,0.0,0.0,0.0,0.0,0.0,-4.0098,-4.0307,-4.0786,-4.1564,-3.9847,-3.7791,0.0,0.0,0.0,0.0,0.0,0.0,0.0,0.0,0.0,0.0,0.0,0.0,0.0,0.0,0.0,0.0,0.0,0.0,0.0,0.0,0.0,0.0,0.0,0.0,0.0,0.0,0.0,0.0,0.0,0.0,0.0,0.0,0.0,0.0,0.0,0.0,0.0,0.0,0.0,0.0,0.0,0.0,0.0,0.0,0.0,0.0,0.0,0.0,0.0,0.0,0.0,0.0,0.0,0.0,0.0,0.0,0.0,0.0,0.0,0.0,0.0,0.0,0.0,0.0,0.0,0.0,0.0,0.0,0.0,0.0,0.0,0.0,0.0,0.0,0.0,0.0,0.0,0.0,0.0,0.0,0.0,0.0,0.0,0.0,0.0,0.0,0.0,0.0,0.0,0.0,0.0,0.0,0.0,0.0,0.0,0.0,0.0,0.0,0.0,0.0,0.0,0.0,0.0,0.0,0.0,0.0,0.0,0.0,0.0,-4.0038,0.0,-4.1265,0.0,-4.0008,-3.8085,0.0,0.0,0.0,0.0,0.0,0.0,0.0,0.0,0.0,0.0,0.0,0.0,0.0,0.0,0.0,0.0,0.0,0.0,0.0,0.0,0.0,0.0,0.0,0.0,0.0,0.0,0.0,0.0,0.0,0.0,0.0,0.0,0.0,0.0,0.0,0.0,0.0,0.0,0.0,0.0,0.0,0.0,0.0,0.0,0.0,0.0,0.0,0.0,0.0,0.0,0.0,0.0,0.0,0.0,0.0,0.0,0.0,0.0,0.0,0.0,0.0,0.0,0.0,0.0,0.0,0.0,0.0,0.0,0.0,0.0,0.0,0.0,0.0,0.0,0.0,0.0,0.0,0.0,0.0,0.0,0.0,0.0,0.0,0.0,0.0,0.0,0.0,0.0,0.0,0.0,0.0,0.0,0.0,0.0,0.0,0.0,0.0,0.0,0.0,0.0,0.0,0.0,0.0,0.0,0.0,0.0,0.0,0.0,-4.0068,-4.1332,-4.1991,-4.1752,-4.0487,-4.0367,-3.8841,0.0,0.0,0.0,0.0,0.0,0.0,0.0,0.0,0.0,0.0,0.0,0.0,0.0,0.0,0.0,0.0,0.0,0.0,0.0,0.0,0.0,0.0,0.0,0.0,0.0,0.0,0.0,0.0,0.0,0.0,0.0,0.0,0.0,0.0,0.0,0.0,0.0,0.0,0.0,0.0,0.0,0.0,0.0,0.0,0.0,0.0,0.0,0.0,0.0,0.0,0.0,0.0,0.0,0.0,0.0,0.0,0.0,0.0,0.0,0.0,0.0,0.0,0.0,0.0,0.0,0.0,0.0,0.0,0.0,0.0,0.0,0.0,0.0,0.0,0.0,0.0,0.0,0.0,0.0,0.0,0.0,0.0,0.0,0.0,0.0,0.0,0.0,0.0,0.0,0.0,0.0,0.0,0.0,0.0,0.0,0.0,0.0,0.0,0.0,0.0,0.0,0.0,0.0,0.0,0.0,0.0,0.0,0.0,0.0,-4.0726,-4.1354,-4.1752,-4.1752,-4.0427,-3.902,0.0,0.0,0.0,0.0,0.0,0.0,0.0,0.0,0.0,0.0,0.0,0.0,0.0,0.0,0.0,0.0,0.0,0.0,0.0,0.0,0.0,0.0,0.0,0.0,0.0,0.0,0.0,0.0,0.0,0.0,0.0,0.0,0.0,0.0,0.0,0.0,0.0,0.0,0.0,0.0,0.0,0.0,0.0,0.0,0.0,0.0,0.0,0.0,0.0,0.0,0.0,0.0,0.0,0.0,0.0,0.0,0.0,0.0,0.0,0.0,0.0,0.0,0.0,0.0,0.0,0.0,0.0,0.0,0.0,0.0,0.0,0.0,0.0,0.0,0.0,0.0,0.0,0.0,0.0,0.0,0.0,0.0,0.0,0.0,0.0,0.0,0.0,0.0,0.0,0.0,0.0,0.0,0.0,0.0,0.0,0.0,0.0,0.0,0.0,0.0,0.0,0.0,0.0,0.0,0.0,0.0,0.0,0.0,0.0,-4.1564,-4.2132,-4.2551,-4.2701,-4.1055,-3.9709,-3.8781,0.0,0.0,0.0,0.0,0.0,0.0,0.0,0.0,0.0,0.0,0.0,0.0,0.0,0.0,0.0,0.0,0.0,0.0,0.0,0.0,0.0,0.0,0.0,0.0,0.0,0.0,0.0,0.0,0.0,0.0,0.0,0.0,0.0,0.0,0.0,0.0,0.0,0.0,0.0,0.0,0.0,0.0,0.0,0.0,0.0,0.0,0.0,0.0,0.0,0.0,0.0,0.0,0.0,0.0,0.0,0.0,0.0,0.0,0.0,0.0,0.0,0.0,0.0,0.0,0.0,0.0,0.0,0.0,0.0,0.0,0.0,0.0,0.0,0.0,0.0,0.0,0.0,0.0,0.0,0.0,0.0,0.0,0.0,0.0,0.0,0.0,0.0,0.0,0.0,0.0,0.0,0.0,0.0,0.0,0.0,0.0,0.0,0.0,0.0,0.0,0.0,0.0,0.0,0.0,0.0,0.0,0.0,0.0,-4.3419,-4.4077,-4.4037,-4.3349,-4.2102,-4.0816,0.0,0.0,0.0,0.0,0.0,0.0,0.0,0.0,0.0,0.0,0.0,0.0,0.0,0.0,0.0,0.0,0.0,0.0,0.0,0.0,0.0,0.0,0.0,0.0,0.0,0.0,0.0,0.0,0.0,0.0,0.0,0.0,0.0,0.0,0.0,0.0,0.0,0.0,0.0,0.0,0.0,0.0,0.0,0.0,0.0,0.0,0.0,0.0,0.0,0.0,0.0,0.0,0.0,0.0,0.0,0.0,0.0,0.0,0.0,0.0,0.0,0.0,0.0,0.0,0.0,0.0,0.0,0.0,0.0,0.0,0.0,0.0,0.0,0.0,0.0,0.0,0.0,0.0,0.0,0.0,0.0,0.0,0.0,0.0,0.0,0.0,0.0,0.0,0.0,0.0,0.0,0.0,0.0,0.0,0.0,0.0,0.0,0.0,0.0,0.0,0.0,0.0,0.0,0.0,0.0,0.0,0.0,0.0,0.0,-4.4047,-4.5185,-4.5244,-4.4037,-4.2791,-4.1504,0.0,0.0,0.0,0.0,0.0,0.0,0.0,0.0,0.0,0.0,0.0,0.0,0.0,0.0,0.0,0.0,0.0,0.0,0.0,0.0,0.0,0.0,0.0,0.0,0.0,0.0,0.0,0.0,0.0,0.0,0.0,0.0,0.0,0.0,0.0,0.0,0.0,0.0,0.0,0.0,0.0,0.0,0.0,0.0,0.0,0.0,0.0,0.0,0.0,0.0,0.0,0.0,0.0,0.0,0.0,0.0,0.0,0.0,0.0,0.0,0.0,0.0,0.0,0.0,0.0,0.0,0.0,0.0,0.0,0.0,0.0,0.0,0.0,0.0,0.0,0.0,0.0,0.0,0.0,0.0,0.0,0.0,0.0,0.0,0.0,0.0,0.0,0.0,0.0,0.0,0.0,0.0,0.0,0.0,0.0,0.0,0.0,0.0,0.0,0.0,0.0,0.0,0.0,0.0,0.0,0.0,0.0,0.0,-4.3838,-4.5125,-4.6202,-4.6232,-4.5143,-4.4167,-4.289,0.0,0.0,0.0,0.0,0.0,0.0,0.0,0.0,0.0,0.0,0.0,0.0,0.0,0.0,0.0,0.0,0.0,0.0,0.0,0.0,0.0,0.0,0.0,0.0,0.0,0.0,0.0,0.0,0.0,0.0,0.0,0.0,0.0,0.0,0.0,0.0,0.0,0.0,0.0,0.0,0.0,0.0,0.0,0.0,0.0,0.0,0.0,0.0,0.0,0.0,0.0,0.0,0.0,0.0,0.0,0.0,0.0,0.0,0.0,0.0,0.0,0.0,0.0,0.0,0.0,0.0,0.0,0.0,0.0,0.0,0.0,0.0,0.0,0.0,0.0,0.0,0.0,0.0,0.0,0.0,0.0,0.0,0.0,0.0,0.0,0.0,0.0,0.0,0.0,0.0,0.0,0.0,0.0,0.0,0.0,0.0,0.0,0.0,0.0,0.0,0.0,0.0,0.0,0.0,0.0,0.0,0.0,0.0,-4.4945,-4.6292,-4.698,-4.704,-4.6399,-4.5633,-4.4317,0.0,0.0,0.0,0.0,0.0,0.0,0.0,0.0,0.0,0.0,0.0,0.0,0.0,0.0,0.0,0.0,0.0,0.0,0.0,0.0,0.0,0.0,0.0,0.0,0.0,0.0,0.0,0.0,0.0,0.0,0.0,0.0,0.0,0.0,0.0,0.0,0.0,0.0,0.0,0.0,0.0,0.0,0.0,0.0,0.0,0.0,0.0,0.0,0.0,0.0,0.0,0.0,0.0,0.0,0.0,0.0,0.0,0.0,0.0,0.0,0.0,0.0,0.0,0.0,0.0,0.0,0.0,0.0,0.0,0.0,0.0,0.0,0.0,0.0,0.0,0.0,0.0,0.0,0.0,0.0,0.0,0.0,0.0,0.0,0.0,0.0,0.0,0.0,0.0,0.0,0.0,0.0,0.0,0.0,0.0,0.0,0.0,0.0,0.0,0.0,0.0,0.0,0.0,0.0,0.0,0.0,0.0,0.0,-4.4975,-4.6292,-4.695,-4.7249,-4.71,-4.5424,-4.3838,0.0,0.0,0.0,0.0,0.0,0.0,0.0,0.0,0.0,0.0,0.0,0.0,0.0,0.0,0.0,0.0,0.0,0.0,0.0,0.0,0.0,0.0,0.0,0.0,0.0,0.0,0.0,0.0,0.0,0.0,0.0,0.0,0.0,0.0,0.0,0.0,0.0,0.0,0.0,0.0,0.0,0.0,0.0,0.0,0.0,0.0,0.0,0.0,-3.6003,0.0,0.0,0.0,0.0,0.0,0.0,0.0,0.0,0.0,0.0,0.0,0.0,0.0,0.0,0.0,0.0,0.0,0.0,0.0,0.0,0.0,0.0,0.0,0.0,0.0,0.0,0.0,0.0,0.0,0.0,0.0,0.0,0.0,0.0,0.0,0.0,0.0,0.0,0.0,0.0,0.0,0.0,0.0,0.0,0.0,0.0,0.0,0.0,0.0,0.0,0.0,0.0,0.0,0.0,0.0,0.0,0.0,0.0,0.0,-4.6232,-4.7219,-4.7578,-4.7638,-4.7279,-4.5128,-4.3608,0.0,0.0,0.0,0.0,0.0,0.0,0.0,0.0,0.0,0.0,0.0,0.0,0.0,0.0,0.0,0.0,0.0,0.0,0.0,0.0,0.0,0.0,0.0,0.0,0.0,0.0,0.0,0.0,0.0,0.0,0.0,0.0,0.0,0.0,0.0,0.0,0.0,0.0,0.0,0.0,0.0,0.0,0.0,0.0,0.0,0.0,0.0,0.0,0.0,0.0,0.0,0.0,0.0,0.0,0.0,0.0,0.0,0.0,0.0,0.0,0.0,0.0,0.0,0.0,0.0,0.0,0.0,0.0,0.0,0.0,0.0,0.0,0.0,0.0,0.0,0.0,0.0,0.0,0.0,0.0,0.0,0.0,0.0,0.0,0.0,0.0,0.0,0.0,0.0,0.0,0.0,0.0,0.0,0.0,0.0,0.0,0.0,0.0,0.0,0.0,0.0,0.0,0.0,0.0,0.0,0.0,0.0,-4.5917,-4.7312,-4.7941,-4.8178,-4.788,-4.7019,-4.4647,-4.3168,-4.2799,0.0,0.0,0.0,0.0,0.0,0.0,0.0,0.0,0.0,0.0,0.0,0.0,0.0,0.0,0.0,0.0,0.0,0.0,0.0,0.0,0.0,0.0,0.0,0.0,0.0,0.0,0.0,0.0,0.0,0.0,0.0,0.0,0.0,0.0,0.0,0.0,0.0,0.0,-3.4173,-3.5655,0.0,0.0,0.0,0.0,0.0,0.0,0.0,0.0,-3.7236,0.0,0.0,0.0,0.0,0.0,0.0,0.0,0.0,0.0,0.0,0.0,0.0,0.0,0.0,0.0,0.0,0.0,0.0,0.0,0.0,0.0,0.0,0.0,0.0,0.0,0.0,0.0,0.0,0.0,0.0,0.0,0.0,0.0,0.0,0.0,0.0,0.0,0.0,0.0,0.0,0.0,0.0,0.0,0.0,0.0,0.0,0.0,0.0,0.0,0.0,0.0,0.0,0.0,0.0,0.0,0.0,-4.1376,-4.4182,-4.5927,-4.6541,-4.7703,-4.7496,-4.5734,-4.3364,-4.1591,-4.0503,0.0,0.0,0.0,0.0,0.0,0.0,0.0,0.0,0.0,0.0,0.0,0.0,0.0,0.0,0.0,0.0,0.0,0.0,0.0,0.0,0.0,0.0,0.0,0.0,0.0,0.0,0.0,0.0,0.0,0.0,0.0,0.0,0.0,0.0,0.0,0.0,0.0,0.0,0.0,-3.6985,-3.7965,0.0,0.0,0.0,0.0,0.0,0.0,0.0,0.0,-3.7161,0.0,0.0,0.0,0.0,0.0,0.0,0.0,0.0,0.0,0.0,0.0,0.0,0.0,0.0,0.0,0.0,0.0,0.0,0.0,0.0,0.0,0.0,0.0,0.0,0.0,0.0,0.0,0.0,0.0,0.0,0.0,0.0,0.0,0.0,0.0,0.0,0.0,0.0,0.0,0.0,0.0,0.0,0.0,0.0,0.0,0.0,0.0,0.0,0.0,0.0,0.0,0.0,0.0,0.0,0.0,-4.13,-4.3945,-4.5463,-4.5749,-4.6376,-4.5995,-4.4396,-4.1801,-3.9988,0.0,0.0,0.0,0.0,0.0,0.0,0.0,0.0,0.0,0.0,0.0,0.0,0.0,0.0,0.0,0.0,0.0,0.0,0.0,0.0,0.0,0.0,0.0,0.0,0.0,0.0,0.0,0.0,0.0,0.0,0.0,0.0,0.0,0.0,0.0,0.0,0.0,0.0,0.0,0.0,-3.7513,-3.8216,-3.8793,0.0,0.0,0.0,0.0,0.0,0.0,-3.799,-3.7613,0.0,0.0,0.0,0.0,0.0,0.0,0.0,0.0,0.0,0.0,0.0,0.0,0.0,0.0,0.0,0.0,0.0,0.0,0.0,0.0,0.0,0.0,0.0,0.0,0.0,0.0,0.0,0.0,0.0,0.0,0.0,0.0,0.0,0.0,0.0,0.0,0.0,0.0,0.0,0.0,0.0,0.0,0.0,0.0,0.0,0.0,0.0,0.0,0.0,0.0,0.0,0.0,0.0,0.0,0.0,-4.0974,-4.3547,-4.4903,-4.4902,-4.515,-4.4572,-4.315,-4.0596,-3.8866,0.0,0.0,0.0,0.0,0.0,0.0,0.0,0.0,0.0,0.0,0.0,0.0,0.0,0.0,0.0,0.0,0.0,0.0,0.0,0.0,0.0,0.0,0.0,0.0,0.0,0.0,0.0,0.0,0.0,0.0,0.0,0.0,0.0,0.0,0.0,0.0,0.0,0.0,0.0,0.0,0.0,-3.8768,-3.8994,-3.912,0.0,0.0,0.0,0.0,-3.8818,-3.8567,0.0,0.0,0.0,0.0,0.0,0.0,0.0,0.0,0.0,0.0,0.0,0.0,0.0,0.0,0.0,0.0,0.0,0.0,0.0,0.0,0.0,0.0,0.0,0.0,0.0,0.0,0.0,0.0,0.0,0.0,0.0,0.0,0.0,0.0,0.0,0.0,0.0,0.0,0.0,0.0,0.0,0.0,0.0,0.0,0.0,0.0,0.0,0.0,0.0,0.0,0.0,0.0,0.0,0.0,0.0,0.0,-3.8503,-4.1818,-4.3514,-4.351,-4.4652,-4.4206,-4.1864,-4.0521,-3.882,0.0,0.0,0.0,0.0,0.0,0.0,0.0,0.0,0.0,0.0,0.0,0.0,0.0,0.0,0.0,0.0,0.0,0.0,0.0,0.0,0.0,0.0,0.0,0.0,0.0,0.0,0.0,0.0,0.0,0.0,0.0,0.0,0.0,0.0,0.0,0.0,0.0,0.0,0.0,0.0,0.0,-4.0626,-3.9722,-4.0023,-4.0124,0.0,0.0,-3.9346,-3.8994,-3.922,0.0,0.0,0.0,0.0,0.0,0.0,0.0,0.0,0.0,0.0,0.0,0.0,0.0,0.0,0.0,0.0,0.0,0.0,0.0,0.0,0.0,0.0,0.0,0.0,0.0,0.0,0.0,0.0,0.0,0.0,0.0,0.0,0.0,0.0,0.0,0.0,0.0,0.0,0.0,0.0,0.0,0.0,0.0,0.0,0.0,0.0,0.0,0.0,0.0,0.0,0.0,0.0,0.0,0.0,0.0,-3.69,-3.8039,-4.0719,-4.232,-4.262,-4.2892,-4.2398,-4.1004,-3.9282,-3.776,0.0,0.0,0.0,0.0,0.0,0.0,0.0,0.0,0.0,0.0,0.0,0.0,0.0,0.0,0.0,0.0,0.0,0.0,0.0,0.0,0.0,0.0,0.0,0.0,0.0,0.0,0.0,0.0,0.0,0.0,0.0,0.0,0.0,0.0,0.0,0.0,0.0,0.0,0.0,0.0,0.0,0.0,-4.0174,-4.0375,0.0,0.0,0.0,-3.9823,-4.0224,0.0,0.0,0.0,0.0,0.0,0.0,0.0,0.0,0.0,0.0,0.0,0.0,0.0,0.0,0.0,0.0,0.0,0.0,0.0,0.0,0.0,0.0,0.0,0.0,0.0,0.0,0.0,0.0,0.0,0.0,0.0,0.0,0.0,0.0,0.0,0.0,0.0,0.0,0.0,0.0,0.0,0.0,0.0,0.0,0.0,0.0,0.0,0.0,0.0,0.0,0.0,0.0,0.0,0.0,0.0,0.0,0.0,-3.8015,-4.0199,-4.1605,-4.2187,-4.1756,-4.1204,-4.0501,-3.8617,0.0,0.0,0.0,0.0,0.0,0.0,0.0,0.0,0.0,0.0,0.0,0.0,0.0,0.0,0.0,0.0,0.0,0.0,0.0,0.0,0.0,0.0,0.0,0.0,0.0,0.0,0.0,-2.5303,0.0,0.0,0.0,0.0,0.0,0.0,0.0,0.0,0.0,0.0,0.0,0.0,0.0,0.0,-4.0249,-4.0651,-4.0852,-4.1078,0.0,0.0,-4.0501,-4.1,-4.0576,-3.9823,0.0,0.0,0.0,0.0,0.0,0.0,0.0,0.0,0.0,0.0,0.0,0.0,0.0,0.0,0.0,0.0,0.0,0.0,0.0,0.0,0.0,0.0,0.0,0.0,0.0,0.0,0.0,0.0,0.0,0.0,0.0,0.0,0.0,0.0,0.0,0.0,0.0,0.0,0.0,0.0,0.0,0.0,0.0,0.0,0.0,0.0,0.0,0.0,0.0,0.0,0.0,0.0,0.0,0.0,-3.6935,-3.804,-4.0172,-4.1605,-4.2187,-4.2187,-4.158,-4.0526,-3.9371,-3.8015,0.0,0.0,0.0,0.0,0.0,0.0,0.0,0.0,0.0,0.0,0.0,0.0,0.0,0.0,0.0,0.0,0.0,0.0,0.0,0.0,0.0,0.0,0.0,0.0,0.0,0.0,0.0,0.0,0.0,0.0,0.0,0.0,0.0,0.0,0.0,0.0,0.0,0.0,0.0,0.0,0.0,-4.12,-4.1225,-4.1706,-4.2112,0.0,0.0,-4.1656,-4.0727,-4.0899,-4.0676,-3.912,0.0,0.0,0.0,0.0,0.0,0.0,0.0,0.0,0.0,0.0,0.0,0.0,0.0,0.0,0.0,0.0,0.0,0.0,0.0,0.0,0.0,0.0,0.0,0.0,0.0,0.0,0.0,0.0,0.0,0.0,0.0,0.0,0.0,0.0,0.0,0.0,0.0,0.0,0.0,0.0,0.0,0.0,0.0,0.0,0.0,0.0,0.0,0.0,0.0,0.0,0.0,0.0,0.0,-3.691,-3.8015,-4.0147,-4.1756,-4.2665,-4.2389,-4.1806,-4.0974,-3.9948,-3.8091,0.0,0.0,0.0,0.0,0.0,0.0,0.0,0.0,0.0,0.0,0.0,0.0,0.0,0.0,0.0,0.0,0.0,0.0,0.0,0.0,0.0,0.0,0.0,0.0,0.0,0.0,0.0,0.0,-2.5543,-2.6174,-2.7191,0.0,0.0,0.0,0.0,0.0,0.0,0.0,0.0,0.0,0.0,-3.9685,-4.0286,-4.1434,0.0,0.0,-4.2439,-4.2187,-4.2057,-4.163,-4.0949,-4.0049,-3.932,0.0,0.0,0.0,0.0,0.0,0.0,0.0,0.0,0.0,0.0,0.0,0.0,0.0,0.0,0.0,0.0,0.0,0.0,0.0,0.0,0.0,0.0,0.0,0.0,0.0,0.0,0.0,0.0,0.0,0.0,0.0,0.0,0.0,0.0,0.0,0.0,0.0,0.0,0.0,0.0,0.0,0.0,0.0,0.0,0.0,0.0,0.0,0.0,0.0,0.0,0.0,0.0,-3.691,-3.799,-4.0147,-4.1856,-4.2961,-4.2196,-4.1348,-4.0656,-3.9316,-3.7156,0.0,0.0,0.0,0.0,0.0,0.0,0.0,0.0,0.0,0.0,0.0,0.0,0.0,0.0,0.0,0.0,0.0,0.0,0.0,0.0,0.0,0.0,0.0,0.0,0.0,0.0,0.0,0.0,-2.5449,-2.5813,-2.7099,0.0,0.0,0.0,0.0,0.0,0.0,0.0,0.0,0.0,0.0,-3.8353,-3.9218,-4.0692,-4.1842,-4.2213,-4.2357,-4.2539,-4.2766,-4.2082,-4.1404,-4.0852,0.0,0.0,0.0,0.0,0.0,0.0,0.0,0.0,0.0,0.0,0.0,0.0,0.0,0.0,0.0,0.0,0.0,0.0,0.0,0.0,0.0,0.0,0.0,0.0,0.0,0.0,0.0,0.0,0.0,0.0,-2.582,0.0,0.0,0.0,0.0,0.0,0.0,0.0,0.0,0.0,0.0,0.0,0.0,0.0,0.0,0.0,0.0,0.0,0.0,0.0,0.0,0.0,0.0,-3.6887,-3.7965,-4.0095,-4.1773,-4.2824,-4.1419,-4.0126,-3.9126,-3.7117,-3.5064,-3.3115,0.0,0.0,0.0,0.0,0.0,0.0,0.0,0.0,0.0,0.0,0.0,0.0,0.0,0.0,0.0,0.0,0.0,0.0,0.0,0.0,0.0,0.0,0.0,0.0,0.0,0.0,-2.5674,-2.5674,-2.5879,0.0,0.0,0.0,0.0,0.0,0.0,0.0,0.0,0.0,0.0,-3.6777,-3.7618,-3.8111,-3.9616,-4.0626,-4.065,-4.1874,-4.2785,-4.2228,-4.2158,-4.1957,0.0,0.0,0.0,0.0,0.0,0.0,0.0,0.0,0.0,0.0,0.0,0.0,0.0,0.0,0.0,0.0,0.0,0.0,0.0,0.0,0.0,0.0,0.0,0.0,0.0,0.0,0.0,-2.7796,-2.7082,0.0,0.0,0.0,0.0,0.0,0.0,0.0,0.0,0.0,0.0,0.0,-2.9359,-3.0258,0.0,0.0,0.0,0.0,0.0,0.0,0.0,0.0,0.0,0.0,0.0,0.0,-3.4778,-3.6919,-3.7816,-3.8787,-3.9791,-3.9288,-3.8674,-3.7988,-3.6973,-3.5368,-3.3056,0.0,0.0,0.0,0.0,0.0,0.0,0.0,0.0,0.0,0.0,0.0,0.0,0.0,0.0,0.0,0.0,0.0,0.0,0.0,0.0,0.0,0.0,0.0,0.0,0.0,-2.5674,0.0,0.0,0.0,0.0,0.0,0.0,0.0,0.0,0.0,0.0,0.0,-3.4033,-3.4672,-3.5446,-3.6063,-3.6535,-3.7963,-3.8994,0.0,0.0,0.0,0.0,0.0,0.0,0.0,0.0,0.0,0.0,0.0,0.0,0.0,0.0,-3.9721,-3.8792,-3.8115,-3.7839,-3.8241,0.0,0.0,0.0,0.0,0.0,0.0,0.0,0.0,0.0,0.0,0.0,0.0,0.0,0.0,-2.8628,0.0,-2.8164,0.0,0.0,0.0,0.0,0.0,0.0,0.0,0.0,-2.9863,-3.0332,-3.0078,-3.0918,-3.0957,0.0,-3.0254,-2.9798,0.0,0.0,0.0,0.0,0.0,0.0,0.0,0.0,-3.3808,-3.5948,-3.6646,-3.7336,-3.8119,-3.7626,-3.7144,-3.6603,-3.5352,-3.3797,-3.1881,-2.9424,-2.7932,0.0,0.0,0.0,0.0,0.0,0.0,0.0,0.0,0.0,0.0,0.0,0.0,0.0,0.0,0.0,0.0,0.0,0.0,0.0,0.0,0.0,0.0,0.0,-2.5752,0.0,0.0,0.0,0.0,0.0,0.0,0.0,0.0,0.0,-3.1869,-3.27,-3.3393,-3.3678,-3.4207,-3.4636,-3.4923,0.0,0.0,0.0,0.0,0.0,0.0,0.0,-3.892,-3.787,-3.8217,-3.8286,-3.7094,-3.73,-3.7627,-3.7389,0.0,0.0,-3.9487,-3.9511,-3.9572,-3.9975,-3.9873,-3.9722,-3.9722,-3.9722,-3.9521,0.0,0.0,0.0,0.0,0.0,0.0,0.0,0.0,-2.99,-2.9668,0.0,-2.9199,0.0,0.0,0.0,0.0,0.0,-2.9078,0.0,0.0,-3.1523,-3.2168,-3.2168,-3.2248,-3.1992,-3.1641,-3.2363,-3.1875,-3.0348,-2.9839,0.0,0.0,0.0,0.0,0.0,0.0,-3.3981,-3.5035,-3.6436,-3.7473,-3.7903,-3.6539,-3.5535,-3.5053,-3.2453,-3.0605,-2.9704,-2.8824,-2.7806,-2.6593,-2.6035,0.0,0.0,0.0,0.0,0.0,0.0,0.0,0.0,0.0,0.0,0.0,0.0,0.0,0.0,0.0,0.0,0.0,0.0,0.0,0.0,-2.5664,0.0,0.0,0.0,0.0,0.0,0.0,0.0,0.0,0.0,0.0,-3.1641,-3.2346,-3.2812,-3.2812,0.0,0.0,0.0,0.0,-3.5745,-3.5745,-3.7023,-3.7985,-3.7985,-3.8022,-3.8104,-3.7963,0.0,0.0,-3.7361,-3.7651,-3.7769,-3.7361,-3.7673,-3.8639,-4.0058,-4.1142,-4.1973,-4.1973,-4.1572,-4.1351,-4.1326,-4.1329,-4.125,-3.372,0.0,0.0,0.0,0.0,-3.1034,-3.1211,-3.2012,-3.1601,-3.125,-3.0957,-3.082,0.0,0.0,0.0,0.0,0.0,0.0,-3.0723,-3.1172,-3.1855,-3.2324,-3.2617,-3.293,-3.3008,-3.2871,-3.2812,-3.2539,-3.2031,-3.1268,-3.0334,-2.9193,0.0,0.0,0.0,0.0,-3.2076,-3.3847,-3.4095,-3.4309,-3.4798,-3.432,-3.3871,-3.3514,-3.2432,-3.1465,-3.0547,-2.9668,-2.8887,-2.8223,-2.7207,0.0,0.0,0.0,0.0,0.0,0.0,0.0,0.0,0.0,0.0,0.0,0.0,0.0,0.0,0.0,0.0,0.0,0.0,0.0,-2.6172,-2.5308,-2.5024,0.0,0.0,0.0,0.0,0.0,0.0,0.0,0.0,0.0,-3.2626,-3.3086,-3.3242,0.0,0.0,-3.3418,-3.3418,-3.3776,-3.407,-3.409,-3.4507,0.0,-3.4757,-3.5766,-3.6112,-3.4984,-3.4736,-3.4696,-3.4573,-3.4655,-3.4696,-3.4573,-3.56,-3.6639,-3.7161,-3.9348,-4.0893,-4.112,-4.178,-4.2454,-4.2509,-4.2509,-4.2384,-3.3359,-3.2266,-3.209,-3.2129,-3.2226,-3.1816,-3.2187,-3.3008,-3.2598,-3.2363,-3.2266,-3.209,-3.125,-2.9941,-2.957,0.0,0.0,0.0,-3.1621,-3.2051,-3.2461,-3.2812,-3.3047,-3.3301,-3.3418,-3.3398,-3.3164,-3.3047,-3.3027,-3.2363,-3.1289,-2.9863,0.0,0.0,-3.075,-3.0948,-3.1722,-3.3173,-3.3107,-3.3164,-3.3418,-3.3418,-3.3223,-3.2812,-3.2383,-3.1855,-3.1152,-3.0273,-2.9629,-2.918,-2.8125,-2.7363,0.0,0.0,0.0,0.0,0.0,0.0,0.0,0.0,0.0,0.0,0.0,-2.5843,-2.5302,0.0,0.0,0.0,-2.4703,-2.5216,-2.6233,-2.5147,0.0,0.0,0.0,0.0,0.0,0.0,0.0,-2.8991,-2.9026,-2.9867,-3.2035,-3.2365,-3.2619,-3.3292,-3.3418,-3.3418,-3.3418,0.0,-3.3418,-3.3418,-3.3574,-3.3613,-3.3457,-3.4355,-3.4689,-3.3627,-3.3418,-3.3418,-3.3418,-3.3418,-3.3418,-3.3544,-3.4195,-3.484,-3.486,-3.6941,-3.8912,-3.9522,-4.0419,-4.1248,-4.1899,-4.2012,-4.2083,-3.3906,-3.3437,-3.3086,-3.3125,-3.3379,-3.3008,-3.3066,-3.3379,-3.3008,-3.3066,-3.3379,-3.3027,-3.2322,-3.1383,-3.0704,0.0,-3.1202,-3.1949,-3.24,-3.2665,-3.3054,-3.3228,-3.3146,-3.3019,-3.3082,-3.3165,-3.3165,-3.3292,-3.3335,-3.3027,-3.2656,-3.2266,-3.1484,-3.123,-3.1523,-3.1973,-3.2402,-3.2793,-3.3203,-3.3418,-3.3418,-3.3418,-3.3242,-3.2851,-3.2402,-3.1973,-3.1562,-3.0723,-3.0078,-2.9668,-2.8828,-2.7988,-2.7226,0.0,0.0,0.0,0.0,0.0,0.0,0.0,0.0,0.0,0.0,0.0,0.0,0.0,0.0,0.0,-2.3206,0.0,-2.6021,-2.4994,0.0,0.0,0.0,-2.5307,-2.5877,-2.6453,-2.6921,-2.7312,0.0,0.0,-3.0419,-3.0649,-3.1267,-3.2861,-3.3267,-3.3418,-3.3418,-3.3418,-3.3437,-3.3476,-3.3809,-3.3926,-3.3672,-3.3912,-3.4034,-3.3574,-3.3457,-3.3418,-3.3418,-3.3418,-3.3418,-3.3418,-3.3418,-3.3418,-3.3418,-3.4798,-3.6051,-3.7506,-3.8104,-3.8757,-4.0071,-4.0419,-4.0822,-3.4629,-3.3945,-3.416,-3.3926,-3.3418,-3.332,-3.334,-3.3398,-3.332,-3.334,-3.3398,-3.332,-3.2262,-3.0549,-3.1696,-3.0816,-2.8599,-3.1703,-3.2453,-3.1285,-3.1396,-3.1433,-3.1368,-3.0077,-3.0125,-3.1368,-3.1433,-3.2091,-3.3355,-3.332,-3.3223,-3.3125,-3.291,-3.2383,-3.1582,-3.2266,-3.2695,-3.2793,-3.3203,-3.3418,-3.3418,-3.3418,-3.3379,-3.3281,-3.2559,-3.219,-3.2012,-3.1172,-3.0684,-3.0547,-2.9414,-2.8672,-2.8457,-2.7148,0.0,0.0,0.0,0.0,0.0,0.0,0.0,0.0,0.0,-2.4879,-2.4614,0.0,-2.4431,0.0,-2.301,-2.3278,-2.5025,-2.4026,0.0,0.0,-2.5565,-2.5722,-2.3918,-2.4967,-2.5906,-2.5983,-2.6289,-2.7165,-2.8893,-2.9278,-2.9581,-3.0052,-3.2032,-3.3418,-3.3418,-3.3418,-3.3535,-3.3867,-3.4023,-3.4141,-3.4336,-3.4199,-3.4043,-3.3926,-3.3652,-3.3418,-3.3418,-3.3418,-3.3418,-3.3418,-3.3418,-3.3418,-3.3437,-3.3776,-3.409,-3.4612,-3.6478,-3.8283,-3.8698,-3.8757,-3.9229,-3.498,-3.4375,-3.4609,-3.4414,-3.3984,-3.3789,-3.3594,-3.3418,-3.3418,-3.2956,-3.2155,-3.1451,-3.0406,-2.9439,-3.0337,-2.9696,-2.8013,-3.0101,-3.0595,-2.967,-2.967,-2.967,-2.9605,-2.8624,-2.8689,-2.9605,-2.967,-3.0142,-3.113,-3.1835,-3.2218,-3.2301,-3.3019,-3.3066,-3.2422,-3.2832,-3.3066,-3.3086,-3.3301,-3.3418,-3.3418,-3.3418,-3.334,-3.3144,-3.2695,-3.2363,-3.2168,-3.1523,-3.1074,-3.0879,-2.9805,-2.8771,-2.7899,-2.6808,-2.5915,0.0,0.0,0.0,0.0,0.0,0.0,0.0,0.0,0.0,0.0,0.0,-2.402,-2.458,-2.317,-2.2904,-2.4703,-2.3701,-2.312,-2.3563,-2.4532,-2.4532,-2.3024,-2.372,-2.4374,-2.4531,-2.4701,-2.5535,-2.7358,-2.7736,-2.8138,-2.8894,-3.0435,-3.1789,-3.2655,-3.3386,-3.4082,-3.4316,-3.4531,-3.4726,-3.498,-3.4648,-3.4355,-3.4336,-3.416,-3.3984,-3.3984,-3.3984,-3.3984,-3.3984,-3.3828,-3.3711,-3.3691,-3.3535,-3.3418,-3.3587,-3.4798,-3.6173,-3.7023,-3.7144,-3.7604,-3.5101,-3.4456,-3.4495,-3.4324,-3.3926,-3.3685,-3.3366,-3.3116,-3.2848,-3.1899,-3.0384,-2.8886,-2.8098,-2.7916,-2.8098,-2.7966,-2.7569,-2.8032,-2.8098,-2.7834,-2.7834,-2.7834,-2.7834,-2.7652,-2.7635,-2.7834,-2.7834,-2.7966,-2.8229,-2.9735,-3.0448,-3.0513,-3.2237,-3.2956,-3.2765,-3.2956,-3.3165,-3.3355,-3.3418,-3.3418,-3.3418,-3.3418,-3.3242,-3.2891,-3.2812,-3.2494,-3.1941,-3.1515,-3.099,-3.0369,-2.9604,-2.8333,-2.6498,-2.5995,-2.522,0.0,-2.3991,0.0,0.0,0.0,0.0,0.0,0.0,0.0,0.0,-2.2806,-2.3378,-2.5059,-2.3357,-2.2789,-2.4488,-2.3581,-2.2886,-2.2981,-2.2926,-2.2926,-2.2979,-2.2979,-2.3086,-2.3354,-2.3407,-2.4147,-2.5833,-2.6173,-2.6764,-2.7965,-2.8643,-2.9523,-3.1025,-3.2618,-3.3624,-3.4068,-3.469,-3.4874,-3.4941,-3.4879,-3.4785,-3.4785,-3.4687,-3.4707,-3.4648,-3.4648,-3.4668,-3.4629,-3.4375,-3.4141,-3.4082,-3.3769,-3.3516,-3.3437,-3.3544,-3.409,-3.515,-3.552,-3.6051,-3.51,-3.2979,-3.3308,-3.2147,-3.014,-3.0378,-3.0985,-3.165,-2.9957,-2.9017,-2.8689,-2.8361,-2.737,-2.6188,-2.7569,-2.6655,-2.4128,-2.6906,-2.7437,-2.5987,-2.5972,-2.6039,-2.5905,-2.4588,-2.4655,-2.5987,-2.6039,-2.6773,-2.8163,-2.8492,-2.8689,-2.8755,-3.0448,-3.0578,-2.9361,0.0,0.0,0.0,-3.3418,-3.3418,-3.3418,-3.3418,-3.3379,-3.3301,-3.2969,0.0,-3.0652,-3.0142,-2.9207,-2.7753,-2.7125,0.0,0.0,0.0,0.0,0.0,0.0,0.0,0.0,0.0,0.0,0.0,-2.4059,-2.3664,-2.3168,-2.272,-2.2627,-2.2946,-2.2822,-2.2848,-2.3243,-2.3024,-2.2966,-2.3207,-2.3247,-2.3327,-2.3554,-2.3665,-2.3634,-2.3674,-2.3888,-2.4192,-2.4607,-2.4811,-2.5094,-2.5634,-2.6807,-2.7885,-2.8284,-2.9478,-3.0259,-3.0669,-3.2429,-3.3546,-3.3633,-3.4478,-3.5054,-3.5215,-3.4922,-3.4746,-3.4746,-3.4726,-3.4707,-3.4726,-3.4629,-3.4473,-3.416,-3.4004,-3.3848,-3.3496,-3.3418,-3.3481,-3.3776,-3.3902,-3.432,-3.295,0.0,-3.1738,-3.0954,0.0,-2.8716,-2.8665,-2.9187,-2.8659,-2.7814,-2.6839,-2.5987,-2.5046,-2.4249,-2.5181,-2.4588,-2.2996,-2.4791,-2.5128,-2.4263,-2.4181,-2.4196,-2.4196,-2.3324,-2.3324,-2.4196,-2.4181,-2.4655,-2.5584,-2.6439,-2.6839,-2.6906,-2.8624,-2.9083,-2.8229,-2.9083,-2.993,-3.0789,-3.0854,-3.0854,-3.0854,-3.0854,-3.1148,-3.1746,-3.0947,0.0,0.0,0.0,0.0,0.0,0.0,0.0,0.0,0.0,0.0,-2.3518,-2.3407,-2.3554,-2.3863,-2.3892,-2.3789,-2.3619,-2.3454,-2.3229,-2.279,-2.2685,-2.2645,-2.2645,-2.2913,-2.31,-2.31,-2.322,-2.3367,-2.3527,-2.3541,-2.3607,-2.3741,-2.3781,-2.3834,-2.3968,-2.4102,-2.4249,-2.4396,-2.4529,-2.4623,-2.4636,-2.5419,-2.6078,-2.6328,-2.8191,-2.9708,-2.9942,-3.0882,-3.172,-3.1931,-3.3233,-3.4289,-3.432,-3.4883,-3.5304,-3.5351,-3.5351,-3.5351,-3.5332,-3.5195,-3.4961,-3.4766,-3.4551,-3.4238,-3.3867,-3.375,-3.3652,-3.3476,-3.3418,-3.3607,-3.068,-3.026,-2.9968,-2.9663,-2.9155,-2.732,-2.6543,-2.6582,0.0,0.0,0.0,-2.3529,-2.2859,-2.2859,-2.2859,-2.2859,-2.2859,-2.2859,-2.2859,-2.2859,-2.2859,-2.2954,-2.2939,-2.2954,-2.2886,-2.2939,-2.2886,-2.2859,-2.2928,-2.4385,-2.5046,-2.5181,-2.6839,-2.7701,-2.7701,-2.737,-2.7238,-2.7304,-2.7916,-2.8163,-2.8163,-2.8163,-2.8751,-2.9857,-2.8799,-2.8555,-2.9282,-2.7977,-2.6874,-2.6199,-2.5834,-2.4963,-2.3671,-2.3586,-2.3247,-2.2512,-2.2458,-2.2605,-2.2846,-2.2859,-2.2859,-2.2859,-2.2859,-2.2752,-2.2512,-2.2779,-2.2939,-2.2939,-2.322,-2.3407,-2.3407,-2.3621,-2.3794,-2.3834,-2.3848,-2.3861,-2.3915,-2.3928,-2.4035,-2.4235,-2.4289,-2.4396,-2.4663,-2.473,-2.4743,-2.4783,-2.4911,-2.4709,-2.5127,-2.7187,-2.8837,-2.894,-2.9313,-2.9812,-3.0026,-3.1369,-3.2595,-3.2699,-3.4208,-3.5451,-3.5519,-3.5811,-3.6035,-3.5957,-3.5723,-3.5488,-3.5391,-3.5059,-3.4687,-3.4258,-3.4244,-3.4082,-3.375,-3.3594,-3.3535,-3.0341,-2.8263,-2.8291,-2.7174,-2.5345,-2.5084,-2.4788,-2.4575,-2.4188,-2.3749,-2.327,-2.2996,-2.2859,-2.2859,-2.2859,-2.2859,-2.2859,-2.2859,-2.2859,-2.2859,-2.2859,-2.3006,-2.3247,-2.2993,-2.2993,-2.3233,-2.2993,-2.2859,-2.2928,-2.3201,-2.327,-2.3529,-2.5046,-2.5905,-2.5786,-2.4385,-2.3665,-2.3734,-2.6639,-2.8163,-2.8163,-2.8163,-2.8279,-2.8426,-2.8279,-2.7553,-2.6178,-2.5895,-2.5025,-2.3527,-2.335,-2.3145,-2.2645,-2.2849,-2.2863,-2.2445,-2.2659,-2.2887,-2.2859,-2.2859,-2.2859,-2.2859,-2.2859,-2.2846,-2.2819,-2.3086,-2.326,-2.3273,-2.3527,-2.3714,-2.3714,-2.3754,-2.3901,-2.4102,-2.4142,-2.4235,-2.4449,-2.4476,-2.4502,-2.4569,-2.4583,-2.469,-2.4957,-2.5024,-2.5104,-2.5304,-2.5304,-2.5358,-2.534,-2.5317,-2.5387,-2.5639,-2.6852,-2.778,-2.8099,-2.9472,-3.0555,-3.0734,-3.2298,-3.3586,-3.3586,-3.4815,-3.5675,-3.5947,-3.5869,-3.5781,-3.5488,-3.5351,-3.5098,-3.4726,-3.4609,-3.457,-3.4434,-3.4199,-3.3867,-2.7969,-2.6875,-2.6631,-2.5943,-2.4863,-2.4703,-2.4462,-2.4195,-2.3928,-2.3541,-2.3126,-2.3113,-2.302,-2.2873,-2.2859,-2.2859,-2.2873,-2.3033,-2.3113,-2.3126,-2.3273,-2.342,-2.3541,-2.349,-2.3434,-2.3554,-2.342,-2.3273,-2.3126,-2.3113,-2.3033,-2.2941,-2.372,-2.4046,-2.406,-2.327,-2.2859,-2.2928,-2.452,-2.533,-2.5315,-2.5315,-2.5786,-2.6722,-2.5853,-2.545,-2.5517,-2.4588,-2.372,-2.2928,-2.2859,-2.2792,-2.2672,-2.2792,-2.2806,-2.2672,-2.2779,-2.2859,-2.2859,-2.2859,-2.3075,-2.3313,-2.3207,-2.3193,-2.334,-2.3327,-2.3394,-2.3554,-2.3834,-2.4008,-2.4008,-2.4142,-2.4289,-2.4422,-2.4436,-2.4489,-2.4596,-2.4636,-2.4703,-2.4836,-2.4877,-2.4983,-2.5277,-2.5317,-2.5344,-2.5491,-2.5518,-2.5518,-2.5518,-2.5304,-2.5117,-2.5179,-2.5778,-2.6126,-2.6319,-2.7759,-2.8759,-2.8804,-3.0397,-3.1456,-3.1738,-3.3152,-3.4314,-3.459,-3.5226,-3.5889,-3.5742,-3.5742,-3.5527,-3.5195,-3.5078,-3.5019,-3.4766,-3.4531,-3.4199,-2.6012,-2.601,-2.5705,-2.5411,-2.5064,-2.4836,-2.4569,-2.4315,-2.4302,-2.4008,-2.3554,-2.3394,-2.3233,-2.3073,-2.2993,-2.3075,-2.3086,-2.3313,-2.3434,-2.3447,-2.3661,-2.3808,-2.3848,-2.3808,-2.3808,-2.3848,-2.3808,-2.3647,-2.3447,-2.342,-2.3313,-2.3086,-2.3129,-2.3142,-2.3073,-2.3006,-2.2966,-2.2966,-2.2968,-2.2859,-2.2859,-2.2859,-2.3557,-2.4757,-2.3694,-2.3639,-2.4824,-2.3708,-2.2939,-2.2873,-2.2859,-2.2859,-2.2859,-2.2859,-2.2859,-2.2859,-2.2859,-2.2968,-2.2966,-2.3033,-2.3343,-2.3714,-2.3567,-2.3554,-2.3808,-2.3661,-2.3621,-2.3861,-2.4128,-2.4302,-2.4329,-2.4489,-2.4636,-2.4636,-2.4636,-2.4623,-2.4562,-2.469,-2.4823,-2.505,-2.513,-2.5291,-2.5531,-2.5611,-2.5651,-2.5718,-2.5705,-2.5718,-2.5705,-2.5665,-2.5625,-2.5611,-2.5371,-2.5241,-2.5152,-2.615,-2.6953,-2.6881,-2.8413,-2.9472,-2.9955,-3.1245,-3.2386,-3.2665,-3.3586,-3.4502,-3.5158,-3.5295,-3.5297,-3.5365,-3.5527,-3.5391,-3.498,-3.4883,-3.457,-2.6199,-2.605,-2.5932,-2.5585,-2.5117,-2.505,-2.4863,-2.4536,-2.4596,-2.4422,-2.4075,-2.3567,-2.3474,-2.3634,-2.3394,-2.342,-2.3647,-2.3714,-2.3728,-2.3728,-2.3754,-2.3915,-2.4128,-2.3901,-2.3915,-2.4102,-2.3915,-2.3794,-2.3728,-2.3714,-2.3714,-2.3688,-2.3688,-2.3661,-2.3647,-2.342,-2.3287,-2.3287,-2.3006,-2.2859,-2.2859,-2.2859,-2.3131,-2.3482,-2.3356,-2.3356,-2.3622,-2.3343,-2.3153,-2.2899,-2.2928,-2.2859,-2.2859,-2.2859,-2.2859,-2.2873,-2.2873,-2.2979,-2.3273,-2.3541,-2.3701,-2.3754,-2.3754,-2.3848,-2.4128,-2.4128,-2.4128,-2.4209,-2.4422,-2.4569,-2.4596,-2.4623,-2.4636,-2.4636,-2.4636,-2.4636,-2.4676,-2.4877,-2.505,-2.5077,-2.5344,-2.5585,-2.5852,-2.5919,-2.6012,-2.6186,-2.6199,-2.6199,-2.6199,-2.6052,-2.5999,-2.6066,-2.5638,-2.517,-2.5192,-2.4924,-2.5316,-2.5294,-2.6531,-2.755,-2.8217,-2.9234,-3.0593,-3.068,-3.0946,-3.1878,-3.2943,-3.3517,-3.4001,-3.5199,-3.5569,-3.5801,-3.5449,-3.5332,-3.5,-2.6319,-2.6213,-2.6213,-2.5985,-2.5661,-2.5237,-2.501,-2.489,-2.4703,-2.4569,-2.4422,-2.4022,-2.3821,-2.3839,-2.3634,-2.3661,-2.3781,-2.3955,-2.4022,-2.4048,-2.4195,-2.4342,-2.4436,-2.4342,-2.4356,-2.4449,-2.4329,-2.4182,-2.4022,-2.3861,-2.3781,-2.3781,-2.3781,-2.3781,-2.3768,-2.3647,-2.3594,-2.3581,-2.346,-2.3477,-2.345,-2.322,-2.3287,-2.3554,-2.3594,-2.3581,-2.3567,-2.342,-2.3273,-2.314,-2.2966,-2.2859,-2.2859,-2.2859,-2.3008,-2.3126,-2.33,-2.3527,-2.3821,-2.3808,-2.3915,-2.4262,-2.4128,-2.4155,-2.4422,-2.4462,-2.4462,-2.4476,-2.4569,-2.4636,-2.4636,-2.4636,-2.4636,-2.4636,-2.4636,-2.4703,-2.489,-2.501,-2.5197,-2.5531,-2.5705,-2.5879,-2.6132,-2.6213,-2.6266,-2.6373,-2.64,-2.64,-2.6386,-2.6279,-2.6279,-2.6293,-2.5919,-2.5651,-2.5571,-2.5518,-2.5331,-2.5348,-2.5732,-2.6304,-2.645,-2.7643,-2.8878,-2.8691,-2.9433,-3.0201,-3.1316,-3.1597,-3.2018,-3.3725,-3.5519,-3.5957,-3.5801,-3.5762,-3.5469,-2.6453,-2.64,-2.64,-2.6226,-2.5996,-2.5411,-2.5157,-2.5037,-2.4756,-2.4636,-2.4536,-2.4409,-2.4209,-2.4022,-2.3928,-2.3928,-2.4022,-2.4235,-2.4315,-2.4342,-2.4543,-2.4636,-2.4636,-2.4636,-2.4636,-2.4636,-2.4623,-2.4516,-2.4315,-2.4128,-2.4008,-2.4008,-2.4008,-2.4008,-2.3995,-2.3941,-2.3888,-2.3875,-2.3821,-2.3808,-2.3848,-2.3688,-2.3674,-2.3875,-2.3888,-2.3888,-2.3888,-2.3688,-2.3527,-2.3447,-2.3233,-2.3182,-2.3182,-2.3113,-2.3207,-2.3447,-2.3728,-2.3968,-2.4195,-2.4075,-2.4182,-2.4556,-2.4436,-2.4409,-2.4583,-2.4636,-2.4636,-2.4562,-2.4716,-2.4743,-2.4636,-2.4716,-2.4756,-2.4756,-2.4756,-2.4877,-2.5157,-2.5144,-2.5264,-2.5745,-2.5852,-2.6066,-2.6306,-2.6386,-2.6386,-2.6386,-2.64,-2.64,-2.64,-2.6386,-2.6386,-2.6386,-2.6199,-2.6052,-2.605,-2.5785,-2.5732,-2.5625,-2.5617,-2.5536,-2.5237,-2.6598,-2.7227,-2.7231,-2.8401,-2.9114,-2.9577,-2.976,-3.0201,-3.2036,-3.3812,-3.5108,-3.4964,-3.5431,-3.5811,-2.664,-2.6413,-2.64,-2.6226,-2.5945,-2.5625,-2.5344,-2.513,-2.4796,-2.4576,-2.4589,-2.4562,-2.4536,-2.4543,-2.4289,-2.4329,-2.4556,-2.4583,-2.4596,-2.4596,-2.4623,-2.4636,-2.4636,-2.4636,-2.4636,-2.4636,-2.4636,-2.4623,-2.4596,-2.4583,-2.4596,-2.4569,-2.4543,-2.4496,-2.4516,-2.4302,-2.4182,-2.4168,-2.3955,-2.3928,-2.4142,-2.4168,-2.4155,-2.4182,-2.4182,-2.4182,-2.4182,-2.4168,-2.4035,-2.3768,-2.3714,-2.3701,-2.3714,-2.3714,-2.3728,-2.3781,-2.4022,-2.4195,-2.4249,-2.4422,-2.4583,-2.4623,-2.4609,-2.4609,-2.4549,-2.4636,-2.4636,-2.4636,-2.4877,-2.493,-2.4716,-2.4903,-2.505,-2.5064,-2.505,-2.5184,-2.5464,-2.5264,-2.5237,-2.5558,-2.5852,-2.6092,-2.636,-2.64,-2.64,-2.64,-2.64,-2.64,-2.64,-2.64,-2.64,-2.64,-2.6346,-2.6266,-2.6012,-2.5905,-2.5692,-2.5638,-2.5705,-2.5558,-2.5518,-2.5554,-2.5693,-2.5702,-2.6074,-2.6726,-2.7541,-2.8286,-2.8826,-3.025,-3.2105,-3.3173,-3.3327,-3.4883,-3.5374,-2.6653,-2.64,-2.64,-2.6333,-2.6213,-2.5919,-2.5745,-2.5611,-2.5317,-2.509,-2.4943,-2.4917,-2.481,-2.4636,-2.4529,-2.4543,-2.4623,-2.4636,-2.4636,-2.4636,-2.4636,-2.4636,-2.4636,-2.4636,-2.4636,-2.4636,-2.4636,-2.4636,-2.4636,-2.4636,-2.4636,-2.4636,-2.4636,-2.4636,-2.4609,-2.4529,-2.4476,-2.4476,-2.4369,-2.4369,-2.4462,-2.4489,-2.4476,-2.4476,-2.4476,-2.4476,-2.4489,-2.4302,-2.4155,-2.4048,-2.3875,-2.3781,-2.3794,-2.3955,-2.4048,-2.4075,-2.4315,-2.4476,-2.4489,-2.4569,-2.4636,-2.4636,-2.4636,-2.4636,-2.4636,-2.4636,-2.4636,-2.469,-2.4903,-2.493,-2.481,-2.5064,-2.5358,-2.5331,-2.5211,-2.5291,-2.5611,-2.5545,-2.5545,-2.5959,-2.6172,-2.6279,-2.6346,-2.64,-2.64,-2.64,-2.64,-2.64,-2.64,-2.64,-2.64,-2.64,-2.6386,-2.636,-2.6266,-2.6172,-2.6092,-2.6079,-2.6079,-2.5959,-2.5892,-2.5812,-2.594,-2.5765,-2.5438,-2.5572,-2.6819,-2.7494,-2.8012,-2.8351,-3.0222,-3.1358,-3.135,-3.3069,-3.3886,-2.6653,-2.6413,-2.64,-2.64,-2.636,-2.6079,-2.6037,-2.5996,-2.5638,-2.5398,-2.5224,-2.513,-2.4957,-2.4783,-2.4676,-2.4636,-2.4636,-2.4636,-2.4636,-2.4636,-2.4636,-2.4636,-2.4636,-2.4636,-2.4636,-2.4649,-2.4743,-2.477,-2.4796,-2.4877,-2.4917,-2.493,-2.4836,-2.4783,-2.477,-2.469,-2.4636,-2.4636,-2.4636,-2.4623,-2.4636,-2.4636,-2.4636,-2.4636,-2.4636,-2.4636,-2.4636,-2.4449,-2.4342,-2.4315,-2.4155,-2.4048,-2.4075,-2.4235,-2.4342,-2.4369,-2.4516,-2.4636,-2.4636,-2.4636,-2.4636,-2.4636,-2.4636,-2.4636,-2.4562,-2.473,-2.473,-2.4743,-2.5104,-2.5237,-2.5117,-2.5451,-2.5718,-2.5571,-2.5411,-2.5558,-2.5985,-2.5745,-2.5772,-2.6079,-2.6199,-2.6266,-2.636,-2.6386,-2.64,-2.64,-2.64,-2.64,-2.64,-2.64,-2.64,-2.64,-2.64,-2.6386,-2.6346,-2.6293,-2.6279,-2.6279,-2.6279,-2.6213,-2.6172,-2.6106,-2.6012,-2.5838,-2.5705,-2.5625,-2.6017,-2.6785,-2.7072,-2.7098,-2.838,-2.9895,-3.0428,-3.125,-3.1997,-2.6653,-2.6426,-2.64,-2.64,-2.6346,-2.6119,-2.605,-2.5945,-2.5692,-2.5571,-2.5491,-2.5251,-2.5144,-2.5037,-2.485,-2.469,-2.4716,-2.473,-2.4703,-2.469,-2.4676,-2.469,-2.4716,-2.473,-2.473,-2.4743,-2.4957,-2.5077,-2.509,-2.5304,-2.5424,-2.5424,-2.5197,-2.5077,-2.5077,-2.485,-2.4676,-2.4676,-2.469,-2.4663,-2.4636,-2.4636,-2.4649,-2.4663,-2.4663,-2.469,-2.4676,-2.4636,-2.4522,-2.4609,-2.4522,-2.4623,-2.4556,-2.4596,-2.4609,-2.4596,-2.4636,-2.4636,-2.4636,-2.4636,-2.4636,-2.4636,-2.4636,-2.4636,-2.4663,-2.4877,-2.4943,-2.485,-2.5371,-2.5772,-2.5598,-2.5959,-2.6119,-2.5665,-2.5745,-2.5985,-2.6172,-2.5879,-2.5638,-2.5945,-2.613,-2.6106,-2.6306,-2.64,-2.64,-2.64,-2.64,-2.64,-2.64,-2.6426,-2.6426,-2.64,-2.644,-2.6493,-2.644,-2.6386,-2.6386,-2.6386,-2.6373,-2.6333,-2.6319,-2.6279,-2.6266,-2.6119,-2.6012,-2.5919,-2.5718,-2.6342,-2.6134,-2.6432,-2.7635,-2.8417,-2.8742,-2.9278,-3.0227,-2.6774,-2.6667,-2.6466,-2.64,-2.6386,-2.6293,-2.6253,-2.6253,-2.6146,-2.5999,-2.5825,-2.5732,-2.5571,-2.5398,-2.5277,-2.5237,-2.5237,-2.5237,-2.513,-2.497,-2.4943,-2.505,-2.5197,-2.5237,-2.5237,-2.5251,-2.5331,-2.5371,-2.5398,-2.5478,-2.5518,-2.5491,-2.5424,-2.5384,-2.5371,-2.5277,-2.5157,-2.4957,-2.4943,-2.485,-2.4663,-2.4636,-2.473,-2.4917,-2.4943,-2.5024,-2.5197,-2.4863,-2.4649,-2.4636,-2.4636,-2.4636,-2.4636,-2.4636,-2.4636,-2.4636,-2.4636,-2.4636,-2.4562,-2.4636,-2.4576,-2.4636,-2.4562,-2.4636,-2.4663,-2.493,-2.505,-2.501,-2.5545,-2.5838,-2.5692,-2.6039,-2.6266,-2.6132,-2.6026,-2.6157,-2.6319,-2.6213,-2.6172,-2.6226,-2.6253,-2.6306,-2.636,-2.64,-2.64,-2.64,-2.64,-2.64,-2.6413,-2.6533,-2.6573,-2.644,-2.6533,-2.6547,-2.6453,-2.64,-2.64,-2.64,-2.64,-2.64,-2.64,-2.64,-2.64,-2.6373,-2.6279,-2.6159,-2.5945,-2.5865,-2.5838,-2.5745,-2.6613,-2.6822,-2.6696,-2.7384,-2.8594,-2.7081,-2.6961,-2.6667,-2.6547,-2.6533,-2.644,-2.64,-2.64,-2.64,-2.6279,-2.6119,-2.6077,-2.5852,-2.5678,-2.5571,-2.5518,-2.5518,-2.5518,-2.5478,-2.5384,-2.5277,-2.5358,-2.5504,-2.5518,-2.5518,-2.5545,-2.5625,-2.5678,-2.5678,-2.5785,-2.5838,-2.5838,-2.5732,-2.5678,-2.5665,-2.5558,-2.5411,-2.5264,-2.5237,-2.5157,-2.4997,-2.4957,-2.505,-2.5211,-2.5237,-2.5331,-2.5478,-2.5144,-2.4917,-2.4823,-2.4796,-2.4756,-2.4589,-2.4743,-2.481,-2.4796,-2.4796,-2.481,-2.481,-2.4823,-2.4743,-2.4676,-2.473,-2.4796,-2.4877,-2.5144,-2.5371,-2.5331,-2.5772,-2.5999,-2.5825,-2.6092,-2.6373,-2.6386,-2.6226,-2.6199,-2.636,-2.64,-2.6386,-2.6373,-2.6386,-2.64,-2.64,-2.64,-2.64,-2.64,-2.64,-2.64,-2.6426,-2.6533,-2.6493,-2.6466,-2.6493,-2.648,-2.6413,-2.64,-2.64,-2.64,-2.64,-2.64,-2.64,-2.64,-2.64,-2.64,-2.6333,-2.6306,-2.6146,-2.6199,-2.6199,-2.6079,-2.5959,-2.6205,-2.6525,-2.6586,-2.7344,-2.7535,-2.7255,-2.6947,-2.68,-2.676,-2.6507,-2.64,-2.64,-2.64,-2.6373,-2.6306,-2.6119,-2.6077,-2.5919,-2.5758,-2.5651,-2.5585,-2.5638,-2.5758,-2.5838,-2.5732,-2.5638,-2.5665,-2.5665,-2.5678,-2.5678,-2.5865,-2.5972,-2.5985,-2.6186,-2.6386,-2.6293,-2.6079,-2.5972,-2.5945,-2.5705,-2.5598,-2.5558,-2.5545,-2.5518,-2.5464,-2.5478,-2.5504,-2.5531,-2.5545,-2.5571,-2.5625,-2.5545,-2.5371,-2.5144,-2.5104,-2.4997,-2.4823,-2.4957,-2.5104,-2.5104,-2.5104,-2.5104,-2.5104,-2.5104,-2.501,-2.4823,-2.4983,-2.5104,-2.517,-2.5531,-2.5758,-2.5598,-2.6039,-2.6253,-2.6092,-2.6226,-2.6373,-2.64,-2.636,-2.636,-2.6386,-2.64,-2.64,-2.64,-2.64,-2.64,-2.64,-2.64,-2.64,-2.64,-2.64,-2.64,-2.6413,-2.6466,-2.6426,-2.6453,-2.6493,-2.648,-2.644,-2.64,-2.64,-2.64,-2.64,-2.64,-2.64,-2.64,-2.64,-2.64,-2.6386,-2.6386,-2.6373,-2.6386,-2.6386,-2.6279,-2.6266,-2.6373,-2.6397,-2.6489,-2.6466,-2.7655,-2.7535,-2.7041,-2.6827,-2.6774,-2.6507,-2.64,-2.64,-2.64,-2.64,-2.636,-2.6306,-2.6266,-2.6266,-2.6186,-2.6159,-2.6132,-2.6132,-2.6186,-2.6253,-2.6213,-2.6159,-2.6159,-2.6159,-2.6146,-2.6146,-2.6199,-2.6266,-2.6279,-2.6346,-2.64,-2.6386,-2.6306,-2.6253,-2.6253,-2.6172,-2.6039,-2.5865,-2.5838,-2.5732,-2.5558,-2.5545,-2.5625,-2.5825,-2.5838,-2.5945,-2.6106,-2.5945,-2.5705,-2.5424,-2.5398,-2.5371,-2.5264,-2.5344,-2.5398,-2.5398,-2.5398,-2.5398,-2.5398,-2.5398,-2.5344,-2.5304,-2.5331,-2.5398,-2.5411,-2.5745,-2.5892,-2.5905,-2.6186,-2.636,-2.6293,-2.6346,-2.6386,-2.64,-2.64,-2.64,-2.64,-2.64,-2.64,-2.64,-2.64,-2.64,-2.64,-2.64,-2.64,-2.64,-2.64,-2.64,-2.6413,-2.652,-2.6547,-2.6507,-2.652,-2.6507,-2.648,-2.6426,-2.64,-2.64,-2.64,-2.64,-2.64,-2.64,-2.64,-2.64,-2.64,-2.6386,-2.6386,-2.6386,-2.6386,-2.64,-2.64,-2.6386,-2.6306,-2.634,-2.6205,-2.7883,-2.7843,-2.7388,-2.7188,-2.7134,-2.6747,-2.6573,-2.6547,-2.644,-2.64,-2.64,-2.64,-2.64,-2.64,-2.6386,-2.6386,-2.64,-2.64,-2.6386,-2.6386,-2.6373,-2.6373,-2.6386,-2.6386,-2.64,-2.64,-2.64,-2.6386,-2.6386,-2.64,-2.64,-2.6386,-2.64,-2.64,-2.6373,-2.6386,-2.6319,-2.6172,-2.6132,-2.6039,-2.5892,-2.5879,-2.5959,-2.6119,-2.6146,-2.6239,-2.6346,-2.6226,-2.6012,-2.5772,-2.5692,-2.5651,-2.5531,-2.5638,-2.5692,-2.5692,-2.5705,-2.5705,-2.5705,-2.5692,-2.5638,-2.5571,-2.5611,-2.5692,-2.5745,-2.5959,-2.6132,-2.6172,-2.6306,-2.6373,-2.64,-2.64,-2.64,-2.64,-2.64,-2.64,-2.64,-2.64,-2.64,-2.64,-2.64,-2.64,-2.64,-2.64,-2.64,-2.64,-2.64,-2.64,-2.6413,-2.656,-2.6627,-2.6547,-2.6493,-2.6466,-2.652,-2.6493,-2.6466,-2.6453,-2.652,-2.6493,-2.6466,-2.6453,-2.64,-2.64,-2.64,-2.64,-2.64,-2.64,-2.64,-2.64,-2.64,-2.6373,-2.6319,-2.6279,-2.6146,-2.8234,-2.8194,-2.7829,-2.7709,-2.7575,-2.7081,-2.6787,-2.676,-2.6507,-2.64,-2.64,-2.64,-2.64,-2.64,-2.64,-2.64,-2.64,-2.64,-2.64,-2.64,-2.64,-2.6413,-2.648,-2.6493,-2.652,-2.6547,-2.6466,-2.6493,-2.652,-2.648,-2.6426,-2.644,-2.644,-2.64,-2.64,-2.64,-2.64,-2.636,-2.6346,-2.6333,-2.6293,-2.6279,-2.6306,-2.6319,-2.6333,-2.6346,-2.6386,-2.636,-2.6253,-2.609,-2.609,-2.5892,-2.5692,-2.5879,-2.5985,-2.5999,-2.5999,-2.5999,-2.6077,-2.6063,-2.5905,-2.5758,-2.5892,-2.6077,-2.6052,-2.6213,-2.6346,-2.6333,-2.6386,-2.64,-2.64,-2.64,-2.64,-2.64,-2.64,-2.64,-2.64,-2.64,-2.64,-2.64,-2.64,-2.64,-2.64,-2.64,-2.64,-2.64,-2.64,-2.64,-2.64,-2.6453,-2.6493,-2.644,-2.6413,-2.64,-2.648,-2.6573,-2.6547,-2.6547,-2.6653,-2.668,-2.6627,-2.6573,-2.6453,-2.64,-2.64,-2.64,-2.64,-2.64,-2.64,-2.64,-2.64,-2.64,-2.6386,-2.636,-2.6266,-2.8234,-2.8194,-2.7816,-2.7709,-2.7602,-2.7081,-2.6827,-2.6814,-2.652,-2.64,-2.64,-2.64,-2.64,-2.64,-2.64,-2.64,-2.64,-2.64,-2.64,-2.64,-2.64,-2.6533,-2.668,-2.6747,-2.6867,-2.6934,-2.6814,-2.6854,-2.6921,-2.6667,-2.652,-2.6694,-2.656,-2.64,-2.6426,-2.6466,-2.64,-2.64,-2.64,-2.64,-2.64,-2.64,-2.64,-2.6413,-2.64,-2.64,-2.64,-2.64,-2.636,-2.6319,-2.6279,-2.6213,-2.6172,-2.6226,-2.6266,-2.6266,-2.6279,-2.6279,-2.6293,-2.6266,-2.6279,-2.6186,-2.6186,-2.6293,-2.6306,-2.6333,-2.64,-2.64,-2.64,-2.64,-2.64,-2.64,-2.64,-2.64,-2.6413,-2.6413,-2.64,-2.64,-2.64,-2.64,-2.64,-2.64,-2.64,-2.64,-2.64,-2.64,-2.64,-2.64,-2.64,-2.6413,-2.6413,-2.6426,-2.648,-2.6493,-2.656,-2.6694,-2.68,-2.68,-2.6881,-2.6907,-2.6854,-2.6747,-2.664,-2.6507,-2.64,-2.6413,-2.648,-2.64,-2.64,-2.64,-2.6426,-2.6466,-2.648,-2.6453,-2.6453,-2.8234,-2.8207,-2.7976,-2.7909,-2.7816,-2.7281,-2.7028,-2.6947,-2.656,-2.64,-2.64,-2.64,-2.64,-2.64,-2.64,-2.64,-2.64,-2.64,-2.648,-2.656,-2.6613,-2.6841,-2.7175,-2.7215,-2.7281,-2.7268,-2.7108,-2.7148,-2.7134,-2.7001,-2.6894,-2.7014,-2.6854,-2.6841,-2.68,-2.6787,-2.6734,-2.6627,-2.6587,-2.6533,-2.6413,-2.64,-2.6493,-2.652,-2.648,-2.644,-2.6587,-2.6453,-2.64,-2.64,-2.64,-2.64,-2.64,-2.64,-2.64,-2.64,-2.64,-2.64,-2.6386,-2.64,-2.6386,-2.64,-2.64,-2.6386,-2.64,-2.64,-2.64,-2.64,-2.64,-2.64,-2.64,-2.64,-2.64,-2.6426,-2.652,-2.6573,-2.6573,-2.648,-2.64,-2.64,-2.64,-2.64,-2.64,-2.6413,-2.6413,-2.6426,-2.6627,-2.6627,-2.648,-2.648,-2.648,-2.6507,-2.6573,-2.6613,-2.6667,-2.6814,-2.7081,-2.7121,-2.7201,-2.7175,-2.7189,-2.6987,-2.6854,-2.676,-2.668,-2.6613,-2.664,-2.652,-2.6493,-2.656,-2.6613,-2.6613,-2.6613,-2.6613,-2.6627,-2.8234,-2.8234,-2.8234,-2.8221,-2.814,-2.7562,-2.7295,-2.7175,-2.6694,-2.6453,-2.64,-2.64,-2.64,-2.64,-2.64,-2.64,-2.6413,-2.6493,-2.6613,-2.676,-2.6867,-2.7161,-2.7509,-2.7589,-2.7575,-2.7402,-2.7348,-2.7375,-2.7415,-2.7308,-2.7215,-2.7295,-2.7255,-2.7175,-2.731,-2.7323,-2.7108,-2.6907,-2.6881,-2.6814,-2.66,-2.6547,-2.6613,-2.6694,-2.6707,-2.6694,-2.6814,-2.6707,-2.6547,-2.6453,-2.6453,-2.6426,-2.64,-2.64,-2.64,-2.64,-2.64,-2.64,-2.64,-2.64,-2.64,-2.64,-2.64,-2.64,-2.64,-2.64,-2.64,-2.64,-2.64,-2.64,-2.64,-2.64,-2.6426,-2.6493,-2.6694,-2.6827,-2.6841,-2.6653,-2.66,-2.648,-2.644,-2.64,-2.6426,-2.6453,-2.6453,-2.6507,-2.672,-2.6827,-2.6694,-2.664,-2.6707,-2.6734,-2.6841,-2.6881,-2.6921,-2.7094,-2.7335,-2.7415,-2.7495,-2.7495,-2.7537,-2.7537,-2.7444,-2.7134,-2.7041,-2.6947,-2.6867,-2.6814,-2.68,-2.6814,-2.6841,-2.6867,-2.6841,-2.68,-2.6827,-2.8234,-2.8234,-2.8234,-2.8234,-2.8167,-2.7776,-2.7482,-2.7241,-2.6907,-2.6613,-2.6413,-2.64,-2.6413,-2.64,-2.64,-2.64,-2.6466,-2.664,-2.68,-2.6921,-2.7081,-2.7415,-2.7682,-2.7762,-2.7802,-2.798,-2.7776,-2.7736,-2.7859,-2.7631,-2.7482,-2.7535,-2.7428,-2.7417,-2.7417,-2.735,-2.7308,-2.7215,-2.7188,-2.7134,-2.7014,-2.6827,-2.676,-2.6867,-2.6921,-2.7068,-2.7148,-2.7134,-2.7014,-2.6787,-2.6747,-2.6613,-2.6466,-2.6413,-2.64,-2.64,-2.64,-2.64,-2.64,-2.64,-2.64,-2.64,-2.64,-2.64,-2.64,-2.64,-2.6413,-2.6426,-2.6426,-2.6413,-2.64,-2.644,-2.6533,-2.6667,-2.6827,-2.6961,-2.7121,-2.7121,-2.6987,-2.6841,-2.6627,-2.6426,-2.6507,-2.6573,-2.6613,-2.6747,-2.6987,-2.7094,-2.7014,-2.7041,-2.7121,-2.7148,-2.7175,-2.7188,-2.7201,-2.7428,-2.7642,-2.7696,-2.7776,-2.7993,-2.7993,-2.8073,-2.798,-2.7658,-2.7348,-2.7228,-2.7161,-2.7094,-2.7108,-2.7134,-2.7148,-2.7216,-2.7175,-2.7188,-2.7121,-2.8234,-2.8234,-2.8234,-2.8234,-2.8181,-2.7829,-2.7629,-2.7455,-2.7175,-2.6881,-2.668,-2.66,-2.652,-2.6426,-2.64,-2.6466,-2.6667,-2.6921,-2.7121,-2.7281,-2.7428,-2.7642,-2.7896,-2.7923,-2.8003,-2.8154,-2.8003,-2.7976,-2.811,-2.7966,-2.7872,-2.7856,-2.7776,-2.7805,-2.7722,-2.7832,-2.7615,-2.7535,-2.7482,-2.7415,-2.7268,-2.6987,-2.6907,-2.7041,-2.7068,-2.7188,-2.7442,-2.7308,-2.7201,-2.7054,-2.6907,-2.676,-2.6613,-2.648,-2.64,-2.64,-2.64,-2.64,-2.64,-2.64,-2.64,-2.64,-2.64,-2.64,-2.64,-2.64,-2.648,-2.6573,-2.6613,-2.6613,-2.6627,-2.6613,-2.668,-2.6827,-2.7068,-2.7308,-2.7442,-2.7482,-2.7388,-2.7228,-2.6921,-2.6734,-2.6653,-2.672,-2.68,-2.6987,-2.7255,-2.7321,-2.7417,-2.7402,-2.7482,-2.7415,-2.7442,-2.7549,-2.7549,-2.7709,-2.7856,-2.7909,-2.7963,-2.8181,-2.8221,-2.8207,-2.8154,-2.7966,-2.7696,-2.7509,-2.7415,-2.7348,-2.7402,-2.7428,-2.7362,-2.7348,-2.7509,-2.7575,-2.7482,-2.8234,-2.8234,-2.8234,-2.8234,-2.8194,-2.7896,-2.7749,-2.7655,-2.7455,-2.7188,-2.6934,-2.6907,-2.6787,-2.6627,-2.6613,-2.672,-2.6934,-2.7215,-2.7455,-2.7615,-2.7749,-2.7936,-2.8154,-2.8234,-2.8221,-2.8207,-2.8207,-2.8234,-2.8221,-2.8167,-2.8207,-2.8181,-2.8207,-2.8234,-2.8181,-2.8127,-2.7963,-2.7883,-2.7789,-2.7642,-2.7375,-2.7201,-2.7148,-2.7335,-2.7175,-2.7362,-2.7722,-2.7629,-2.7402,-2.7241,-2.7041,-2.6854,-2.672,-2.6507,-2.64,-2.64,-2.64,-2.64,-2.64,-2.6493,-2.6493,-2.6413,-2.652,-2.6533,-2.6533,-2.6613,-2.6694,-2.6854,-2.6907,-2.6907,-2.6907,-2.6907,-2.6961,-2.7108,-2.7415,-2.7709,-2.7762,-2.7789,-2.7789,-2.7562,-2.7228,-2.7054,-2.6974,-2.7081,-2.7201,-2.7308,-2.7562,-2.7669,-2.7765,-2.7819,-2.7762,-2.7655,-2.7682,-2.7869,-2.7936,-2.8047,-2.8043,-2.8043,-2.8154,-2.8207,-2.8234,-2.8221,-2.8154,-2.81,-2.7949,-2.7776,-2.7696,-2.7642,-2.7709,-2.7696,-2.7549,-2.7575,-2.7859,-2.7899,-2.7819,-2.8234,-2.8234,-2.8234,-2.8234,-2.8221,-2.8181,-2.7936,-2.7722,-2.7669,-2.7482,-2.7215,-2.7215,-2.7188,-2.7121,-2.7134,-2.7175,-2.7295,-2.7509,-2.7682,-2.7789,-2.7949,-2.8154,-2.8221,-2.8221,-2.8234,-2.8234,-2.8234,-2.8234,-2.8234,-2.8234,-2.8234,-2.8234,-2.8234,-2.8234,-2.8234,-2.8234,-2.8221,-2.8083,-2.807,-2.7923,-2.7709,-2.7789,-2.7762,-2.7709,-2.7776,-2.798,-2.8073,-2.7993,-2.7736,-2.7321,-2.7228,-2.6947,-2.656,-2.6426,-2.64,-2.64,-2.64,-2.64,-2.6453,-2.66,-2.668,-2.6627,-2.6841,-2.6947,-2.6907,-2.7001,-2.7134,-2.7188,-2.7215,-2.7215,-2.7215,-2.7215,-2.7348,-2.7468,-2.7642,-2.7869,-2.7976,-2.7963,-2.7976,-2.7936,-2.7615,-2.7428,-2.7308,-2.7468,-2.7629,-2.7722,-2.7829,-2.7923,-2.8073,-2.8073,-2.8073,-2.798,-2.7926,-2.8003,-2.807,-2.8221,-2.8234,-2.8234,-2.8234,-2.8234,-2.8234,-2.8234,-2.8221,-2.8181,-2.8043,-2.803,-2.7949,-2.8033,-2.8114,-2.806,-2.7926,-2.7993,-2.8154,-2.8127,-2.8033,-2.8234,-2.8234,-2.8234,-2.8234,-2.8234,-2.8234,-2.8167,-2.7976,-2.7949,-2.7789,-2.7549,-2.7509,-2.7428,-2.7348,-2.7415,-2.7509,-2.7575,-2.7802,-2.7949,-2.7936,-2.8154,-2.8234,-2.8221,-2.8234,-2.8234,-2.8234,-2.8234,-2.8234,-2.8234,-2.8234,-2.8234,-2.8234,-2.8234,-2.8234,-2.8234,-2.8234,-2.8221,-2.8221,-2.8194,-2.7989,-2.7816,-2.7816,-2.7843,-2.7709,-2.7843,-2.7976,-2.8167,-2.7949,-2.7802,-2.7455,-2.7255,-2.6921,-2.6653,-2.6493,-2.64,-2.64,-2.656,-2.6627,-2.6653,-2.6774,-2.6814,-2.6921,-2.7108,-2.7175,-2.7148,-2.7335,-2.7509,-2.7509,-2.7509,-2.7509,-2.7509,-2.7509,-2.7575,-2.7696,-2.7843,-2.7949,-2.8167,-2.8194,-2.8194,-2.8154,-2.803,-2.7899,-2.7725,-2.7669,-2.7749,-2.7789,-2.7909,-2.8114,-2.8167,-2.8167,-2.8181,-2.8181,-2.8167,-2.8194,-2.8207,-2.8234,-2.8234,-2.8234,-2.8234,-2.8234,-2.8234,-2.8234,-2.8234,-2.8234,-2.8194,-2.8194,-2.8234,-2.8207,-2.8181,-2.8194,-2.8221,-2.8234,-2.8234,-2.8221,-2.8087,-2.8234,-2.8234,-2.8234,-2.8234,-2.8234,-2.8234,-2.8221,-2.8221,-2.8221,-2.81,-2.7856,-2.7802,-2.7682,-2.7575,-2.7709,-2.7802,-2.7829,-2.8127,-2.8207,-2.8234,-2.8234,-2.8234,-2.8234,-2.8234,-2.8234,-2.8234,-2.8234,-2.8234,-2.8234,-2.8234,-2.8234,-2.8234,-2.8234,-2.8234,-2.8234,-2.8234,-2.8234,-2.8234,-2.8234,-2.803,-2.7883,-2.7843,-2.7843,-2.7802,-2.7776,-2.7843,-2.8127,-2.7869,-2.7709,-2.7602,-2.7362,-2.7108,-2.6921,-2.6787,-2.6707,-2.672,-2.6854,-2.6987,-2.7041,-2.7121,-2.7134,-2.7228,-2.7375,-2.7442,-2.7549,-2.7709,-2.7802,-2.7816,-2.7816,-2.7816,-2.7816,-2.7802,-2.7829,-2.7909,-2.8003,-2.8167,-2.8234,-2.8234,-2.8234,-2.8207,-2.8181,-2.8194,-2.8047,-2.7883,-2.7869,-2.7856,-2.7963,-2.8194,-2.8234,-2.8234,-2.8234,-2.8234,-2.8234,-2.8234,-2.8234,-2.8234,-2.8234,-2.8248,-2.8261,-2.8261,-2.8274,-2.8248,-2.8234,-2.8234,-2.8248,-2.8234,-2.8234,-2.8234,-2.8234,-2.8234,-2.8234,-2.8234,-2.8234,-2.8234,-2.8194,-2.8234,-2.8234,-2.8234,-2.8234,-2.8234,-2.8234,-2.8234,-2.8234,-2.8234,-2.8207,-2.8154,-2.8181,-2.814,-2.814,-2.81,-2.8154,-2.8181,-2.8207,-2.8221,-2.8234,-2.8234,-2.8234,-2.8234,-2.8234,-2.8234,-2.8234,-2.8234,-2.8234,-2.8234,-2.8234,-2.8234,-2.8234,-2.8234,-2.8234,-2.8234,-2.8234,-2.8234,-2.8234,-2.8234,-2.8221,-2.8167,-2.8154,-2.8154,-2.81,-2.7869,-2.7829,-2.8181,-2.7829,-2.7682,-2.7682,-2.7522,-2.7375,-2.7161,-2.7094,-2.7054,-2.7081,-2.7161,-2.7308,-2.7442,-2.7482,-2.7482,-2.7428,-2.7509,-2.7749,-2.7993,-2.8114,-2.8181,-2.8056,-2.803,-2.814,-2.8154,-2.8194,-2.8127,-2.814,-2.8167,-2.8194,-2.8234,-2.8234,-2.8234,-2.8234,-2.8234,-2.8234,-2.8221,-2.803,-2.8003,-2.7989,-2.8087,-2.8234,-2.8234,-2.8234,-2.8234,-2.8234,-2.8234,-2.8234,-2.8234,-2.8234,-2.8261,-2.8328,-2.8368,-2.827,-2.827,-2.823,-2.8257,-2.8288,-2.8301,-2.8261,-2.8234,-2.8234,-2.8234,-2.8234,-2.8234,-2.8234,-2.8234,-2.8234,-2.8234,-2.8234,-2.8234,-2.8234,-2.8234,-2.8234,-2.8234,-2.8234,-2.8234,-2.8234,-2.8234,-2.8234,-2.8234,-2.8234,-2.8234,-2.8234,-2.8234,-2.8234,-2.8234,-2.8234,-2.8234,-2.8234,-2.8234,-2.8234,-2.8234,-2.8234,-2.8234,-2.8234,-2.8234,-2.8234,-2.8234,-2.8234,-2.8234,-2.8234,-2.8234,-2.8234,-2.8234,-2.8234,-2.8234,-2.8234,-2.8234,-2.8234,-2.8234,-2.8234,-2.8207,-2.7856,-2.7869,-2.8016,-2.7655,-2.7602,-2.7615,-2.7549,-2.7442,-2.7362,-2.7403,-2.7403,-2.743,-2.7442,-2.7589,-2.7669,-2.7736,-2.7709,-2.7856,-2.7923,-2.81,-2.8221,-2.8221,-2.8234,-2.8221,-2.8234,-2.8234,-2.8221,-2.8221,-2.8207,-2.8221,-2.8234,-2.8234,-2.8234,-2.8234,-2.8234,-2.8234,-2.8234,-2.8234,-2.8234,-2.8221,-2.8207,-2.8207,-2.8221,-2.8234,-2.8234,-2.8248,-2.8261,-2.8261,-2.8261,-2.8274,-2.8288,-2.8288,-2.8301,-2.831,-2.839,-2.8417,-2.843,-2.8457,-2.8457,-2.8377,-2.8341,-2.8261,-2.8234,-2.8234,-2.8234,-2.8234,-2.8234,-2.8234,-2.8234,-2.8234,-2.8234,-2.8234,-2.8234,-2.8234,-2.8234,-2.8234,-2.8234,-2.8234,-2.8234,-2.8234,-2.8234,-2.8234,-2.8234,-2.8234,-2.8234,-2.8234,-2.8234,-2.8234,-2.8234,-2.8234,-2.8234,-2.8234,-2.8234,-2.8234,-2.8234,-2.8234,-2.8234,-2.8234,-2.8234,-2.8234,-2.8234,-2.8234,-2.8234,-2.8234,-2.8234,-2.8234,-2.8234,-2.8234,-2.8234,-2.8234,-2.8234,-2.8234,-2.8234,-2.8234,-2.8181,-2.7856,-2.7869,-2.7949,-2.7749,-2.7655,-2.7722,-2.7709,-2.7658,-2.7535,-2.7522,-2.7522,-2.7589,-2.7682,-2.7816,-2.7829,-2.7856,-2.7923,-2.8043,-2.8181,-2.8207,-2.8234,-2.8234,-2.8234,-2.8234,-2.8234,-2.8234,-2.8234,-2.8234,-2.8234,-2.8234,-2.8234,-2.8234,-2.8234,-2.8234,-2.8234,-2.8234,-2.8234,-2.8234,-2.8234,-2.8234,-2.8234,-2.8234,-2.8234,-2.8234,-2.8234,-2.8261,-2.8315,-2.8315,-2.8315,-2.8328,-2.8355,-2.8315,-2.8301,-2.843,-2.8524,-2.8604,-2.8631,-2.8644,-2.8524,-2.8323,-2.8288,-2.8248,-2.8234,-2.8234,-2.8234,-2.8234,-2.8234,-2.8234,-2.8234,-2.8234,-2.8234,-2.8234,-2.8234,-2.8234,-2.8234,-2.8234,-2.8234,-2.8234,-2.8234,-2.8234,-2.8234,-2.8234,-2.8234,-2.8234,-2.8234,-2.8234,-2.8234,-2.8234,-2.8234,-2.8234,-2.8234,-2.8234,-2.8234,-2.8234,-2.8234,-2.8234,-2.8234,-2.8234,-2.8234,-2.8234,-2.8234,-2.8234,-2.8234,-2.8234,-2.8234,-2.8234,-2.8234,-2.8234,-2.8234,-2.8234,-2.8234,-2.8234,-2.8234,-2.8234,-2.8167,-2.7856,-2.7856,-2.806,-2.7816,-2.7762,-2.7963,-2.81,-2.8047,-2.806,-2.8073,-2.8087,-2.8114,-2.814,-2.8181,-2.8194,-2.8207,-2.8207,-2.8221,-2.8234,-2.8234,-2.8234,-2.8234,-2.8234,-2.8234,-2.8234,-2.8234,-2.8234,-2.8248,-2.8274,-2.8248,-2.8248,-2.8261,-2.8261,-2.8234,-2.8234,-2.8234,-2.8234,-2.8234,-2.8234,-2.8234,-2.8234,-2.8234,-2.8234,-2.8234,-2.8234,-2.8257,-2.8337,-2.835,-2.8364,-2.8457,-2.8457,-2.8243,-2.8243,-2.8484,-2.8644,-2.8724,-2.8738,-2.8698,-2.8524,-2.8368,-2.8261,-2.8234,-2.8234,-2.8234,-2.8234,-2.8234,-2.8234,-2.8234,-2.8234,-2.8234,-2.8234,-2.8234,-2.8234,-2.8234,-2.8234,-2.8234,-2.8234,-2.8234,-2.8234,-2.8234,-2.8234,-2.8234,-2.8234,-2.8234,-2.8234,-2.8234,-2.8234,-2.8234,-2.8234,-2.8234,-2.8234,-2.8234,-2.8234,-2.8234,-2.8234,-2.8234,-2.8234,-2.8234,-2.8234,-2.8234,-2.8234,-2.8234,-2.8234,-2.8234,-2.8234,-2.8234,-2.8234,-2.8234,-2.8234,-2.8234,-2.8234,-2.8234,-2.8234,-2.8221,-2.8221,-2.7869,-2.7869,-2.8181,-2.7856,-2.7896,-2.8194,-2.8221,-2.8234,-2.8234,-2.8234,-2.8234,-2.8234,-2.8234,-2.8234,-2.8234,-2.8221,-2.8221,-2.8234,-2.8234,-2.8234,-2.8234,-2.8234,-2.8234,-2.8234,-2.8261,-2.8261,-2.8234,-2.8364,-2.8404,-2.8328,-2.8315,-2.8341,-2.8341,-2.8261,-2.8234,-2.8234,-2.8234,-2.8261,-2.8274,-2.8328,-2.8328,-2.823,-2.823,-2.8248,-2.8234,-2.8377,-2.8524,-2.8524,-2.8551,-2.8671,-2.8671,-2.8417,-2.8484,-2.8804,-2.8845,-2.8831,-2.8818,-2.8738,-2.8591,-2.8377,-2.8257,-2.8234,-2.8234,-2.8234,-2.8234,-2.8234,-2.8234,-2.8234,-2.8234,-2.8234,-2.8234,-2.8234,-2.8234,-2.8234,-2.8234,-2.8234,-2.8234,-2.8234,-2.8234,-2.8234,-2.8234,-2.8234,-2.8234,-2.8234,-2.8234,-2.8234,-2.8234,-2.8234,-2.8234,-2.8234,-2.8234,-2.8234,-2.8234,-2.8234,-2.8234,-2.8234,-2.8234,-2.8234,-2.8234,-2.8234,-2.8234,-2.8234,-2.8234,-2.8234,-2.8234,-2.8234,-2.8234,-2.8234,-2.8234,-2.8234,-2.8234,-2.8234,-2.8234,-2.8234,-2.8181,-2.8003,-2.7963,-2.803,-2.8016,-2.7936,-2.8181,-2.8234,-2.8234,-2.8234,-2.8234,-2.8234,-2.8234,-2.8234,-2.8234,-2.8234,-2.8234,-2.8234,-2.8234,-2.8234,-2.8234,-2.8234,-2.8234,-2.8234,-2.8248,-2.823,-2.8297,-2.8364,-2.8604,-2.8657,-2.8497,-2.8524,-2.8564,-2.8537,-2.847,-2.8457,-2.8417,-2.8404,-2.8377,-2.8395,-2.8323,-2.8377,-2.835,-2.8323,-2.8257,-2.823,-2.8484,-2.8657,-2.8617,-2.8671,-2.8791,-2.8738,-2.8537,-2.8711,-2.9098,-2.9005,-2.8791,-2.8791,-2.8698,-2.8591,-2.847,-2.8283,-2.8234,-2.8234,-2.8234,-2.8234,-2.8234,-2.8234,-2.8234,-2.8234,-2.8234,-2.8234,-2.8234,-2.8234,-2.8234,-2.8234,-2.8234,-2.8234,-2.8234,-2.8234,-2.8234,-2.8234,-2.8234,-2.8234,-2.8234,-2.8234,-2.8234,-2.8234,-2.8234,-2.8234,-2.8234,-2.8234,-2.8234,-2.8234,-2.8234,-2.8234,-2.8234,-2.8234,-2.8234,-2.8234,-2.8234,-2.8234,-2.8234,-2.8234,-2.8234,-2.8234,-2.8234,-2.8234,-2.8234,-2.8234,-2.8234,-2.8234,-2.8234,-2.8234,-2.8234,-2.8207,-2.8181,-2.8167,-2.8207,-2.8181,-2.8181,-2.8234,-2.8234,-2.8234,-2.8234,-2.8234,-2.8234,-2.8234,-2.8234,-2.8234,-2.8234,-2.8234,-2.8234,-2.8234,-2.8274,-2.8248,-2.8248,-2.8274,-2.8341,-2.8337,-2.8444,-2.8551,-2.8657,-2.8845,-2.9018,-2.8978,-2.8991,-2.8991,-2.8965,-2.8938,-2.8925,-2.8911,-2.8898,-2.8831,-2.8657,-2.8617,-2.8617,-2.8657,-2.8631,-2.8497,-2.8524,-2.8711,-2.8804,-2.8657,-2.8724,-2.8871,-2.8791,-2.8617,-2.8778,-2.9125,-2.8764,-2.8564,-2.8604,-2.8617,-2.8444,-2.831,-2.8288,-2.8234,-2.8234,-2.8234,-2.8234,-2.8234,-2.8234,-2.8234,-2.8234,-2.8234,-2.8234,-2.8234,-2.8234,-2.8234,-2.8234,-2.8234,-2.8234,-2.8234,-2.8234,-2.8234,-2.8234,-2.8234,-2.8234,-2.8234,-2.8234,-2.8234,-2.8234,-2.8234,-2.8234,-2.8234,-2.8234,-2.8234,-2.8234,-2.8234,-2.8234,-2.8234,-2.8234,-2.8234,-2.8234,-2.8234,-2.8234,-2.8234,-2.8234,-2.8234,-2.8234,-2.8234,-2.8234,-2.8234,-2.8234,-2.8234,-2.8234,-2.8234,-2.8234,-2.8234,-2.8234,-2.8234,-2.8234,-2.8234,-2.8234,-2.8234,-2.8234,-2.8234,-2.8234,-2.8234,-2.8234,-2.8234,-2.8234,-2.8234,-2.8234,-2.8234,-2.8234,-2.8248,-2.8243,-2.835,-2.831,-2.8283,-2.835,-2.847,-2.8564,-2.8738,-2.8871,-2.8978,-2.9138,-2.9245,-2.9245,-2.9272,-2.9299,-2.9259,-2.9205,-2.9192,-2.9192,-2.9179,-2.9085,-2.8925,-2.8911,-2.8925,-2.8978,-2.8938,-2.8791,-2.8778,-2.8951,-2.8818,-2.8644,-2.8778,-2.8925,-2.8858,-2.8711,-2.8898,-2.9018,-2.8644,-2.8404,-2.8484,-2.8457,-2.8283,-2.8274,-2.8234,-2.8234,-2.8234,-2.8234,-2.8234,-2.8234,-2.8234,-2.8234,-2.8234,-2.8234,-2.8234,-2.8234,-2.8234,-2.8234,-2.8234,-2.8234,-2.8234,-2.8234,-2.8234,-2.8234,-2.8234,-2.8234,-2.8234,-2.8234,-2.8234,-2.8234,-2.8234,-2.8234,-2.8234,-2.8234,-2.8234,-2.8234,-2.8234,-2.8234,-2.8234,-2.8234,-2.8234,-2.8234,-2.8234,-2.8234,-2.8234,-2.8234,-2.8234,-2.8234,-2.8234,-2.8234,-2.8234,-2.8234,-2.8234,-2.8234,-2.8234,-2.8234,-2.8234,-2.8234,-2.8234,-2.8234,-2.8234,-2.8234,-2.8234,-2.8234,-2.8234,-2.8234,-2.8234,-2.8234,-2.8234,-2.8234,-2.8234,-2.8234,-2.8234,-2.8248,-2.8297,-2.831,-2.8404,-2.8604,-2.8657,-2.8657,-2.8698,-2.8751,-2.8818,-2.9045,-2.9232,-2.9339,-2.9432,-2.9432,-2.9432,-2.9499,-2.9566,-2.9499,-2.9419,-2.9406,-2.9392,-2.9339,-2.9272,-2.9205,-2.9205,-2.9152,-2.9072,-2.9032,-2.8978,-2.8991,-2.9125,-2.8818,-2.8457,-2.8711,-2.8965,-2.8845,-2.8684,-2.8724,-2.8711,-2.8457,-2.8297,-2.8377,-2.8337,-2.8301,-2.8248,-2.8234,-2.8234,-2.8234,-2.8234,-2.8234,-2.8234,-2.8234,-2.8234,-2.8234,-2.8234,-2.8234,-2.8234,-2.8234,-2.8234,-2.8234,-2.8234,-2.8234,-2.8234,-2.8234,-2.8234,-2.8234,-2.8234,-2.8234,-2.8234,-2.8234,-2.8234,-2.8234,-2.8234,-2.8234,-2.8234,-2.8234,-2.8234,-2.8234,-2.8234,-2.8234,-2.8234,-2.8234,-2.8234,-2.8234,-2.8234,-2.8234,-2.8234,-2.8234,-2.8234,-2.8234,-2.8234,-2.8234,-2.8234,-2.8234,-2.8234,-2.8234,-2.8234,-2.8234,-2.8234,-2.8234,-2.8234,-2.8234,-2.8234,-2.8234,-2.8234,-2.8234,-2.8234,-2.8234,-2.8301,-2.8297,-2.8283,-2.8382,-2.835,-2.835,-2.8417,-2.8537,-2.8604,-2.8724,-2.8898,-2.9005,-2.9032,-2.9032,-2.9072,-2.9138,-2.9325,-2.9486,-2.9593,-2.9659,-2.9686,-2.9686,-2.9726,-2.9753,-2.9726,-2.9673,-2.9673,-2.9646,-2.9593,-2.9526,-2.9513,-2.9513,-2.9486,-2.9272,-2.9219,-2.9219,-2.9165,-2.9299,-2.8938,-2.843,-2.8604,-2.8818,-2.8631,-2.8497,-2.8444,-2.835,-2.8301,-2.8261,-2.8243,-2.8301,-2.8234,-2.8234,-2.8234,-2.8234,-2.8234,-2.8234,-2.8234,-2.8234,-2.8234,-2.8234,-2.8234,-2.8234,-2.8234,-2.8234,-2.8234,-2.8234,-2.8234,-2.8234,-2.8234,-2.8234,-2.8234,-2.8234,-2.8234,-2.8234,-2.8234,-2.8234,-2.8234,-2.8234,-2.8234,-2.8234,-2.8234,-2.8234,-2.8234,-2.8234,-2.8234,-2.8234,-2.8234,-2.8234,-2.8234,-2.8234,-2.8234,-2.8234,-2.8234,-2.8234,-2.8234,-2.8234,-2.8234,-2.8234,-2.8234,-2.8234,-2.8234,-2.8234,-2.8234,-2.8234,-2.8234,-2.8234,-2.8234,-2.8234,-2.8234,-2.8234,-2.8234,-2.8234,-2.8234,-2.8234,-2.827,-2.847,-2.8684,-2.8804,-2.8818,-2.8751,-2.8738,-2.8764,-2.8845,-2.8925,-2.9018,-2.9179,-2.9299,-2.9366,-2.9379,-2.9406,-2.9486,-2.9566,-2.97,-2.9806,-2.9873,-2.9913,-2.9913,-2.9913,-2.9913,-2.9913,-2.9913,-2.9913,-2.9873,-2.9833,-2.9806,-2.978,-2.978,-2.9766,-2.974,-2.974,-2.9673,-2.9419,-2.9379,-2.9098,-2.8684,-2.8564,-2.8617,-2.8457,-2.8337,-2.831,-2.831,-2.8341,-2.8288,-2.8234,-2.8288,-2.8257,-2.8261,-2.8234,-2.8261,-2.8261,-2.8234,-2.8234,-2.8234,-2.8234,-2.8234,-2.8234,-2.8234,-2.8234,-2.8234,-2.8234,-2.8234,-2.8234,-2.8234,-2.8234,-2.8234,-2.8234,-2.8234,-2.8234,-2.8234,-2.8234,-2.8234,-2.8234,-2.8234,-2.8234,-2.8234,-2.8234,-2.8234,-2.8234,-2.8234,-2.8234,-2.8234,-2.8234,-2.8234,-2.8234,-2.8234,-2.8234,-2.8234,-2.8234,-2.8234,-2.8234,-2.8234,-2.8234,-2.8234,-2.8234,-2.8234,-2.8234,-2.8234,-2.8234,-2.8234,-2.8234,-2.8234,-2.8234,-2.8234,-2.8234,-2.8234,-2.8234,-2.8234,-2.8234,-2.8234,-2.831,-2.8511,-2.8698,-2.8871,-2.8965,-2.9005,-2.8958,-2.9085,-2.9165,-2.9232,-2.9325,-2.9499,-2.9646,-2.9673,-2.9673,-2.9673,-2.974,-2.974,-2.986,-2.986,-2.9913,-2.9913,-2.9913,-2.9913,-2.9913,-2.9913,-2.9913,-2.9913,-2.99,-2.9873,-2.9873,-2.986,-2.986,-2.9806,-2.9619,-2.97,-2.9753,-2.9579,-2.9446,-2.9152,-2.8898,-2.8738,-2.8631,-2.8551,-2.8377,-2.823,-2.8315,-2.8341,-2.8288,-2.8248,-2.8297,-2.8364,-2.8283,-2.823,-2.8243,-2.8243,-2.8274,-2.8234,-2.8234,-2.8234,-2.8234,-2.8234,-2.8234,-2.8234,-2.8234,-2.8234,-2.8234,-2.8234,-2.8234,-2.8234,-2.8234,-2.8234,-2.8234,-2.8234,-2.8234,-2.8234,-2.8234,-2.8234,-2.8234,-2.8234,-2.8234,-2.8234,-2.8234,-2.8234,-2.8234,-2.8234,-2.8234,-2.8234,-2.8234,-2.8234,-2.8234,-2.8234,-2.8234,-2.8234,-2.8234,-2.8234,-2.8234,-2.8234,-2.8234,-2.8234,-2.8234,-2.8234,-2.8234,-2.8234,-2.8234,-2.8234,-2.8234,-2.8234,-2.8234,-2.8234,-2.8234,-2.8234,-2.8234,-2.8274,-2.8315,-2.8444,-2.8657,-2.8858,-2.9045,-2.9192,-2.9299,-2.9272,-2.9272,-2.9432,-2.9499,-2.9606,-2.982,-2.99,-2.99,-2.9887,-2.9887,-2.99,-2.9913,-2.9913,-2.9913,-2.9913,-2.9913,-2.9913,-2.9913,-2.9913,-2.9913,-2.9913,-2.9913,-2.9913,-2.9913,-2.9913,-2.9913,-2.9913,-2.9806,-2.9593,-2.9526,-2.9539,-2.9526,-2.9446,-2.9272,-2.9018,-2.8818,-2.8711,-2.8564,-2.847,-2.827,-2.8261,-2.8274,-2.8248,-2.8274,-2.835,-2.843,-2.839,-2.8364,-2.8283,-2.8257,-2.8315,-2.8274,-2.8234,-2.8234,-2.8234,-2.8234,-2.8234,-2.8234,-2.8234,-2.8234,-2.8234,-2.8234,-2.8234,-2.8234,-2.8234,-2.8234,-2.8234,-2.8234,-2.8234,-2.8234,-2.8234,-2.8234,-2.8234,-2.8234,-2.8234,-2.8234,-2.8234,-2.8234,-2.8234,-2.8234,-2.8234,-2.8234,-2.8234,-2.8234,-2.8234,-2.8234,-2.8234,-2.8234,-2.8234,-2.8234,-2.8234,-2.8234,-2.8234,-2.8234,-2.8234,-2.8234,-2.8234,-2.8234,-2.8234,-2.8234,-2.8234,-2.8234,-2.8234,-2.8234,-2.8234,-2.8234,-2.8234,-2.8301,-2.835,-2.8591,-2.8804,-2.9018,-2.9245,-2.9446,-2.9553,-2.9593,-2.9633,-2.97,-2.9753,-2.9766,-2.9913,-2.9913,-2.99,-2.99,-2.99,-2.99,-2.9913,-2.9913,-2.9913,-2.9913,-2.9913,-2.9913,-2.9913,-2.9913,-2.9913,-2.9913,-2.9913,-2.9913,-2.9913,-2.9913,-2.9913,-2.9913,-2.99,-2.9766,-2.9766,-2.9766,-2.9726,-2.9566,-2.9366,-2.9165,-2.8938,-2.8551,-2.8297,-2.8484,-2.8377,-2.8328,-2.8288,-2.831,-2.8404,-2.8457,-2.8497,-2.8524,-2.835,-2.8288,-2.8288,-2.8283,-2.8274,-2.8234,-2.8234,-2.8234,-2.8221,-2.8234,-2.8234]},{"header":{"parameterUnit":"m.s-1","parameterCategory":1,"la1":31.0,"la2":29.5877,"lo1":-88.7671,"lo2":-86.6584,"dy":0.0162,"dx":0.0185,"nx":115,"ny":88,"refTime":"2024-06-13T06:00:00:Z","depth":0,"parameterNumber":3,"parameterNumberName":"V-component_of_WINDS"},"data":[0.0,0.0,0.0,0.0,0.0,0.0,0.0,0.0,0.0,0.0,0.0,0.0,0.0,0.0,0.0,0.0,0.0,0.0,0.0,0.0,0.0,0.0,0.0,0.0,0.0,0.0,0.0,0.0,0.0,0.0,0.0,0.0,0.0,0.0,0.0,0.0,0.0,0.0,0.0,0.0,0.0,0.0,0.0,0.0,0.0,0.0,0.0,0.0,0.0,0.0,0.0,0.0,0.0,0.0,0.0,0.0,0.0,0.0,0.0,0.0,0.0,0.0,0.0,0.0,0.0,0.0,0.0,0.0,0.0,0.0,0.0,0.0,0.0,0.0,0.0,0.0,0.0,0.0,0.0,0.0,0.0,0.0,0.0,0.0,0.0,0.0,0.0,0.0,0.0,0.0,0.0,0.0,0.0,0.0,0.0,0.0,0.0,0.0,0.0,0.0,0.0,0.0,0.0,0.0,0.0,0.0,0.0,0.0,0.0,0.0,0.0,0.0,0.0,0.0,0.0,0.0,0.0,0.0,0.0,0.0,0.0,0.0,0.0,0.0,0.0,0.0,0.0,0.0,0.0,0.0,0.0,0.0,0.0,0.0,0.0,0.0,0.0,0.0,0.0,0.0,0.0,0.0,0.0,0.0,0.0,0.0,0.0,0.0,0.0,0.0,0.0,0.0,0.0,0.0,0.0,0.0,0.0,0.0,0.0,0.0,0.0,0.0,0.0,0.0,0.0,0.0,0.0,0.0,0.0,0.0,0.0,0.0,0.0,0.0,0.0,0.0,0.0,0.0,0.0,0.0,0.0,0.0,0.0,0.0,0.0,0.0,0.0,0.0,0.0,0.0,0.0,0.0,0.0,0.0,0.0,0.0,0.0,0.0,0.0,0.0,0.0,0.0,0.0,0.0,0.0,0.0,0.0,0.0,0.0,0.0,0.0,0.0,0.0,0.0,0.0,0.0,0.0,0.0,0.0,0.0,0.0,0.0,0.0,0.0,0.0,0.0,0.0,0.0,0.0,0.0,0.0,0.0,0.0,0.0,0.0,0.0,0.0,0.0,0.0,0.0,0.0,0.0,0.0,0.0,0.0,0.0,0.0,0.0,0.0,0.0,0.0,0.0,0.0,0.0,0.0,0.0,0.0,0.0,0.0,0.0,0.0,0.0,0.0,0.0,0.0,0.0,0.0,0.0,0.0,0.0,0.0,0.0,0.0,0.0,0.0,0.0,0.0,0.0,0.0,0.0,0.0,0.0,0.0,0.0,0.0,0.0,0.0,0.0,0.0,0.0,0.0,0.0,0.0,0.0,0.0,0.0,0.0,0.0,0.0,0.0,0.0,0.0,0.0,0.0,0.0,0.0,0.0,0.0,0.0,0.0,0.0,0.0,0.0,0.0,0.0,0.0,0.0,0.0,0.0,0.0,0.0,0.0,0.0,0.0,0.0,0.0,0.0,0.0,0.0,0.0,0.0,0.0,0.0,0.0,0.0,0.0,0.0,0.0,0.0,0.0,0.0,0.0,0.0,0.0,0.0,0.0,0.0,0.0,0.0,0.0,0.0,0.0,0.0,0.0,0.0,0.0,0.0,0.0,0.0,0.0,0.0,0.0,0.0,0.0,0.0,0.0,0.0,0.0,0.0,0.0,0.0,0.0,0.0,0.0,0.0,0.0,0.0,0.0,0.0,0.0,0.0,0.0,0.0,0.0,0.0,0.0,0.0,0.0,0.0,0.0,0.0,0.0,0.0,0.0,0.0,0.0,0.0,0.0,0.0,0.0,0.0,0.0,0.0,0.0,0.0,0.0,0.0,0.0,0.0,0.0,0.0,0.0,0.0,0.0,0.0,0.0,0.0,0.0,0.0,0.0,0.0,0.0,0.0,0.0,0.0,0.0,0.0,0.0,0.0,0.0,0.0,0.0,0.0,0.0,0.0,0.0,0.0,0.0,0.0,0.0,0.0,0.0,0.0,0.0,0.0,0.0,0.0,0.0,0.0,0.0,0.0,0.0,0.0,0.0,0.0,0.0,0.0,0.0,0.0,0.0,0.0,0.0,0.0,0.0,0.0,0.0,0.0,0.0,0.0,0.0,0.0,0.0,0.0,0.0,0.0,0.0,0.0,0.0,0.0,0.0,0.0,0.0,0.0,0.0,0.0,0.0,0.0,0.0,0.0,0.0,0.0,0.0,0.0,0.0,0.0,0.0,0.0,0.0,0.0,0.0,0.0,0.0,0.0,0.0,0.0,0.0,0.0,0.0,0.0,0.0,0.0,0.0,0.0,0.0,0.0,0.0,0.0,0.0,0.0,0.0,0.0,0.0,0.0,0.0,0.0,0.0,0.0,0.0,0.0,0.0,0.0,0.0,0.0,0.0,0.0,0.0,0.0,0.0,0.0,0.0,0.0,0.0,0.0,0.0,0.0,0.0,0.0,0.0,0.0,0.0,0.0,0.0,0.0,0.0,0.0,0.0,0.0,0.0,0.0,0.0,0.0,0.0,0.0,0.0,0.0,0.0,0.0,0.0,0.0,0.0,0.0,0.0,0.0,0.0,0.0,0.0,0.0,0.0,0.0,0.0,0.0,0.0,0.0,0.0,0.0,0.0,0.0,0.0,0.0,0.0,0.0,0.0,0.0,0.0,0.0,0.0,0.0,0.0,0.0,0.0,0.0,0.0,0.0,0.0,0.0,0.0,0.0,0.0,0.0,0.0,0.0,0.0,0.0,0.0,0.0,0.0,0.0,0.0,0.0,0.0,0.0,0.0,0.0,0.0,0.0,0.0,0.0,0.0,0.0,0.0,0.0,0.0,0.0,0.0,0.0,0.0,0.0,0.0,0.0,0.0,0.0,0.0,0.0,0.0,0.0,0.0,0.0,0.0,0.0,0.0,0.0,0.0,0.0,0.0,0.0,0.0,0.0,0.0,0.0,0.0,0.0,0.0,0.0,0.0,0.0,0.0,0.0,0.0,0.0,0.0,0.0,0.0,0.0,0.0,0.0,0.0,0.0,0.0,0.0,0.0,0.0,0.0,0.0,0.0,0.0,0.0,0.0,0.0,0.0,0.0,0.0,0.0,0.0,0.0,0.0,0.0,0.0,0.0,0.0,0.0,0.0,0.0,0.0,0.0,0.0,0.0,0.0,0.0,0.0,0.0,0.0,0.0,0.0,0.0,0.0,0.0,0.0,0.0,0.0,0.0,0.0,0.0,0.0,0.0,0.0,0.0,0.0,0.0,0.0,0.0,0.0,0.0,0.0,0.0,0.0,0.0,0.0,0.0,0.0,0.0,0.0,0.0,0.0,0.0,0.0,0.0,0.0,0.0,0.0,0.0,0.0,0.0,0.0,0.0,0.0,0.0,0.0,0.0,0.0,0.0,0.0,0.0,0.0,0.0,0.0,0.0,0.0,0.0,0.0,0.0,0.0,0.0,0.0,0.0,0.0,0.0,0.0,0.0,0.0,0.0,0.0,0.0,0.0,0.0,0.0,0.0,0.0,0.0,0.0,0.0,0.0,0.0,0.0,0.0,0.0,0.0,0.0,0.0,0.0,0.0,0.0,0.0,0.0,0.0,0.0,0.0,0.0,0.0,0.0,0.0,0.0,0.0,0.0,0.0,0.0,0.0,0.0,0.0,0.0,0.0,0.0,0.0,0.0,0.0,0.0,0.0,0.0,0.0,0.0,0.0,0.0,0.0,0.0,0.0,0.0,0.0,0.0,0.0,0.0,0.0,0.0,0.0,0.0,0.0,0.0,0.0,0.0,0.0,0.0,0.0,0.0,0.0,0.0,0.0,0.0,0.0,0.0,0.0,0.0,0.0,0.0,0.0,0.0,0.0,0.0,0.0,0.0,0.0,0.0,0.0,0.0,0.0,0.0,0.0,0.0,0.0,0.0,0.0,0.0,0.0,0.0,0.0,0.0,0.0,0.0,0.0,0.0,0.0,0.0,0.0,0.0,0.0,0.0,0.0,0.0,0.0,0.0,0.0,0.0,0.0,0.0,0.0,0.0,0.0,0.0,0.0,0.0,0.0,0.0,0.0,0.0,0.0,0.0,0.0,0.0,0.0,0.0,0.0,0.0,0.0,0.0,0.0,0.0,0.0,0.0,0.0,0.0,0.0,0.0,0.0,0.0,0.0,0.0,0.0,0.0,0.0,0.0,0.0,0.0,0.0,0.0,0.0,0.0,0.0,0.0,0.0,0.0,0.0,0.0,0.0,0.0,0.0,0.0,0.0,0.0,0.0,0.0,0.0,0.0,0.0,0.0,0.0,0.0,0.0,0.0,0.0,3.5579,0.0,0.0,0.0,0.0,0.0,0.0,0.0,0.0,0.0,0.0,0.0,0.0,0.0,0.0,0.0,0.0,0.0,0.0,0.0,0.0,0.0,0.0,0.0,0.0,0.0,0.0,0.0,0.0,0.0,0.0,0.0,0.0,0.0,0.0,0.0,0.0,0.0,0.0,0.0,0.0,0.0,0.0,0.0,0.0,0.0,0.0,0.0,0.0,0.0,0.0,0.0,0.0,0.0,0.0,0.0,0.0,0.0,0.0,0.0,0.0,0.0,0.0,0.0,0.0,0.0,0.0,0.0,0.0,0.0,0.0,0.0,0.0,0.0,0.0,0.0,0.0,0.0,0.0,0.0,0.0,0.0,0.0,0.0,0.0,0.0,0.0,0.0,0.0,0.0,0.0,0.0,0.0,0.0,0.0,0.0,0.0,0.0,0.0,0.0,0.0,0.0,0.0,0.0,0.0,0.0,0.0,0.0,0.0,0.0,0.0,3.7783,3.804,3.7184,3.6642,3.65,0.0,0.0,0.0,0.0,0.0,0.0,0.0,0.0,0.0,0.0,0.0,0.0,0.0,0.0,0.0,0.0,0.0,0.0,0.0,0.0,0.0,0.0,0.0,0.0,0.0,0.0,0.0,0.0,0.0,0.0,0.0,0.0,0.0,0.0,0.0,0.0,0.0,0.0,0.0,0.0,0.0,0.0,0.0,0.0,0.0,0.0,0.0,0.0,0.0,0.0,0.0,0.0,0.0,0.0,0.0,0.0,0.0,0.0,0.0,0.0,0.0,0.0,0.0,0.0,0.0,0.0,0.0,0.0,0.0,0.0,0.0,0.0,0.0,0.0,0.0,0.0,0.0,0.0,0.0,0.0,0.0,0.0,0.0,0.0,0.0,0.0,0.0,0.0,0.0,0.0,0.0,0.0,0.0,0.0,0.0,0.0,0.0,0.0,0.0,0.0,0.0,0.0,0.0,0.0,0.0,0.0,0.0,0.0,0.0,0.0,0.0,0.0,3.6409,3.6033,3.6719,0.0,0.0,0.0,0.0,0.0,0.0,0.0,0.0,0.0,0.0,0.0,0.0,0.0,0.0,0.0,0.0,0.0,0.0,0.0,0.0,0.0,0.0,0.0,0.0,0.0,0.0,0.0,0.0,0.0,0.0,0.0,0.0,0.0,0.0,0.0,0.0,0.0,0.0,0.0,0.0,0.0,0.0,0.0,0.0,0.0,0.0,0.0,0.0,0.0,0.0,0.0,0.0,0.0,0.0,0.0,0.0,0.0,0.0,0.0,0.0,0.0,0.0,0.0,0.0,0.0,0.0,0.0,0.0,0.0,0.0,0.0,0.0,0.0,0.0,0.0,0.0,0.0,0.0,0.0,0.0,0.0,0.0,0.0,0.0,0.0,0.0,0.0,0.0,0.0,0.0,0.0,0.0,0.0,0.0,0.0,0.0,0.0,0.0,0.0,0.0,0.0,0.0,0.0,0.0,0.0,0.0,0.0,0.0,0.0,0.0,3.65,3.7149,3.6985,0.0,3.511,0.0,0.0,0.0,0.0,0.0,0.0,0.0,0.0,0.0,0.0,0.0,0.0,0.0,0.0,0.0,0.0,0.0,0.0,0.0,0.0,0.0,0.0,0.0,0.0,0.0,0.0,0.0,0.0,0.0,0.0,0.0,0.0,0.0,0.0,0.0,0.0,0.0,0.0,0.0,0.0,0.0,0.0,0.0,0.0,0.0,0.0,0.0,0.0,0.0,0.0,0.0,0.0,0.0,0.0,0.0,0.0,0.0,0.0,0.0,0.0,0.0,0.0,0.0,0.0,0.0,0.0,0.0,0.0,0.0,0.0,0.0,0.0,0.0,0.0,0.0,0.0,0.0,0.0,0.0,0.0,0.0,0.0,0.0,0.0,0.0,0.0,0.0,0.0,0.0,0.0,0.0,0.0,0.0,0.0,0.0,0.0,0.0,0.0,0.0,0.0,0.0,0.0,0.0,0.0,0.0,0.0,0.0,0.0,0.0,0.0,3.5284,3.6124,3.606,3.5311,0.0,0.0,0.0,0.0,0.0,0.0,0.0,0.0,0.0,0.0,0.0,0.0,0.0,0.0,0.0,0.0,0.0,0.0,0.0,0.0,0.0,0.0,0.0,0.0,0.0,0.0,0.0,0.0,0.0,0.0,0.0,0.0,0.0,0.0,0.0,0.0,0.0,0.0,0.0,0.0,0.0,0.0,0.0,0.0,0.0,0.0,0.0,0.0,0.0,0.0,0.0,0.0,0.0,0.0,0.0,0.0,0.0,0.0,0.0,0.0,0.0,0.0,0.0,0.0,0.0,0.0,0.0,0.0,0.0,0.0,0.0,0.0,0.0,0.0,0.0,0.0,0.0,0.0,0.0,0.0,0.0,0.0,0.0,0.0,0.0,0.0,0.0,0.0,0.0,0.0,0.0,0.0,0.0,0.0,0.0,0.0,0.0,0.0,0.0,0.0,0.0,0.0,0.0,0.0,0.0,0.0,0.0,0.0,0.0,0.0,3.3771,3.4266,3.5011,3.5438,3.4675,3.2604,0.0,0.0,0.0,0.0,0.0,0.0,0.0,0.0,0.0,0.0,0.0,0.0,0.0,0.0,0.0,0.0,0.0,0.0,0.0,0.0,0.0,0.0,0.0,0.0,0.0,0.0,0.0,0.0,0.0,0.0,0.0,0.0,0.0,0.0,0.0,0.0,0.0,0.0,0.0,0.0,0.0,0.0,0.0,0.0,0.0,0.0,0.0,0.0,0.0,0.0,0.0,0.0,0.0,0.0,0.0,0.0,0.0,0.0,0.0,0.0,0.0,0.0,0.0,0.0,0.0,0.0,0.0,0.0,0.0,0.0,0.0,0.0,0.0,0.0,0.0,0.0,0.0,0.0,0.0,0.0,0.0,0.0,0.0,0.0,0.0,0.0,0.0,0.0,0.0,0.0,0.0,0.0,0.0,0.0,0.0,0.0,0.0,0.0,0.0,0.0,0.0,0.0,0.0,0.0,0.0,0.0,0.0,0.0,3.455,3.4148,3.3941,3.4054,3.5592,3.4759,0.0,0.0,0.0,0.0,0.0,0.0,0.0,0.0,0.0,0.0,0.0,0.0,0.0,0.0,0.0,0.0,0.0,0.0,0.0,0.0,0.0,0.0,0.0,0.0,0.0,0.0,0.0,0.0,0.0,0.0,0.0,0.0,0.0,0.0,0.0,0.0,0.0,0.0,0.0,0.0,0.0,0.0,0.0,0.0,0.0,0.0,0.0,0.0,0.0,0.0,0.0,0.0,0.0,0.0,0.0,0.0,0.0,0.0,0.0,0.0,0.0,0.0,0.0,0.0,0.0,0.0,0.0,0.0,0.0,0.0,0.0,0.0,0.0,0.0,0.0,0.0,0.0,0.0,0.0,0.0,0.0,0.0,0.0,0.0,0.0,0.0,0.0,0.0,0.0,0.0,0.0,0.0,0.0,0.0,0.0,0.0,0.0,0.0,0.0,0.0,0.0,0.0,0.0,0.0,0.0,0.0,0.0,0.0,0.0,3.3646,3.3822,3.4223,3.4876,3.4183,3.3215,0.0,0.0,0.0,0.0,0.0,0.0,0.0,0.0,0.0,0.0,0.0,0.0,0.0,0.0,0.0,0.0,0.0,0.0,0.0,0.0,0.0,0.0,0.0,0.0,0.0,0.0,0.0,0.0,0.0,0.0,0.0,0.0,0.0,0.0,0.0,0.0,0.0,0.0,0.0,0.0,0.0,0.0,0.0,0.0,0.0,0.0,0.0,0.0,0.0,0.0,0.0,0.0,0.0,0.0,0.0,0.0,0.0,0.0,0.0,0.0,0.0,0.0,0.0,0.0,0.0,0.0,0.0,0.0,0.0,0.0,0.0,0.0,0.0,0.0,0.0,0.0,0.0,0.0,0.0,0.0,0.0,0.0,0.0,0.0,0.0,0.0,0.0,0.0,0.0,0.0,0.0,0.0,0.0,0.0,0.0,0.0,0.0,0.0,0.0,0.0,0.0,0.0,0.0,0.0,0.0,0.0,0.0,0.0,0.0,3.3596,0.0,3.4625,0.0,3.3571,3.2456,0.0,0.0,0.0,0.0,0.0,0.0,0.0,0.0,0.0,0.0,0.0,0.0,0.0,0.0,0.0,0.0,0.0,0.0,0.0,0.0,0.0,0.0,0.0,0.0,0.0,0.0,0.0,0.0,0.0,0.0,0.0,0.0,0.0,0.0,0.0,0.0,0.0,0.0,0.0,0.0,0.0,0.0,0.0,0.0,0.0,0.0,0.0,0.0,0.0,0.0,0.0,0.0,0.0,0.0,0.0,0.0,0.0,0.0,0.0,0.0,0.0,0.0,0.0,0.0,0.0,0.0,0.0,0.0,0.0,0.0,0.0,0.0,0.0,0.0,0.0,0.0,0.0,0.0,0.0,0.0,0.0,0.0,0.0,0.0,0.0,0.0,0.0,0.0,0.0,0.0,0.0,0.0,0.0,0.0,0.0,0.0,0.0,0.0,0.0,0.0,0.0,0.0,0.0,0.0,0.0,0.0,0.0,0.0,3.3621,3.4605,3.5157,3.4956,3.3972,3.3872,3.2591,0.0,0.0,0.0,0.0,0.0,0.0,0.0,0.0,0.0,0.0,0.0,0.0,0.0,0.0,0.0,0.0,0.0,0.0,0.0,0.0,0.0,0.0,0.0,0.0,0.0,0.0,0.0,0.0,0.0,0.0,0.0,0.0,0.0,0.0,0.0,0.0,0.0,0.0,0.0,0.0,0.0,0.0,0.0,0.0,0.0,0.0,0.0,0.0,0.0,0.0,0.0,0.0,0.0,0.0,0.0,0.0,0.0,0.0,0.0,0.0,0.0,0.0,0.0,0.0,0.0,0.0,0.0,0.0,0.0,0.0,0.0,0.0,0.0,0.0,0.0,0.0,0.0,0.0,0.0,0.0,0.0,0.0,0.0,0.0,0.0,0.0,0.0,0.0,0.0,0.0,0.0,0.0,0.0,0.0,0.0,0.0,0.0,0.0,0.0,0.0,0.0,0.0,0.0,0.0,0.0,0.0,0.0,0.0,0.0,3.4173,3.47,3.4956,3.4956,3.3922,3.2742,0.0,0.0,0.0,0.0,0.0,0.0,0.0,0.0,0.0,0.0,0.0,0.0,0.0,0.0,0.0,0.0,0.0,0.0,0.0,0.0,0.0,0.0,0.0,0.0,0.0,0.0,0.0,0.0,0.0,0.0,0.0,0.0,0.0,0.0,0.0,0.0,0.0,0.0,0.0,0.0,0.0,0.0,0.0,0.0,0.0,0.0,0.0,0.0,0.0,0.0,0.0,0.0,0.0,0.0,0.0,0.0,0.0,0.0,0.0,0.0,0.0,0.0,0.0,0.0,0.0,0.0,0.0,0.0,0.0,0.0,0.0,0.0,0.0,0.0,0.0,0.0,0.0,0.0,0.0,0.0,0.0,0.0,0.0,0.0,0.0,0.0,0.0,0.0,0.0,0.0,0.0,0.0,0.0,0.0,0.0,0.0,0.0,0.0,0.0,0.0,0.0,0.0,0.0,0.0,0.0,0.0,0.0,0.0,0.0,3.4876,3.5353,3.5705,3.583,3.4449,3.3319,3.2541,0.0,0.0,0.0,0.0,0.0,0.0,0.0,0.0,0.0,0.0,0.0,0.0,0.0,0.0,0.0,0.0,0.0,0.0,0.0,0.0,0.0,0.0,0.0,0.0,0.0,0.0,0.0,0.0,0.0,0.0,0.0,0.0,0.0,0.0,0.0,0.0,0.0,0.0,0.0,0.0,0.0,0.0,0.0,0.0,0.0,0.0,0.0,0.0,0.0,0.0,0.0,0.0,0.0,0.0,0.0,0.0,0.0,0.0,0.0,0.0,0.0,0.0,0.0,0.0,0.0,0.0,0.0,0.0,0.0,0.0,0.0,0.0,0.0,0.0,0.0,0.0,0.0,0.0,0.0,0.0,0.0,0.0,0.0,0.0,0.0,0.0,0.0,0.0,0.0,0.0,0.0,0.0,0.0,0.0,0.0,0.0,0.0,0.0,0.0,0.0,0.0,0.0,0.0,0.0,0.0,0.0,0.0,0.0,3.6433,3.6985,3.7033,3.6455,3.5328,3.4248,0.0,0.0,0.0,0.0,0.0,0.0,0.0,0.0,0.0,0.0,0.0,0.0,0.0,0.0,0.0,0.0,0.0,0.0,0.0,0.0,0.0,0.0,0.0,0.0,0.0,0.0,0.0,0.0,0.0,0.0,0.0,0.0,0.0,0.0,0.0,0.0,0.0,0.0,0.0,0.0,0.0,0.0,0.0,0.0,0.0,0.0,0.0,0.0,0.0,0.0,0.0,0.0,0.0,0.0,0.0,0.0,0.0,0.0,0.0,0.0,0.0,0.0,0.0,0.0,0.0,0.0,0.0,0.0,0.0,0.0,0.0,0.0,0.0,0.0,0.0,0.0,0.0,0.0,0.0,0.0,0.0,0.0,0.0,0.0,0.0,0.0,0.0,0.0,0.0,0.0,0.0,0.0,0.0,0.0,0.0,0.0,0.0,0.0,0.0,0.0,0.0,0.0,0.0,0.0,0.0,0.0,0.0,0.0,0.0,3.696,3.7914,3.7965,3.7033,3.5906,3.4826,0.0,0.0,0.0,0.0,0.0,0.0,0.0,0.0,0.0,0.0,0.0,0.0,0.0,0.0,0.0,0.0,0.0,0.0,0.0,0.0,0.0,0.0,0.0,0.0,0.0,0.0,0.0,0.0,0.0,0.0,0.0,0.0,0.0,0.0,0.0,0.0,0.0,0.0,0.0,0.0,0.0,0.0,0.0,0.0,0.0,0.0,0.0,0.0,0.0,0.0,0.0,0.0,0.0,0.0,0.0,0.0,0.0,0.0,0.0,0.0,0.0,0.0,0.0,0.0,0.0,0.0,0.0,0.0,0.0,0.0,0.0,0.0,0.0,0.0,0.0,0.0,0.0,0.0,0.0,0.0,0.0,0.0,0.0,0.0,0.0,0.0,0.0,0.0,0.0,0.0,0.0,0.0,0.0,0.0,0.0,0.0,0.0,0.0,0.0,0.0,0.0,0.0,0.0,0.0,0.0,0.0,0.0,0.0,3.6784,3.7864,3.8768,3.8793,3.7964,3.7061,3.5909,0.0,0.0,0.0,0.0,0.0,0.0,0.0,0.0,0.0,0.0,0.0,0.0,0.0,0.0,0.0,0.0,0.0,0.0,0.0,0.0,0.0,0.0,0.0,0.0,0.0,0.0,0.0,0.0,0.0,0.0,0.0,0.0,0.0,0.0,0.0,0.0,0.0,0.0,0.0,0.0,0.0,0.0,0.0,0.0,0.0,0.0,0.0,0.0,0.0,0.0,0.0,0.0,0.0,0.0,0.0,0.0,0.0,0.0,0.0,0.0,0.0,0.0,0.0,0.0,0.0,0.0,0.0,0.0,0.0,0.0,0.0,0.0,0.0,0.0,0.0,0.0,0.0,0.0,0.0,0.0,0.0,0.0,0.0,0.0,0.0,0.0,0.0,0.0,0.0,0.0,0.0,0.0,0.0,0.0,0.0,0.0,0.0,0.0,0.0,0.0,0.0,0.0,0.0,0.0,0.0,0.0,0.0,0.0,3.7713,3.8843,3.9421,3.9471,3.902,3.8291,3.7186,0.0,0.0,0.0,0.0,0.0,0.0,0.0,0.0,0.0,0.0,0.0,0.0,0.0,0.0,0.0,0.0,0.0,0.0,0.0,0.0,0.0,0.0,0.0,0.0,0.0,0.0,0.0,0.0,0.0,0.0,0.0,0.0,0.0,0.0,0.0,0.0,0.0,0.0,0.0,0.0,0.0,0.0,0.0,0.0,0.0,0.0,0.0,0.0,0.0,0.0,0.0,0.0,0.0,0.0,0.0,0.0,0.0,0.0,0.0,0.0,0.0,0.0,0.0,0.0,0.0,0.0,0.0,0.0,0.0,0.0,0.0,0.0,0.0,0.0,0.0,0.0,0.0,0.0,0.0,0.0,0.0,0.0,0.0,0.0,0.0,0.0,0.0,0.0,0.0,0.0,0.0,0.0,0.0,0.0,0.0,0.0,0.0,0.0,0.0,0.0,0.0,0.0,0.0,0.0,0.0,0.0,0.0,0.0,3.7739,3.8843,3.9396,3.9647,3.9521,3.8115,3.6784,0.0,0.0,0.0,0.0,0.0,0.0,0.0,0.0,0.0,0.0,0.0,0.0,0.0,0.0,0.0,0.0,0.0,0.0,0.0,0.0,0.0,0.0,0.0,0.0,0.0,0.0,0.0,0.0,0.0,0.0,0.0,0.0,0.0,0.0,0.0,0.0,0.0,0.0,0.0,0.0,0.0,0.0,0.0,0.0,0.0,0.0,0.0,0.0,4.2811,0.0,0.0,0.0,0.0,0.0,0.0,0.0,0.0,0.0,0.0,0.0,0.0,0.0,0.0,0.0,0.0,0.0,0.0,0.0,0.0,0.0,0.0,0.0,0.0,0.0,0.0,0.0,0.0,0.0,0.0,0.0,0.0,0.0,0.0,0.0,0.0,0.0,0.0,0.0,0.0,0.0,0.0,0.0,0.0,0.0,0.0,0.0,0.0,0.0,0.0,0.0,0.0,0.0,0.0,0.0,0.0,0.0,0.0,0.0,3.8793,3.9622,3.9923,3.9973,3.9672,3.8885,3.7658,0.0,0.0,0.0,0.0,0.0,0.0,0.0,0.0,0.0,0.0,0.0,0.0,0.0,0.0,0.0,0.0,0.0,0.0,0.0,0.0,0.0,0.0,0.0,0.0,0.0,0.0,0.0,0.0,0.0,0.0,0.0,0.0,0.0,0.0,0.0,0.0,0.0,0.0,0.0,0.0,0.0,0.0,0.0,0.0,0.0,0.0,0.0,0.0,0.0,0.0,0.0,0.0,0.0,0.0,0.0,0.0,0.0,0.0,0.0,0.0,0.0,0.0,0.0,0.0,0.0,0.0,0.0,0.0,0.0,0.0,0.0,0.0,0.0,0.0,0.0,0.0,0.0,0.0,0.0,0.0,0.0,0.0,0.0,0.0,0.0,0.0,0.0,0.0,0.0,0.0,0.0,0.0,0.0,0.0,0.0,0.0,0.0,0.0,0.0,0.0,0.0,0.0,0.0,0.0,0.0,0.0,0.0,3.9044,3.9876,4.0765,4.0606,4.0354,3.9981,4.0024,3.904,3.7041,0.0,0.0,0.0,0.0,0.0,0.0,0.0,0.0,0.0,0.0,0.0,0.0,0.0,0.0,0.0,0.0,0.0,0.0,0.0,0.0,0.0,0.0,0.0,0.0,0.0,0.0,0.0,0.0,0.0,0.0,0.0,0.0,0.0,0.0,0.0,0.0,0.0,0.0,4.0726,4.2491,0.0,0.0,0.0,0.0,0.0,0.0,0.0,0.0,4.4377,0.0,0.0,0.0,0.0,0.0,0.0,0.0,0.0,0.0,0.0,0.0,0.0,0.0,0.0,0.0,0.0,0.0,0.0,0.0,0.0,0.0,0.0,0.0,0.0,0.0,0.0,0.0,0.0,0.0,0.0,0.0,0.0,0.0,0.0,0.0,0.0,0.0,0.0,0.0,0.0,0.0,0.0,0.0,0.0,0.0,0.0,0.0,0.0,0.0,0.0,0.0,0.0,0.0,0.0,0.0,0.0,4.3127,3.9957,3.9573,4.2182,4.1103,4.0745,4.1269,4.1241,4.0604,3.937,0.0,0.0,0.0,0.0,0.0,0.0,0.0,0.0,0.0,0.0,0.0,0.0,0.0,0.0,0.0,0.0,0.0,0.0,0.0,0.0,0.0,0.0,0.0,0.0,0.0,0.0,0.0,0.0,0.0,0.0,0.0,0.0,0.0,0.0,0.0,0.0,0.0,0.0,0.0,4.4077,4.5244,0.0,0.0,0.0,0.0,0.0,0.0,0.0,0.0,4.4287,0.0,0.0,0.0,0.0,0.0,0.0,0.0,0.0,0.0,0.0,0.0,0.0,0.0,0.0,0.0,0.0,0.0,0.0,0.0,0.0,0.0,0.0,0.0,0.0,0.0,0.0,0.0,0.0,0.0,0.0,0.0,0.0,0.0,0.0,0.0,0.0,0.0,0.0,0.0,0.0,0.0,0.0,0.0,0.0,0.0,0.0,0.0,0.0,0.0,0.0,0.0,0.0,0.0,0.0,0.0,4.2767,4.216,4.2488,4.3891,4.3341,4.2891,4.2593,4.2167,4.159,0.0,0.0,0.0,0.0,0.0,0.0,0.0,0.0,0.0,0.0,0.0,0.0,0.0,0.0,0.0,0.0,0.0,0.0,0.0,0.0,0.0,0.0,0.0,0.0,0.0,0.0,0.0,0.0,0.0,0.0,0.0,0.0,0.0,0.0,0.0,0.0,0.0,0.0,0.0,0.0,4.4706,4.5544,4.6232,0.0,0.0,0.0,0.0,0.0,0.0,4.5274,4.4825,0.0,0.0,0.0,0.0,0.0,0.0,0.0,0.0,0.0,0.0,0.0,0.0,0.0,0.0,0.0,0.0,0.0,0.0,0.0,0.0,0.0,0.0,0.0,0.0,0.0,0.0,0.0,0.0,0.0,0.0,0.0,0.0,0.0,0.0,0.0,0.0,0.0,0.0,0.0,0.0,0.0,0.0,0.0,0.0,0.0,0.0,0.0,0.0,0.0,0.0,0.0,0.0,0.0,0.0,0.0,4.243,4.4121,4.5198,4.5693,4.5447,4.4865,4.3909,4.306,4.2322,0.0,0.0,0.0,0.0,0.0,0.0,0.0,0.0,0.0,0.0,0.0,0.0,0.0,0.0,0.0,0.0,0.0,0.0,0.0,0.0,0.0,0.0,0.0,0.0,0.0,0.0,0.0,0.0,0.0,0.0,0.0,0.0,0.0,0.0,0.0,0.0,0.0,0.0,0.0,0.0,0.0,4.6202,4.6471,4.6621,0.0,0.0,0.0,0.0,4.6262,4.5963,0.0,0.0,0.0,0.0,0.0,0.0,0.0,0.0,0.0,0.0,0.0,0.0,0.0,0.0,0.0,0.0,0.0,0.0,0.0,0.0,0.0,0.0,0.0,0.0,0.0,0.0,0.0,0.0,0.0,0.0,0.0,0.0,0.0,0.0,0.0,0.0,0.0,0.0,0.0,0.0,0.0,0.0,0.0,0.0,0.0,0.0,0.0,0.0,0.0,0.0,0.0,0.0,0.0,0.0,0.0,0.0,4.4684,4.4163,4.4864,4.6966,4.5937,4.528,4.519,4.3931,4.3209,0.0,0.0,0.0,0.0,0.0,0.0,0.0,0.0,0.0,0.0,0.0,0.0,0.0,0.0,0.0,0.0,0.0,0.0,0.0,0.0,0.0,0.0,0.0,0.0,0.0,0.0,0.0,0.0,0.0,0.0,0.0,0.0,0.0,0.0,0.0,0.0,0.0,0.0,0.0,0.0,0.0,4.8416,4.7339,4.7698,4.7818,0.0,0.0,4.689,4.6369,4.6741,0.0,0.0,0.0,0.0,0.0,0.0,0.0,0.0,0.0,0.0,0.0,0.0,0.0,0.0,0.0,0.0,0.0,0.0,0.0,0.0,0.0,0.0,0.0,0.0,0.0,0.0,0.0,0.0,0.0,0.0,0.0,0.0,0.0,0.0,0.0,0.0,0.0,0.0,0.0,0.0,0.0,0.0,0.0,0.0,0.0,0.0,0.0,0.0,0.0,0.0,0.0,0.0,0.0,0.0,0.0,4.292,4.5233,4.6329,4.752,4.8921,4.8056,4.7398,4.7066,4.4991,4.3726,0.0,0.0,0.0,0.0,0.0,0.0,0.0,0.0,0.0,0.0,0.0,0.0,0.0,0.0,0.0,0.0,0.0,0.0,0.0,0.0,0.0,0.0,0.0,0.0,0.0,0.0,0.0,0.0,0.0,0.0,0.0,0.0,0.0,0.0,0.0,0.0,0.0,0.0,0.0,0.0,0.0,0.0,4.7878,4.8117,0.0,0.0,0.0,4.7459,4.7938,0.0,0.0,0.0,0.0,0.0,0.0,0.0,0.0,0.0,0.0,0.0,0.0,0.0,0.0,0.0,0.0,0.0,0.0,0.0,0.0,0.0,0.0,0.0,0.0,0.0,0.0,0.0,0.0,0.0,0.0,0.0,0.0,0.0,0.0,0.0,0.0,0.0,0.0,0.0,0.0,0.0,0.0,0.0,0.0,0.0,0.0,0.0,0.0,0.0,0.0,0.0,0.0,0.0,0.0,0.0,0.0,0.0,4.5304,4.7908,4.9583,5.0166,4.9763,4.9105,4.8267,4.6022,0.0,0.0,0.0,0.0,0.0,0.0,0.0,0.0,0.0,0.0,0.0,0.0,0.0,0.0,0.0,0.0,0.0,0.0,0.0,0.0,0.0,0.0,0.0,0.0,0.0,0.0,0.0,4.089,0.0,0.0,0.0,0.0,0.0,0.0,0.0,0.0,0.0,0.0,0.0,0.0,0.0,0.0,4.7967,4.8446,4.8686,4.8955,0.0,0.0,4.8267,4.897,4.8356,4.7459,0.0,0.0,0.0,0.0,0.0,0.0,0.0,0.0,0.0,0.0,0.0,0.0,0.0,0.0,0.0,0.0,0.0,0.0,0.0,0.0,0.0,0.0,0.0,0.0,0.0,0.0,0.0,0.0,0.0,0.0,0.0,0.0,0.0,0.0,0.0,0.0,0.0,0.0,0.0,0.0,0.0,0.0,0.0,0.0,0.0,0.0,0.0,0.0,0.0,0.0,0.0,0.0,0.0,0.0,4.4018,4.5334,4.7981,4.9583,5.0166,5.0166,4.9553,4.8297,4.692,4.5304,0.0,0.0,0.0,0.0,0.0,0.0,0.0,0.0,0.0,0.0,0.0,0.0,0.0,0.0,0.0,0.0,0.0,0.0,0.0,0.0,0.0,0.0,0.0,0.0,0.0,0.0,0.0,0.0,0.0,0.0,0.0,0.0,0.0,0.0,0.0,0.0,0.0,0.0,0.0,0.0,0.0,4.9209,4.9239,4.9703,5.0076,0.0,0.0,4.9643,4.8536,4.885,4.8476,4.6621,0.0,0.0,0.0,0.0,0.0,0.0,0.0,0.0,0.0,0.0,0.0,0.0,0.0,0.0,0.0,0.0,0.0,0.0,0.0,0.0,0.0,0.0,0.0,0.0,0.0,0.0,0.0,0.0,0.0,0.0,0.0,0.0,0.0,0.0,0.0,0.0,0.0,0.0,0.0,0.0,0.0,0.0,0.0,0.0,0.0,0.0,0.0,0.0,0.0,0.0,0.0,0.0,0.0,4.3988,4.5304,4.7951,4.9763,5.0734,5.0405,4.9823,4.894,4.7608,4.6003,0.0,0.0,0.0,0.0,0.0,0.0,0.0,0.0,0.0,0.0,0.0,0.0,0.0,0.0,0.0,0.0,0.0,0.0,0.0,0.0,0.0,0.0,0.0,0.0,0.0,0.0,0.0,0.0,4.3255,4.2922,4.2888,0.0,0.0,0.0,0.0,0.0,0.0,0.0,0.0,0.0,0.0,4.9891,5.0761,5.0487,0.0,0.0,5.0465,5.0166,5.0122,4.9613,4.891,4.7728,4.686,0.0,0.0,0.0,0.0,0.0,0.0,0.0,0.0,0.0,0.0,0.0,0.0,0.0,0.0,0.0,0.0,0.0,0.0,0.0,0.0,0.0,0.0,0.0,0.0,0.0,0.0,0.0,0.0,0.0,0.0,0.0,0.0,0.0,0.0,0.0,0.0,0.0,0.0,0.0,0.0,0.0,0.0,0.0,0.0,0.0,0.0,0.0,0.0,0.0,0.0,0.0,0.0,4.3988,4.5274,4.7951,4.9883,5.1199,5.1074,5.0608,4.9761,4.8986,4.7558,0.0,0.0,0.0,0.0,0.0,0.0,0.0,0.0,0.0,0.0,0.0,0.0,0.0,0.0,0.0,0.0,0.0,0.0,0.0,0.0,0.0,0.0,0.0,0.0,0.0,0.0,0.0,0.0,4.4079,4.3822,4.4005,0.0,0.0,0.0,0.0,0.0,0.0,0.0,0.0,0.0,0.0,5.1362,5.252,5.1734,5.1213,5.1666,5.1042,5.0584,5.0853,5.0152,4.9344,4.8686,0.0,0.0,0.0,0.0,0.0,0.0,0.0,0.0,0.0,0.0,0.0,0.0,0.0,0.0,0.0,0.0,0.0,0.0,0.0,0.0,0.0,0.0,0.0,0.0,0.0,0.0,0.0,0.0,0.0,0.0,4.4497,0.0,0.0,0.0,0.0,0.0,0.0,0.0,0.0,0.0,0.0,0.0,0.0,0.0,0.0,0.0,0.0,0.0,0.0,0.0,0.0,0.0,0.0,4.4058,4.5346,4.7995,5.0004,5.1263,5.2305,5.2175,5.0874,5.1204,5.0077,4.7293,0.0,0.0,0.0,0.0,0.0,0.0,0.0,0.0,0.0,0.0,0.0,0.0,0.0,0.0,0.0,0.0,0.0,0.0,0.0,0.0,0.0,0.0,0.0,0.0,0.0,0.0,4.4581,4.4581,4.4823,0.0,0.0,0.0,0.0,0.0,0.0,0.0,0.0,0.0,0.0,5.2645,5.3725,5.4429,5.3538,5.2825,5.2856,5.1942,5.099,5.0437,5.0242,5.0002,0.0,0.0,0.0,0.0,0.0,0.0,0.0,0.0,0.0,0.0,0.0,0.0,0.0,0.0,0.0,0.0,0.0,0.0,0.0,0.0,0.0,0.0,0.0,0.0,0.0,0.0,0.0,4.7188,4.679,0.0,0.0,0.0,0.0,0.0,0.0,0.0,0.0,0.0,0.0,0.0,4.9349,5.0859,0.0,0.0,0.0,0.0,0.0,0.0,0.0,0.0,0.0,0.0,0.0,0.0,4.5839,4.7148,4.9957,5.2061,5.3408,5.3828,5.3598,5.2647,5.2316,5.0628,4.7429,0.0,0.0,0.0,0.0,0.0,0.0,0.0,0.0,0.0,0.0,0.0,0.0,0.0,0.0,0.0,0.0,0.0,0.0,0.0,0.0,0.0,0.0,0.0,0.0,0.0,4.4581,0.0,0.0,0.0,0.0,0.0,0.0,0.0,0.0,0.0,0.0,0.0,5.2281,5.3264,5.4064,5.4875,5.5593,5.4723,5.4041,0.0,0.0,0.0,0.0,0.0,0.0,0.0,0.0,0.0,0.0,0.0,0.0,0.0,0.0,4.9713,4.6539,4.5424,4.5095,4.5574,0.0,0.0,0.0,0.0,0.0,0.0,0.0,0.0,0.0,0.0,0.0,0.0,0.0,0.0,4.9461,0.0,4.8781,0.0,0.0,0.0,0.0,0.0,0.0,0.0,0.0,5.1725,5.2536,5.2097,5.3551,5.3619,0.0,5.2401,5.0587,0.0,0.0,0.0,0.0,0.0,0.0,0.0,0.0,4.7617,4.8914,5.1495,5.3446,5.4566,5.5002,5.481,5.4139,5.3284,5.1549,4.8742,4.6975,4.5693,0.0,0.0,0.0,0.0,0.0,0.0,0.0,0.0,0.0,0.0,0.0,0.0,0.0,0.0,0.0,0.0,0.0,0.0,0.0,0.0,0.0,0.0,0.0,4.4716,0.0,0.0,0.0,0.0,0.0,0.0,0.0,0.0,0.0,5.226,5.3492,5.4625,5.5092,5.5684,5.6245,5.6711,0.0,0.0,0.0,0.0,0.0,0.0,0.0,5.308,5.3834,5.2964,5.2335,5.2852,5.3518,5.3862,5.3646,0.0,0.0,4.92,4.7718,4.716,4.7535,4.7519,4.7339,4.7339,4.7339,4.71,0.0,0.0,0.0,0.0,0.0,0.0,0.0,0.0,5.1658,5.1386,0.0,5.0574,0.0,0.0,0.0,0.0,0.0,5.0238,0.0,0.0,5.46,5.5716,5.5716,5.5715,5.5412,5.4803,5.6055,5.5209,5.2301,4.8694,0.0,0.0,0.0,0.0,0.0,0.0,4.9212,5.0621,5.2644,5.4017,5.4764,5.573,5.5913,5.5155,5.4144,5.2875,5.132,4.9799,4.8041,4.5945,4.5094,0.0,0.0,0.0,0.0,0.0,0.0,0.0,0.0,0.0,0.0,0.0,0.0,0.0,0.0,0.0,0.0,0.0,0.0,0.0,0.0,4.4677,0.0,0.0,0.0,0.0,0.0,0.0,0.0,0.0,0.0,0.0,5.4803,5.5884,5.6833,5.6833,0.0,0.0,0.0,0.0,5.6243,5.6243,5.541,5.4755,5.4755,5.4681,5.4672,5.4723,0.0,0.0,5.3856,5.4274,5.4572,5.3856,5.4306,5.4295,5.3159,5.1377,5.0244,5.0244,4.9764,4.9389,4.9359,4.9254,4.9269,5.5569,0.0,0.0,0.0,0.0,5.3349,5.4059,5.5446,5.4735,5.4126,5.3619,5.3382,0.0,0.0,0.0,0.0,0.0,0.0,5.3213,5.3991,5.5175,5.5987,5.6494,5.7036,5.7171,5.6934,5.6833,5.6359,5.548,5.3348,5.086,4.799,0.0,0.0,0.0,0.0,5.1582,5.2495,5.4696,5.6263,5.6925,5.726,5.7073,5.6331,5.5473,5.4363,5.2909,5.1386,5.0033,4.8883,4.7124,0.0,0.0,0.0,0.0,0.0,0.0,0.0,0.0,0.0,0.0,0.0,0.0,0.0,0.0,0.0,0.0,0.0,0.0,0.0,4.5331,4.5774,4.6818,0.0,0.0,0.0,0.0,0.0,0.0,0.0,0.0,0.0,5.694,5.7306,5.7577,0.0,0.0,5.7881,5.7881,5.7628,5.7409,5.7443,5.7147,0.0,5.6996,5.6276,5.6008,5.6811,5.6963,5.6896,5.6696,5.6829,5.6896,5.6696,5.615,5.5618,5.5223,5.3541,5.2223,5.2044,5.1364,5.0707,5.0661,5.0661,5.0511,5.778,5.5886,5.5581,5.5649,5.5818,5.5108,5.575,5.7171,5.6461,5.6055,5.5886,5.5581,5.4126,5.186,5.1217,0.0,0.0,0.0,5.4769,5.5513,5.6224,5.6833,5.7239,5.7679,5.7881,5.7848,5.7442,5.7239,5.7205,5.6055,5.4194,5.1725,0.0,0.0,5.0426,5.2539,5.3987,5.4667,5.6345,5.7442,5.7881,5.7881,5.7543,5.6833,5.6089,5.5175,5.3957,5.2435,5.1319,5.0541,4.8714,4.7394,0.0,0.0,0.0,0.0,0.0,0.0,0.0,0.0,0.0,0.0,0.0,4.6862,4.6,0.0,0.0,0.0,4.7076,4.7424,4.794,4.8826,0.0,0.0,0.0,0.0,0.0,0.0,0.0,5.8307,5.8377,5.8303,5.8391,5.8388,5.8246,5.7954,5.7881,5.7881,5.7881,0.0,5.7881,5.7881,5.8152,5.822,5.7949,5.7603,5.7448,5.7806,5.7881,5.7881,5.7881,5.7881,5.7881,5.7808,5.7335,5.6854,5.6887,5.5417,5.4052,5.3656,5.3033,5.244,5.1972,5.188,5.1622,5.8727,5.7915,5.7306,5.7374,5.7814,5.7171,5.7273,5.7814,5.7171,5.7273,5.7814,5.7205,5.6124,5.4771,5.3314,0.0,5.5009,5.5617,5.6259,5.7008,5.7686,5.7991,5.7993,5.8065,5.8029,5.8027,5.8027,5.7954,5.7884,5.7205,5.6562,5.5886,5.4532,5.4093,5.46,5.5378,5.6122,5.6799,5.7509,5.7881,5.7881,5.7881,5.7577,5.69,5.6122,5.5378,5.4668,5.3213,5.2097,5.1386,4.9932,4.8477,4.7158,0.0,0.0,0.0,0.0,0.0,0.0,0.0,0.0,0.0,0.0,0.0,0.0,0.0,0.0,0.0,5.1068,0.0,5.1625,5.2995,0.0,0.0,0.0,5.5692,5.7277,5.8045,5.8733,5.9414,0.0,0.0,5.938,5.935,5.9115,5.8379,5.8058,5.7881,5.7881,5.7881,5.7915,5.7983,5.8558,5.8761,5.8321,5.8589,5.8653,5.8152,5.7949,5.7881,5.7881,5.7881,5.7881,5.7881,5.7881,5.7881,5.7881,5.6925,5.6047,5.5084,5.4672,5.4211,5.3296,5.3033,5.2723,5.9979,5.8795,5.9167,5.8761,5.7881,5.7712,5.7746,5.7848,5.7712,5.7746,5.7848,5.7712,5.7461,5.7152,5.6166,5.6609,5.8153,5.7637,5.7801,5.8531,5.8737,5.8806,5.884,5.9511,5.9443,5.884,5.8806,5.8494,5.7918,5.7712,5.7543,5.7374,5.7002,5.6089,5.4702,5.5886,5.663,5.6799,5.7509,5.7881,5.7881,5.7881,5.7814,5.7645,5.6393,5.5614,5.5446,5.3991,5.3145,5.2909,5.0947,4.9661,4.9289,4.7022,0.0,0.0,0.0,0.0,0.0,0.0,0.0,0.0,0.0,5.1579,4.8178,0.0,5.2095,0.0,5.3078,5.3856,5.3973,5.4766,0.0,0.0,5.7759,5.8458,6.1111,6.1028,6.0847,6.1027,6.1746,6.192,6.109,6.1556,6.1844,6.1616,5.9459,5.7881,5.7881,5.7881,5.8084,5.866,5.893,5.9133,5.9471,5.9235,5.8964,5.8761,5.8287,5.7881,5.7881,5.7881,5.7881,5.7881,5.7881,5.7881,5.7915,5.7628,5.7443,5.7039,5.577,5.4547,5.4253,5.4211,5.3871,6.0588,5.9539,5.9945,5.9607,5.8863,5.8524,5.8186,5.7881,5.7881,5.8101,5.8459,5.8841,5.9036,5.9045,5.8588,5.8916,5.9734,5.9236,5.9246,5.9671,5.9671,5.9671,5.9704,6.018,6.0149,5.9704,5.9671,5.9478,5.9011,5.8633,5.8424,5.8423,5.8065,5.7273,5.6156,5.6867,5.7273,5.7306,5.7679,5.7881,5.7881,5.7881,5.7746,5.7408,5.663,5.6055,5.5716,5.46,5.3822,5.3484,5.1623,5.0595,5.0591,4.8739,4.798,0.0,0.0,0.0,0.0,0.0,0.0,0.0,0.0,0.0,0.0,0.0,5.4428,5.4091,5.5938,5.7227,5.7326,5.8296,5.9452,6.0788,6.053,6.0909,6.262,6.2402,6.2275,6.2675,6.3111,6.32,6.2731,6.3035,6.3199,6.2856,6.121,5.9944,5.9521,5.9159,5.9032,5.9438,5.981,6.0148,6.0588,6.0013,5.9505,5.9471,5.9167,5.8863,5.8863,5.8863,5.8863,5.8863,5.8592,5.8389,5.8355,5.8084,5.7881,5.7738,5.6925,5.5968,5.541,5.5329,5.497,6.1104,6.0438,6.0506,6.0513,6.0424,5.9842,5.9125,5.8235,5.8207,5.8599,5.9311,6.0055,6.0427,6.0555,6.0427,6.0489,6.067,6.0458,6.0427,6.0549,6.0549,6.0549,6.0549,6.0676,6.064,6.0549,6.0549,6.0489,6.0366,5.9639,5.9278,5.9245,5.8458,5.8101,5.8209,5.8101,5.8027,5.7918,5.7881,5.7881,5.7881,5.7881,5.7577,5.6968,5.6833,5.6566,5.6027,5.528,5.4635,5.4089,5.2726,5.1912,5.1865,5.1157,5.1282,0.0,5.2643,0.0,0.0,0.0,0.0,0.0,0.0,0.0,0.0,5.6804,5.6613,5.6616,5.9107,6.0749,6.0801,6.2036,6.2879,6.2927,6.2989,6.2989,6.3135,6.3135,6.3429,6.4163,6.431,6.437,6.4344,6.4375,6.4216,6.3745,6.34,6.2952,6.2226,6.1184,6.0503,6.0523,6.1159,6.1639,6.1601,6.0871,6.025,6.025,6.008,6.0114,6.0013,6.0013,6.0047,5.9979,5.9539,5.9133,5.9032,5.849,5.8051,5.7915,5.7808,5.7443,5.6663,5.6432,5.6047,6.2676,6.2187,6.2808,6.2753,6.2312,6.2805,6.1809,5.984,5.9921,5.9991,6.0149,6.0304,6.076,6.1322,6.067,6.112,6.2245,6.0967,6.073,6.1407,6.1371,6.1343,6.14,6.2023,6.1996,6.1407,6.1343,6.1026,6.0397,6.0242,6.0149,6.0117,5.9278,5.9211,5.9867,0.0,0.0,0.0,5.7881,5.7881,5.7881,5.7881,5.7814,5.7679,5.7103,0.0,5.7496,5.6838,5.6709,5.7218,5.6394,0.0,0.0,0.0,0.0,0.0,0.0,0.0,0.0,0.0,0.0,0.0,5.7726,5.7129,5.7163,5.9187,6.0518,6.0564,6.1654,6.2352,6.2372,6.262,6.3099,6.3759,6.387,6.409,6.4714,6.4798,6.4934,6.5044,6.5632,6.6019,6.6033,6.6582,6.6893,6.6562,6.6141,6.5694,6.5438,6.3577,6.2558,6.3054,6.3135,6.3257,6.3255,6.204,6.1176,6.0994,6.0486,6.0182,6.0182,6.0148,6.0114,6.0148,5.9979,5.9708,5.9167,5.8896,5.8626,5.8017,5.7881,5.7845,5.7628,5.7554,5.726,6.4667,0.0,6.4357,6.4175,0.0,6.4309,6.3819,6.2592,6.1459,6.1031,6.0997,6.1407,6.1797,6.2156,6.1742,6.2023,6.2755,6.1942,6.1806,6.2192,6.2182,6.2219,6.2219,6.2592,6.2592,6.2219,6.2182,6.1996,6.1576,6.1171,6.0997,6.0967,6.018,5.996,6.0366,5.996,5.9541,5.9145,5.9112,5.9112,5.9112,5.9112,5.8736,5.8015,5.8356,0.0,0.0,0.0,0.0,0.0,0.0,0.0,0.0,0.0,0.0,5.7485,5.7572,5.7934,5.8694,5.8766,5.944,6.0934,6.0704,6.0121,5.937,6.108,6.2218,6.2218,6.2952,6.3466,6.3466,6.3796,6.42,6.464,6.4677,6.4861,6.5228,6.5338,6.5485,6.5852,6.6219,6.6623,6.7026,6.7393,6.765,6.7687,6.7314,6.7061,6.6837,6.5223,6.4073,6.4395,6.4383,6.4322,6.4218,6.3333,6.2501,6.2395,6.1813,6.1303,6.1231,6.1231,6.1231,6.1197,6.096,6.0554,6.0216,5.9844,5.9302,5.866,5.8457,5.8287,5.7983,5.7881,5.7772,6.655,6.6399,6.5759,6.5468,6.5482,6.555,6.549,6.5178,0.0,0.0,0.0,6.2515,6.2805,6.2805,6.2805,6.2805,6.2805,6.2805,6.2805,6.2805,6.2805,6.2853,6.3025,6.2853,6.2879,6.3025,6.2879,6.2805,6.278,6.2103,6.1797,6.1742,6.0997,6.061,6.061,6.076,6.082,6.079,6.0555,6.0397,6.0397,6.0397,5.9773,5.844,5.9706,5.9867,5.873,5.9319,5.9484,5.9016,5.8366,5.8277,5.8772,5.8932,5.9779,6.1435,6.1704,6.2108,6.2768,6.2805,6.2805,6.2805,6.2805,6.2511,6.1851,6.2585,6.3025,6.3025,6.3796,6.431,6.431,6.4897,6.5375,6.5485,6.5521,6.5558,6.5705,6.5742,6.6035,6.6586,6.6733,6.7026,6.776,6.7944,6.7981,6.8091,6.8211,6.8118,6.7881,6.6661,6.5538,6.5578,6.5454,6.5229,6.5131,6.4494,6.3971,6.3831,6.3168,6.2659,6.262,6.2498,6.2415,6.2279,6.1873,6.1467,6.1298,6.0723,6.008,5.9336,5.9163,5.9032,5.8457,5.8186,5.8084,6.7947,6.74,6.7261,6.7257,6.7341,6.7314,6.6966,6.617,6.4479,6.3309,6.2654,6.2755,6.2805,6.2805,6.2805,6.2805,6.2805,6.2805,6.2805,6.2805,6.2805,6.3209,6.387,6.3172,6.3172,6.3833,6.3172,6.2805,6.278,6.2679,6.2654,6.2515,6.1797,6.14,6.1492,6.2103,6.2464,6.2438,6.1084,6.0397,6.0397,6.0397,6.03,6.0101,6.03,6.0635,6.1114,6.1191,6.1552,6.2099,6.204,6.17,6.1178,6.1727,6.1972,6.1667,6.2254,6.267,6.2805,6.2805,6.2805,6.2805,6.2805,6.2768,6.2695,6.3429,6.3906,6.3943,6.464,6.5154,6.5154,6.5264,6.5668,6.6219,6.6329,6.6586,6.7173,6.7247,6.732,6.7504,6.754,6.7834,6.8568,6.8752,6.8972,6.9522,6.9522,6.9669,6.9385,6.8394,6.7451,6.723,6.6671,6.6247,6.6197,6.5426,6.497,6.4799,6.4078,6.3501,6.3501,6.2969,6.2576,6.242,6.2285,6.1975,6.1467,6.1231,6.0791,6.0148,5.9945,5.9877,5.9641,5.9235,5.866,6.9884,6.9559,6.9151,6.8702,6.8311,6.7871,6.721,6.6476,6.5742,6.4677,6.3539,6.3503,6.3246,6.2842,6.2805,6.2805,6.2842,6.3282,6.3503,6.3539,6.3943,6.4347,6.4677,6.4321,6.4383,6.4714,6.4347,6.3943,6.3539,6.3503,6.3282,6.2817,6.2402,6.2235,6.2271,6.2654,6.2805,6.278,6.2049,6.1723,6.1687,6.1687,6.1492,6.1091,6.1464,6.1632,6.1604,6.2023,6.2402,6.278,6.2805,6.2622,6.2291,6.2622,6.2658,6.2291,6.2585,6.2805,6.2805,6.2805,6.3184,6.4053,6.3759,6.3723,6.4127,6.409,6.4273,6.4714,6.5485,6.5962,6.5962,6.6329,6.6733,6.71,6.7136,6.7283,6.7577,6.7687,6.7871,6.8238,6.8348,6.8641,6.9449,6.9559,6.9633,7.0036,7.011,7.011,7.011,6.9522,6.9009,6.8944,6.8264,6.7838,6.768,6.7017,6.6339,6.5851,6.5001,6.4495,6.4357,6.3684,6.3199,6.3049,6.274,6.2318,6.1907,6.1907,6.1535,6.096,6.0757,6.0655,6.0216,5.981,5.9235,7.1468,7.1219,7.0624,6.9816,6.8862,6.8238,6.7504,6.6806,6.6769,6.5962,6.4714,6.4273,6.3833,6.3392,6.3172,6.3184,6.3429,6.4053,6.4383,6.442,6.5007,6.5411,6.5521,6.5411,6.5411,6.5521,6.5411,6.4971,6.442,6.4347,6.4053,6.3429,6.333,6.3367,6.3392,6.3209,6.3099,6.3099,6.289,6.2805,6.2805,6.2805,6.2589,6.225,6.2746,6.2808,6.2223,6.2782,6.3025,6.2842,6.2805,6.2805,6.2805,6.2805,6.2805,6.2805,6.2805,6.289,6.3099,6.3282,6.3918,6.5154,6.4751,6.4714,6.5411,6.5007,6.4897,6.5558,6.6292,6.6769,6.6843,6.7283,6.7687,6.7687,6.7687,6.765,6.7714,6.7834,6.8201,6.8825,6.9045,6.9486,7.0146,7.0367,7.0477,7.066,7.0624,7.066,7.0624,7.0513,7.0403,7.0367,6.9706,6.888,6.8871,6.8122,6.7345,6.6743,6.5935,6.5426,6.5163,6.4598,6.4078,6.3936,6.3501,6.3052,6.2779,6.2702,6.2387,6.1719,6.1535,6.1298,6.0588,6.0419,5.9877,7.1982,7.1329,7.1248,7.0293,6.9009,6.8825,6.8311,6.764,6.7577,6.71,6.6145,6.4751,6.4494,6.4934,6.4273,6.4347,6.4971,6.5154,6.5191,6.5191,6.5264,6.5705,6.6292,6.5668,6.5705,6.6219,6.5705,6.5375,6.5191,6.5154,6.5154,6.5081,6.5081,6.5007,6.4971,6.4347,6.398,6.398,6.3209,6.2805,6.2805,6.2805,6.3122,6.3866,6.3954,6.3954,6.3815,6.3918,6.3613,6.2915,6.278,6.2805,6.2805,6.2805,6.2805,6.2842,6.2842,6.3135,6.3943,6.4677,6.5118,6.5264,6.5264,6.5521,6.6292,6.6292,6.6292,6.6512,6.71,6.7504,6.7577,6.765,6.7687,6.7687,6.7687,6.7687,6.7797,6.8348,6.8825,6.8898,6.9633,7.0293,7.1027,7.1211,7.1468,7.1945,7.1982,7.1982,7.1982,7.1578,7.1431,7.1615,7.044,6.9155,6.8981,6.8247,6.7936,6.7652,6.6925,6.6512,6.6274,6.5661,6.4866,6.4868,6.4698,6.4288,6.3793,6.3537,6.3279,6.2532,6.2232,6.2009,6.14,6.1197,6.0622,7.2312,7.2018,7.2018,7.1394,7.0265,6.9339,6.8715,6.8385,6.7871,6.7504,6.71,6.5999,6.5448,6.5275,6.4934,6.5007,6.5338,6.5815,6.5999,6.6072,6.6476,6.688,6.7136,6.688,6.6916,6.7173,6.6843,6.6439,6.5999,6.5558,6.5338,6.5338,6.5338,6.5338,6.5301,6.4971,6.4824,6.4787,6.4457,6.4284,6.4211,6.3796,6.398,6.4714,6.4824,6.4787,6.4751,6.4347,6.3943,6.3576,6.3099,6.2805,6.2805,6.2805,6.3,6.3539,6.4016,6.464,6.5448,6.5411,6.5705,6.6659,6.6292,6.6366,6.71,6.721,6.721,6.7247,6.7504,6.7687,6.7687,6.7687,6.7687,6.7687,6.7687,6.7871,6.8385,6.8715,6.9229,7.0146,7.0624,7.1101,7.1798,7.2018,7.2165,7.2459,7.2532,7.2532,7.2496,7.2202,7.2202,7.2239,7.1211,7.0477,7.0257,7.011,6.9596,6.9174,6.8823,6.8523,6.7796,6.715,6.6415,6.5985,6.5529,6.5136,6.4564,6.4427,6.4218,6.3427,6.262,6.2279,6.2009,6.1941,6.1434,7.2679,7.2532,7.2532,7.2055,7.1183,6.9816,6.9119,6.8788,6.8017,6.7687,6.764,6.7063,6.6512,6.5999,6.5742,6.5742,6.5999,6.6586,6.6806,6.688,6.743,6.7687,6.7687,6.7687,6.7687,6.7687,6.765,6.7357,6.6806,6.6292,6.5962,6.5962,6.5962,6.5962,6.5925,6.5778,6.5632,6.5595,6.5448,6.5411,6.5521,6.5081,6.5044,6.5595,6.5632,6.5632,6.5632,6.5081,6.464,6.442,6.3833,6.3477,6.3477,6.3503,6.3759,6.442,6.5191,6.5852,6.6476,6.6145,6.6439,6.7467,6.7136,6.7063,6.754,6.7687,6.7687,6.7714,6.7907,6.7981,6.7687,6.7907,6.8017,6.8017,6.8017,6.8348,6.9119,6.9082,6.9412,7.0734,7.1027,7.1615,7.2275,7.2496,7.2496,7.2496,7.2532,7.2532,7.2532,7.2496,7.2496,7.2496,7.1982,7.1578,7.1329,7.0844,7.0697,7.0403,6.9907,6.9687,6.9339,6.8619,6.8246,6.7824,6.6706,6.5971,6.585,6.5682,6.5136,6.4253,6.3425,6.2851,6.2753,6.2625,6.2183,7.3193,7.2569,7.2532,7.2055,7.1284,7.0403,6.9633,6.9045,6.8128,6.7751,6.7787,6.7714,6.764,6.743,6.6733,6.6843,6.7467,6.754,6.7577,6.7577,6.765,6.7687,6.7687,6.7687,6.7687,6.7687,6.7687,6.765,6.7577,6.754,6.7577,6.7504,6.743,6.753,6.7357,6.6769,6.6439,6.6402,6.5815,6.5742,6.6329,6.6402,6.6366,6.6439,6.6439,6.6439,6.6439,6.6402,6.6035,6.5301,6.5154,6.5118,6.5154,6.5154,6.5191,6.5338,6.5999,6.6476,6.6623,6.71,6.754,6.765,6.7614,6.7614,6.7677,6.7687,6.7687,6.7687,6.8348,6.8495,6.7907,6.8421,6.8825,6.8862,6.8825,6.9192,6.9963,6.9412,6.9339,7.022,7.1027,7.1688,7.2422,7.2532,7.2532,7.2532,7.2532,7.2532,7.2532,7.2532,7.2532,7.2532,7.2386,7.2165,7.1468,7.1174,7.0587,7.044,7.0624,7.022,7.011,6.9972,6.9879,6.9668,6.882,6.8066,6.7529,6.6839,6.6097,6.5242,6.4393,6.3894,6.3681,6.2931,6.2523,7.323,7.2532,7.2532,7.2349,7.2018,7.1211,7.0734,7.0367,6.9559,6.8935,6.8531,6.8458,6.8164,6.7687,6.7393,6.743,6.765,6.7687,6.7687,6.7687,6.7687,6.7687,6.7687,6.7687,6.7687,6.7687,6.7687,6.7687,6.7687,6.7687,6.7687,6.7687,6.7687,6.7687,6.7614,6.7393,6.7247,6.7247,6.6953,6.6953,6.721,6.7283,6.7247,6.7247,6.7247,6.7247,6.7283,6.6769,6.6366,6.6072,6.5595,6.5338,6.5375,6.5815,6.6072,6.6145,6.6806,6.7247,6.7283,6.7504,6.7687,6.7687,6.7687,6.7687,6.7687,6.7687,6.7687,6.7834,6.8421,6.8495,6.8164,6.8862,6.9669,6.9596,6.9265,6.9486,7.0367,7.0183,7.0183,7.1321,7.1908,7.2202,7.2386,7.2532,7.2532,7.2532,7.2532,7.2532,7.2532,7.2532,7.2532,7.2532,7.2496,7.2422,7.2165,7.1908,7.1688,7.1651,7.1651,7.1321,7.1138,7.0917,7.0787,7.0311,6.9889,6.9549,6.8743,6.8265,6.742,6.6387,6.5556,6.5194,6.4634,6.4036,6.3563,7.323,7.2569,7.2532,7.2532,7.2422,7.1651,7.1293,7.1183,7.044,6.9779,6.9302,6.9045,6.8568,6.8091,6.7797,6.7687,6.7687,6.7687,6.7687,6.7687,6.7687,6.7687,6.7687,6.7687,6.7687,6.7724,6.7981,6.8054,6.8128,6.8348,6.8458,6.8495,6.8238,6.8091,6.8054,6.7834,6.7687,6.7687,6.7687,6.765,6.7687,6.7687,6.7687,6.7687,6.7687,6.7687,6.7687,6.7173,6.688,6.6806,6.6366,6.6072,6.6145,6.6586,6.688,6.6953,6.7357,6.7687,6.7687,6.7687,6.7687,6.7687,6.7687,6.7687,6.7714,6.7944,6.7944,6.7981,6.8972,6.9339,6.9009,6.9926,7.066,7.0257,6.9816,7.022,7.1394,7.0734,7.0807,7.1651,7.1982,7.2165,7.2422,7.2496,7.2532,7.2532,7.2532,7.2532,7.2532,7.2532,7.2532,7.2532,7.2532,7.2496,7.2386,7.2239,7.2202,7.2202,7.2202,7.2018,7.1908,7.1725,7.1468,7.0991,7.0624,7.0403,7.0051,6.9552,6.8727,6.7708,6.7266,6.6949,6.6193,6.5333,6.4883,7.323,7.2606,7.2532,7.2532,7.2386,7.1762,7.1329,7.1284,7.0587,7.0257,7.0036,6.9376,6.9082,6.8788,6.8274,6.7834,6.7907,6.7944,6.7871,6.7834,6.7797,6.7834,6.7907,6.7944,6.7944,6.7981,6.8568,6.8898,6.8935,6.9522,6.9853,6.9853,6.9229,6.8898,6.8898,6.8274,6.7797,6.7797,6.7834,6.776,6.7687,6.7687,6.7724,6.776,6.776,6.7834,6.7797,6.7687,6.7604,6.7614,6.7604,6.765,6.7467,6.7577,6.7614,6.7577,6.7687,6.7687,6.7687,6.7687,6.7687,6.7687,6.7687,6.7687,6.776,6.8348,6.8531,6.8274,6.9706,7.0807,7.033,7.1321,7.1762,7.0513,7.0734,7.1394,7.1908,7.1101,7.044,7.1284,7.155,7.1725,7.2275,7.2532,7.2532,7.2532,7.2532,7.2532,7.2532,7.2606,7.2606,7.2532,7.2642,7.2789,7.2642,7.2496,7.2496,7.2496,7.2459,7.2349,7.2312,7.2202,7.2165,7.1762,7.1468,7.1211,7.066,7.0222,7.0132,6.931,6.905,6.8605,6.7918,6.7135,6.6327,7.356,7.3266,7.2716,7.2532,7.2496,7.2239,7.2129,7.2129,7.1835,7.1431,7.0954,7.0697,7.0257,6.9779,6.9449,6.9339,6.9339,6.9339,6.9045,6.8605,6.8531,6.8825,6.9229,6.9339,6.9339,6.9376,6.9596,6.9706,6.9779,7.0,7.011,7.0036,6.9853,6.9743,6.9706,6.9449,6.9119,6.8568,6.8531,6.8274,6.776,6.7687,6.7944,6.8458,6.8531,6.8752,6.9229,6.8311,6.7724,6.7687,6.7687,6.7687,6.7687,6.7687,6.7687,6.7687,6.7687,6.7687,6.7714,6.7687,6.7751,6.7687,6.7714,6.7687,6.776,6.8495,6.8825,6.8715,7.0183,7.0991,7.0587,7.1541,7.2165,7.1798,7.1505,7.1623,7.2312,7.2018,7.1908,7.2055,7.2129,7.2275,7.2422,7.2532,7.2532,7.2532,7.2532,7.2532,7.2569,7.2899,7.301,7.2642,7.2899,7.2936,7.2679,7.2532,7.2532,7.2532,7.2532,7.2532,7.2532,7.2532,7.2532,7.2459,7.2202,7.1872,7.1284,7.1064,7.0991,7.0734,7.0245,6.9872,6.9544,6.8856,6.7981,7.4404,7.4074,7.3266,7.2936,7.2899,7.2642,7.2532,7.2532,7.2532,7.2202,7.1762,7.1403,7.1027,7.055,7.0257,7.011,7.011,7.011,7.0,6.9743,6.9449,6.9669,7.0073,7.011,7.011,7.0183,7.0403,7.055,7.055,7.0844,7.0991,7.0991,7.0697,7.055,7.0513,7.022,6.9816,6.9412,6.9339,6.9119,6.8678,6.8568,6.8825,6.9265,6.9339,6.9596,7.0,6.9082,6.8458,6.8201,6.8128,6.8017,6.7787,6.7981,6.8164,6.8128,6.8128,6.8164,6.8164,6.8201,6.7981,6.7797,6.7944,6.8128,6.8348,6.9082,6.9706,6.9596,7.0807,7.1431,7.0954,7.1688,7.2459,7.2496,7.2055,7.1982,7.2422,7.2532,7.2496,7.2459,7.2496,7.2532,7.2532,7.2532,7.2532,7.2532,7.2532,7.2532,7.2606,7.2899,7.2789,7.2716,7.2789,7.2753,7.2569,7.2532,7.2532,7.2532,7.2532,7.2532,7.2532,7.2532,7.2532,7.2532,7.2349,7.2275,7.1835,7.1982,7.1982,7.1651,7.1321,7.1272,7.0945,7.0172,6.9418,7.5652,7.4882,7.4037,7.3634,7.3523,7.2826,7.2532,7.2532,7.2532,7.2459,7.2275,7.1762,7.1403,7.1211,7.077,7.0477,7.0293,7.044,7.077,7.0991,7.0697,7.044,7.0513,7.0513,7.055,7.055,7.1064,7.1358,7.1394,7.1945,7.2496,7.2239,7.1651,7.1358,7.1284,7.0624,7.033,7.022,7.0183,7.011,6.9963,7.0,7.0073,7.0146,7.0183,7.0257,7.0403,7.0183,6.9706,6.9082,6.8972,6.8678,6.8201,6.8568,6.8972,6.8972,6.8972,6.8972,6.8972,6.8972,6.8715,6.8201,6.8641,6.8972,6.9155,7.0146,7.077,7.033,7.1541,7.2129,7.1688,7.2055,7.2459,7.2532,7.2422,7.2422,7.2496,7.2532,7.2532,7.2532,7.2532,7.2532,7.2532,7.2532,7.2532,7.2532,7.2532,7.2532,7.2569,7.2716,7.2606,7.2679,7.2789,7.2753,7.2642,7.2532,7.2532,7.2532,7.2532,7.2532,7.2532,7.2532,7.2532,7.2532,7.2496,7.2496,7.2459,7.2496,7.2496,7.2202,7.2165,7.2459,7.2034,7.1084,7.0551,7.5983,7.5652,7.4294,7.3707,7.356,7.2826,7.2532,7.2532,7.2532,7.2532,7.2422,7.2275,7.2165,7.2165,7.1945,7.1872,7.1798,7.1798,7.1945,7.2129,7.2018,7.1872,7.1872,7.1872,7.1835,7.1835,7.1982,7.2165,7.2202,7.2386,7.2532,7.2496,7.2275,7.2129,7.2129,7.1908,7.1541,7.1064,7.0991,7.0697,7.022,7.0183,7.0403,7.0954,7.0991,7.1284,7.1725,7.1284,7.0624,6.9853,6.9779,6.9706,6.9412,6.9633,6.9779,6.9779,6.9779,6.9779,6.9779,6.9779,6.9633,6.9522,6.9596,6.9779,6.9816,7.0734,7.1138,7.1174,7.1945,7.2422,7.2239,7.2386,7.2496,7.2532,7.2532,7.2532,7.2532,7.2532,7.2532,7.2532,7.2532,7.2532,7.2532,7.2532,7.2532,7.2532,7.2532,7.2532,7.2569,7.2863,7.2936,7.2826,7.2863,7.2826,7.2753,7.2606,7.2532,7.2532,7.2532,7.2532,7.2532,7.2532,7.2532,7.2532,7.2532,7.2496,7.2496,7.2496,7.2496,7.2532,7.2532,7.2496,7.2275,7.1639,7.1272,7.6607,7.6497,7.5249,7.4698,7.4551,7.3487,7.301,7.2936,7.2642,7.2532,7.2532,7.2532,7.2532,7.2532,7.2496,7.2496,7.2532,7.2532,7.2496,7.2496,7.2459,7.2459,7.2496,7.2496,7.2532,7.2532,7.2532,7.2496,7.2496,7.2532,7.2532,7.2496,7.2532,7.2532,7.2459,7.2496,7.2312,7.1908,7.1798,7.1541,7.1138,7.1101,7.1321,7.1762,7.1835,7.2092,7.2386,7.2055,7.1468,7.0807,7.0587,7.0477,7.0146,7.044,7.0587,7.0587,7.0624,7.0624,7.0624,7.0587,7.044,7.0257,7.0367,7.0587,7.0734,7.1321,7.1798,7.1908,7.2275,7.2459,7.2532,7.2532,7.2532,7.2532,7.2532,7.2532,7.2532,7.2532,7.2532,7.2532,7.2532,7.2532,7.2532,7.2532,7.2532,7.2532,7.2532,7.2532,7.2569,7.2973,7.3156,7.2936,7.2789,7.2716,7.2863,7.2789,7.2716,7.2679,7.2863,7.2789,7.2716,7.2679,7.2532,7.2532,7.2532,7.2532,7.2532,7.2532,7.2532,7.2532,7.2532,7.2459,7.2312,7.2202,7.1835,7.731,7.72,7.646,7.613,7.5763,7.4404,7.3597,7.3523,7.2826,7.2532,7.2532,7.2532,7.2532,7.2532,7.2532,7.2532,7.2532,7.2532,7.2532,7.2532,7.2532,7.2569,7.2753,7.2789,7.2863,7.2936,7.2716,7.2789,7.2863,7.2753,7.2606,7.2642,7.2642,7.2532,7.2532,7.2532,7.2532,7.2422,7.2386,7.2349,7.2239,7.2202,7.2275,7.2312,7.2349,7.2386,7.2496,7.2422,7.2129,7.1439,7.1439,7.1138,7.0587,7.1101,7.1394,7.1431,7.1431,7.1431,7.1403,7.1366,7.1174,7.077,7.1138,7.1403,7.1578,7.2018,7.2386,7.2349,7.2496,7.2532,7.2532,7.2532,7.2532,7.2532,7.2532,7.2532,7.2532,7.2532,7.2532,7.2532,7.2532,7.2532,7.2532,7.2532,7.2532,7.2532,7.2532,7.2532,7.2532,7.2679,7.2789,7.2642,7.2569,7.2532,7.2753,7.301,7.2936,7.2936,7.323,7.3303,7.3156,7.301,7.2679,7.2532,7.2532,7.2532,7.2532,7.2532,7.2532,7.2532,7.2532,7.2532,7.2496,7.2422,7.2165,7.731,7.72,7.6423,7.613,7.5836,7.4404,7.3707,7.367,7.2863,7.2532,7.2532,7.2532,7.2532,7.2532,7.2532,7.2532,7.2532,7.2532,7.2532,7.2532,7.2532,7.2899,7.3303,7.3487,7.3817,7.4001,7.367,7.378,7.3964,7.3266,7.2863,7.334,7.2973,7.2532,7.2606,7.2716,7.2532,7.2532,7.2532,7.2532,7.2532,7.2532,7.2532,7.2569,7.2532,7.2532,7.2532,7.2532,7.2422,7.2312,7.2202,7.2018,7.1908,7.2055,7.2165,7.2165,7.2202,7.2202,7.2239,7.2165,7.2202,7.1945,7.1945,7.2239,7.2275,7.2349,7.2532,7.2532,7.2532,7.2532,7.2532,7.2532,7.2532,7.2532,7.2569,7.2569,7.2532,7.2532,7.2532,7.2532,7.2532,7.2532,7.2532,7.2532,7.2532,7.2532,7.2532,7.2532,7.2532,7.2569,7.2569,7.2606,7.2753,7.2789,7.2973,7.334,7.3634,7.3634,7.3854,7.3927,7.378,7.3487,7.3193,7.2826,7.2532,7.2569,7.2753,7.2532,7.2532,7.2532,7.2606,7.2716,7.2753,7.2679,7.2679,7.731,7.7237,7.6864,7.668,7.6423,7.4955,7.4258,7.4037,7.2973,7.2532,7.2532,7.2532,7.2532,7.2532,7.2532,7.2532,7.2532,7.2532,7.2753,7.2973,7.312,7.3744,7.4661,7.4771,7.4955,7.4918,7.4478,7.4588,7.4551,7.4184,7.3891,7.4221,7.378,7.3744,7.3634,7.3597,7.345,7.3156,7.3046,7.2899,7.2569,7.2532,7.2789,7.2863,7.2753,7.2642,7.3046,7.2679,7.2532,7.2532,7.2532,7.2532,7.2532,7.2532,7.2532,7.2532,7.2532,7.2532,7.2496,7.2532,7.2496,7.2532,7.2532,7.2496,7.2532,7.2532,7.2532,7.2532,7.2532,7.2532,7.2532,7.2532,7.2532,7.2606,7.2863,7.301,7.301,7.2753,7.2532,7.2532,7.2532,7.2532,7.2532,7.2569,7.2569,7.2606,7.3156,7.3156,7.2753,7.2753,7.2753,7.2826,7.301,7.312,7.3266,7.367,7.4404,7.4515,7.4735,7.4661,7.4448,7.4147,7.378,7.3523,7.3303,7.312,7.3193,7.2863,7.2789,7.2973,7.312,7.312,7.312,7.312,7.3156,7.731,7.731,7.731,7.7273,7.7053,7.5726,7.4992,7.4661,7.334,7.2679,7.2532,7.2532,7.2532,7.2532,7.2532,7.2532,7.2569,7.2789,7.312,7.3523,7.3817,7.4625,7.5579,7.5799,7.5763,7.5285,7.5139,7.5212,7.5322,7.5028,7.4771,7.4992,7.4882,7.4661,7.4778,7.4815,7.4478,7.3927,7.3854,7.367,7.3083,7.2936,7.312,7.334,7.3377,7.334,7.367,7.3377,7.2936,7.2679,7.2679,7.2606,7.2532,7.2532,7.2532,7.2532,7.2532,7.2532,7.2532,7.2532,7.2532,7.2532,7.2532,7.2532,7.2532,7.2532,7.2532,7.2532,7.2532,7.2532,7.2532,7.2532,7.2606,7.2789,7.334,7.3707,7.3744,7.323,7.3083,7.2753,7.2642,7.2532,7.2606,7.2679,7.2679,7.2826,7.3413,7.3707,7.334,7.3193,7.3377,7.345,7.3744,7.3854,7.3964,7.4441,7.5102,7.5322,7.5542,7.5542,7.5402,7.5402,7.5145,7.4551,7.4294,7.4037,7.3817,7.367,7.3634,7.367,7.3744,7.3817,7.3744,7.3634,7.3707,7.731,7.731,7.731,7.731,7.7127,7.6313,7.5506,7.4845,7.3927,7.312,7.2569,7.2532,7.2569,7.2532,7.2532,7.2532,7.2716,7.3193,7.3634,7.3964,7.4404,7.5322,7.6056,7.6276,7.6387,7.6613,7.6313,7.6203,7.6283,7.5659,7.5506,7.5652,7.5359,7.5072,7.5072,7.4888,7.5028,7.4771,7.4698,7.4551,7.4221,7.3707,7.3523,7.3817,7.3964,7.4368,7.4588,7.4551,7.4221,7.3597,7.3487,7.312,7.2716,7.2569,7.2532,7.2532,7.2532,7.2532,7.2532,7.2532,7.2532,7.2532,7.2532,7.2532,7.2532,7.2532,7.2569,7.2606,7.2606,7.2569,7.2532,7.2642,7.2899,7.3266,7.3707,7.4074,7.4515,7.4515,7.4147,7.3744,7.3156,7.2606,7.2826,7.301,7.312,7.3487,7.4147,7.4441,7.4221,7.4294,7.4515,7.4588,7.4661,7.4698,7.4735,7.5359,7.5946,7.6093,7.6313,7.665,7.665,7.687,7.6613,7.5732,7.5139,7.4808,7.4625,7.4441,7.4478,7.4551,7.4588,7.4522,7.4661,7.4698,7.4515,7.731,7.731,7.731,7.731,7.7163,7.646,7.5909,7.5432,7.4661,7.3854,7.3303,7.3083,7.2863,7.2606,7.2532,7.2716,7.3266,7.3964,7.4515,7.4955,7.5359,7.5946,7.6644,7.6717,7.6937,7.709,7.6937,7.6864,7.7231,7.6576,7.6319,7.6533,7.6313,7.6136,7.6166,7.6209,7.5873,7.5652,7.5506,7.5322,7.4918,7.4147,7.3927,7.4294,7.4368,7.4698,7.5395,7.5028,7.4735,7.4331,7.3927,7.3523,7.312,7.2753,7.2532,7.2532,7.2532,7.2532,7.2532,7.2532,7.2532,7.2532,7.2532,7.2532,7.2532,7.2532,7.2753,7.301,7.312,7.312,7.3156,7.312,7.3303,7.3707,7.4368,7.5028,7.5395,7.5506,7.5249,7.4808,7.3964,7.345,7.323,7.3413,7.3634,7.4147,7.4882,7.5065,7.5072,7.5285,7.5506,7.5322,7.5395,7.5689,7.5689,7.613,7.6533,7.668,7.6827,7.7163,7.7273,7.7237,7.709,7.6576,7.6093,7.5579,7.5322,7.5139,7.5285,7.5359,7.5175,7.5139,7.5579,7.5763,7.5506,7.731,7.731,7.731,7.731,7.72,7.6644,7.624,7.5983,7.5432,7.4698,7.4001,7.3927,7.3597,7.3156,7.312,7.3413,7.4001,7.4771,7.5432,7.5873,7.624,7.6754,7.709,7.731,7.7273,7.7237,7.7237,7.731,7.7273,7.7127,7.7237,7.7163,7.7237,7.731,7.7163,7.7017,7.6827,7.6607,7.635,7.5946,7.5212,7.4735,7.4588,7.5102,7.4661,7.5175,7.6166,7.5909,7.5285,7.4845,7.4294,7.378,7.3413,7.2826,7.2532,7.2532,7.2532,7.2532,7.2532,7.2789,7.2789,7.2569,7.2863,7.2899,7.2899,7.312,7.334,7.378,7.3927,7.3927,7.3927,7.3927,7.4074,7.4478,7.5322,7.613,7.6276,7.635,7.635,7.5726,7.4808,7.4331,7.4111,7.4404,7.4735,7.5028,7.5726,7.6019,7.6026,7.6173,7.6276,7.5983,7.6056,7.657,7.6754,7.6796,7.7047,7.7047,7.709,7.7237,7.731,7.7273,7.709,7.6943,7.679,7.6313,7.6093,7.5946,7.613,7.6093,7.5689,7.5763,7.6283,7.6393,7.6173,7.731,7.731,7.731,7.731,7.7273,7.7163,7.6754,7.6166,7.6019,7.5506,7.4771,7.4771,7.4698,7.4515,7.4551,7.4661,7.4992,7.5579,7.6056,7.635,7.679,7.709,7.7273,7.7273,7.731,7.731,7.731,7.731,7.731,7.731,7.731,7.731,7.731,7.731,7.731,7.731,7.7273,7.7157,7.7121,7.6717,7.613,7.635,7.6276,7.613,7.6313,7.6613,7.687,7.665,7.6203,7.5065,7.4808,7.4037,7.2973,7.2606,7.2532,7.2532,7.2532,7.2532,7.2679,7.3083,7.3303,7.3156,7.3744,7.4037,7.3927,7.4184,7.4551,7.4698,7.4771,7.4771,7.4771,7.4771,7.5139,7.5469,7.5946,7.657,7.6864,7.6827,7.6864,7.6754,7.5873,7.5359,7.5028,7.5469,7.5909,7.6166,7.646,7.6717,7.687,7.687,7.687,7.6613,7.6466,7.6937,7.7121,7.7273,7.731,7.731,7.731,7.731,7.731,7.731,7.7273,7.7163,7.7047,7.7011,7.679,7.676,7.698,7.6833,7.6466,7.665,7.709,7.7017,7.676,7.731,7.731,7.731,7.731,7.731,7.731,7.7127,7.6864,7.679,7.635,7.5689,7.5579,7.5359,7.5139,7.5322,7.5579,7.5763,7.6387,7.679,7.6754,7.709,7.731,7.7273,7.731,7.731,7.731,7.731,7.731,7.731,7.731,7.731,7.731,7.731,7.731,7.731,7.731,7.7273,7.7273,7.72,7.69,7.6423,7.6423,7.6497,7.613,7.6497,7.6864,7.7127,7.679,7.6387,7.5432,7.4882,7.3964,7.323,7.2789,7.2532,7.2532,7.2973,7.3156,7.323,7.356,7.367,7.3964,7.4478,7.4661,7.4588,7.5102,7.5579,7.5579,7.5579,7.5579,7.5579,7.5579,7.5763,7.6093,7.6497,7.679,7.7127,7.72,7.72,7.709,7.7011,7.6393,7.5916,7.6019,7.624,7.635,7.668,7.698,7.7127,7.7127,7.7163,7.7163,7.7127,7.72,7.7237,7.731,7.731,7.731,7.731,7.731,7.731,7.731,7.731,7.731,7.72,7.72,7.731,7.7237,7.7163,7.72,7.7273,7.731,7.731,7.7273,7.6907,7.731,7.731,7.731,7.731,7.731,7.731,7.7273,7.7273,7.7273,7.6943,7.6533,7.6387,7.6056,7.5763,7.613,7.6387,7.646,7.7017,7.7237,7.731,7.731,7.731,7.731,7.731,7.731,7.731,7.731,7.731,7.731,7.731,7.731,7.731,7.731,7.731,7.731,7.731,7.731,7.731,7.731,7.7011,7.6607,7.6497,7.6497,7.6387,7.6313,7.6497,7.7017,7.657,7.613,7.5836,7.5175,7.4478,7.3964,7.3597,7.3377,7.3413,7.378,7.4147,7.4294,7.4515,7.4551,7.4808,7.5212,7.5395,7.5689,7.613,7.6387,7.6423,7.6423,7.6423,7.6423,7.6387,7.646,7.668,7.6937,7.7127,7.731,7.731,7.731,7.7237,7.7163,7.72,7.6796,7.6607,7.657,7.6533,7.6827,7.72,7.731,7.731,7.731,7.731,7.731,7.731,7.731,7.731,7.731,7.7347,7.7384,7.7384,7.742,7.7347,7.731,7.731,7.7347,7.731,7.731,7.731,7.731,7.731,7.731,7.731,7.731,7.731,7.72,7.731,7.731,7.731,7.731,7.731,7.731,7.731,7.731,7.731,7.7237,7.709,7.7163,7.7053,7.7053,7.6943,7.709,7.7163,7.7237,7.7273,7.731,7.731,7.731,7.731,7.731,7.731,7.731,7.731,7.731,7.731,7.731,7.731,7.731,7.731,7.731,7.731,7.731,7.731,7.731,7.731,7.7273,7.7127,7.709,7.709,7.6943,7.657,7.646,7.7163,7.646,7.6056,7.6056,7.5616,7.5212,7.4625,7.4441,7.4331,7.4404,7.4625,7.5028,7.5395,7.5506,7.5506,7.5359,7.5579,7.624,7.665,7.698,7.7163,7.7084,7.7011,7.7053,7.709,7.72,7.7017,7.7053,7.7127,7.72,7.731,7.731,7.731,7.731,7.731,7.731,7.7273,7.7011,7.6937,7.69,7.6907,7.731,7.731,7.731,7.731,7.731,7.731,7.731,7.731,7.731,7.7384,7.7567,7.7677,7.7671,7.7671,7.7561,7.7635,7.7457,7.7494,7.7384,7.731,7.731,7.731,7.731,7.731,7.731,7.731,7.731,7.731,7.731,7.731,7.731,7.731,7.731,7.731,7.731,7.731,7.731,7.731,7.731,7.731,7.731,7.731,7.731,7.731,7.731,7.731,7.731,7.731,7.731,7.731,7.731,7.731,7.731,7.731,7.731,7.731,7.731,7.731,7.731,7.731,7.731,7.731,7.731,7.731,7.731,7.731,7.731,7.731,7.731,7.731,7.731,7.7237,7.6533,7.657,7.6974,7.5983,7.5836,7.5873,7.5689,7.5395,7.5175,7.5035,7.5035,7.5109,7.5395,7.5799,7.6019,7.6203,7.613,7.6533,7.6717,7.6943,7.7273,7.7273,7.731,7.7273,7.731,7.731,7.7273,7.7273,7.7237,7.7273,7.731,7.731,7.731,7.731,7.731,7.731,7.731,7.731,7.731,7.7273,7.7237,7.7237,7.7273,7.731,7.731,7.7347,7.7384,7.7384,7.7384,7.742,7.7457,7.7457,7.7494,7.7781,7.8002,7.8075,7.8112,7.8185,7.8185,7.7965,7.7604,7.7384,7.731,7.731,7.731,7.731,7.731,7.731,7.731,7.731,7.731,7.731,7.731,7.731,7.731,7.731,7.731,7.731,7.731,7.731,7.731,7.731,7.731,7.731,7.731,7.731,7.731,7.731,7.731,7.731,7.731,7.731,7.731,7.731,7.731,7.731,7.731,7.731,7.731,7.731,7.731,7.731,7.731,7.731,7.731,7.731,7.731,7.731,7.731,7.731,7.731,7.731,7.731,7.731,7.7163,7.6533,7.657,7.679,7.624,7.5983,7.6166,7.613,7.5732,7.5652,7.5616,7.5616,7.5799,7.6056,7.6423,7.646,7.6533,7.6717,7.7047,7.7163,7.7237,7.731,7.731,7.731,7.731,7.731,7.731,7.731,7.731,7.731,7.731,7.731,7.731,7.731,7.731,7.731,7.731,7.731,7.731,7.731,7.731,7.731,7.731,7.731,7.731,7.731,7.7384,7.753,7.753,7.753,7.7567,7.764,7.753,7.7494,7.8112,7.8369,7.8589,7.8662,7.8699,7.8369,7.7818,7.7457,7.7347,7.731,7.731,7.731,7.731,7.731,7.731,7.731,7.731,7.731,7.731,7.731,7.731,7.731,7.731,7.731,7.731,7.731,7.731,7.731,7.731,7.731,7.731,7.731,7.731,7.731,7.731,7.731,7.731,7.731,7.731,7.731,7.731,7.731,7.731,7.731,7.731,7.731,7.731,7.731,7.731,7.731,7.731,7.731,7.731,7.731,7.731,7.731,7.731,7.731,7.731,7.731,7.731,7.7127,7.6533,7.6533,7.6833,7.6423,7.6276,7.6827,7.6943,7.6796,7.6833,7.687,7.6907,7.698,7.7053,7.7163,7.72,7.7237,7.7237,7.7273,7.731,7.731,7.731,7.731,7.731,7.731,7.731,7.731,7.731,7.7347,7.742,7.7347,7.7347,7.7384,7.7384,7.731,7.731,7.731,7.731,7.731,7.731,7.731,7.731,7.731,7.731,7.731,7.731,7.7635,7.7855,7.7892,7.7928,7.8185,7.8185,7.7598,7.7598,7.8259,7.8699,7.8919,7.8956,7.8846,7.8369,7.7677,7.7384,7.731,7.731,7.731,7.731,7.731,7.731,7.731,7.731,7.731,7.731,7.731,7.731,7.731,7.731,7.731,7.731,7.731,7.731,7.731,7.731,7.731,7.731,7.731,7.731,7.731,7.731,7.731,7.731,7.731,7.731,7.731,7.731,7.731,7.731,7.731,7.731,7.731,7.731,7.731,7.731,7.731,7.731,7.731,7.731,7.731,7.731,7.731,7.731,7.731,7.731,7.731,7.731,7.7273,7.7273,7.657,7.657,7.7163,7.6533,7.6644,7.72,7.7273,7.731,7.731,7.731,7.731,7.731,7.731,7.731,7.731,7.7273,7.7273,7.731,7.731,7.731,7.731,7.731,7.731,7.731,7.7384,7.7384,7.731,7.7928,7.8038,7.7567,7.753,7.7604,7.7604,7.7384,7.731,7.731,7.731,7.7384,7.742,7.7567,7.7567,7.7561,7.7561,7.7347,7.731,7.7965,7.8369,7.8369,7.8442,7.8772,7.8772,7.8075,7.8259,7.914,7.925,7.9213,7.9176,7.8956,7.8552,7.7965,7.7635,7.731,7.731,7.731,7.731,7.731,7.731,7.731,7.731,7.731,7.731,7.731,7.731,7.731,7.731,7.731,7.731,7.731,7.731,7.731,7.731,7.731,7.731,7.731,7.731,7.731,7.731,7.731,7.731,7.731,7.731,7.731,7.731,7.731,7.731,7.731,7.731,7.731,7.731,7.731,7.731,7.731,7.731,7.731,7.731,7.731,7.731,7.731,7.731,7.731,7.731,7.731,7.731,7.731,7.7163,7.6937,7.6827,7.7011,7.6974,7.6754,7.7163,7.731,7.731,7.731,7.731,7.731,7.731,7.731,7.731,7.731,7.731,7.731,7.731,7.731,7.731,7.731,7.731,7.731,7.7347,7.7561,7.7745,7.7928,7.8589,7.8736,7.8295,7.8369,7.8479,7.8405,7.8222,7.8185,7.8075,7.8038,7.7965,7.775,7.7818,7.7965,7.7892,7.7818,7.7635,7.7561,7.8259,7.8736,7.8626,7.8772,7.9103,7.8956,7.8405,7.8883,7.9947,7.969,7.9103,7.9103,7.8846,7.8552,7.8222,7.7708,7.731,7.731,7.731,7.731,7.731,7.731,7.731,7.731,7.731,7.731,7.731,7.731,7.731,7.731,7.731,7.731,7.731,7.731,7.731,7.731,7.731,7.731,7.731,7.731,7.731,7.731,7.731,7.731,7.731,7.731,7.731,7.731,7.731,7.731,7.731,7.731,7.731,7.731,7.731,7.731,7.731,7.731,7.731,7.731,7.731,7.731,7.731,7.731,7.731,7.731,7.731,7.731,7.731,7.7237,7.7163,7.7127,7.7237,7.7163,7.7163,7.731,7.731,7.731,7.731,7.731,7.731,7.731,7.731,7.731,7.731,7.731,7.731,7.731,7.742,7.7347,7.7347,7.742,7.7604,7.7855,7.8148,7.8442,7.8736,7.925,7.9727,7.9617,7.9653,7.9653,7.958,7.9507,7.947,7.9433,7.9396,7.9213,7.8736,7.8626,7.8626,7.8736,7.8662,7.8295,7.8369,7.8883,7.914,7.8736,7.8919,7.9323,7.9103,7.8626,7.9066,8.0021,7.9029,7.8479,7.8589,7.8626,7.8148,7.7781,7.7457,7.731,7.731,7.731,7.731,7.731,7.731,7.731,7.731,7.731,7.731,7.731,7.731,7.731,7.731,7.731,7.731,7.731,7.731,7.731,7.731,7.731,7.731,7.731,7.731,7.731,7.731,7.731,7.731,7.731,7.731,7.731,7.731,7.731,7.731,7.731,7.731,7.731,7.731,7.731,7.731,7.731,7.731,7.731,7.731,7.731,7.731,7.731,7.731,7.731,7.731,7.731,7.731,7.731,7.731,7.731,7.731,7.731,7.731,7.731,7.731,7.731,7.731,7.731,7.731,7.731,7.731,7.731,7.731,7.731,7.731,7.7347,7.7598,7.7892,7.7781,7.7708,7.7892,7.8222,7.8479,7.8956,7.9323,7.9617,8.0057,8.0351,8.0351,8.0424,8.0498,8.0388,8.0241,8.0204,8.0204,8.0167,7.991,7.947,7.9433,7.947,7.9617,7.9507,7.9103,7.9066,7.9543,7.9176,7.8699,7.9066,7.947,7.9286,7.8883,7.9396,7.9727,7.8699,7.8038,7.8259,7.8185,7.7708,7.742,7.731,7.731,7.731,7.731,7.731,7.731,7.731,7.731,7.731,7.731,7.731,7.731,7.731,7.731,7.731,7.731,7.731,7.731,7.731,7.731,7.731,7.731,7.731,7.731,7.731,7.731,7.731,7.731,7.731,7.731,7.731,7.731,7.731,7.731,7.731,7.731,7.731,7.731,7.731,7.731,7.731,7.731,7.731,7.731,7.731,7.731,7.731,7.731,7.731,7.731,7.731,7.731,7.731,7.731,7.731,7.731,7.731,7.731,7.731,7.731,7.731,7.731,7.731,7.731,7.731,7.731,7.731,7.731,7.731,7.7347,7.7745,7.7781,7.8038,7.8589,7.8736,7.8736,7.8846,7.8993,7.9176,7.98,8.0314,8.0608,8.0865,8.0865,8.0865,8.1048,8.1232,8.1048,8.0828,8.0791,8.0755,8.0608,8.0424,8.0241,8.0241,8.0094,7.9874,7.9764,7.9617,7.9653,8.0021,7.9176,7.8185,7.8883,7.958,7.925,7.8809,7.8919,7.8883,7.8185,7.7745,7.7965,7.7855,7.7494,7.7347,7.731,7.731,7.731,7.731,7.731,7.731,7.731,7.731,7.731,7.731,7.731,7.731,7.731,7.731,7.731,7.731,7.731,7.731,7.731,7.731,7.731,7.731,7.731,7.731,7.731,7.731,7.731,7.731,7.731,7.731,7.731,7.731,7.731,7.731,7.731,7.731,7.731,7.731,7.731,7.731,7.731,7.731,7.731,7.731,7.731,7.731,7.731,7.731,7.731,7.731,7.731,7.731,7.731,7.731,7.731,7.731,7.731,7.731,7.731,7.731,7.731,7.731,7.731,7.7494,7.7745,7.7708,7.7714,7.7892,7.7892,7.8075,7.8405,7.8589,7.8919,7.9396,7.969,7.9764,7.9764,7.9874,8.0057,8.0571,8.1012,8.1305,8.1489,8.1562,8.1562,8.1672,8.1746,8.1672,8.1525,8.1525,8.1452,8.1305,8.1122,8.1085,8.1085,8.1012,8.0424,8.0277,8.0277,8.0131,8.0498,7.9507,7.8112,7.8589,7.9176,7.8662,7.8295,7.8148,7.7892,7.7494,7.7384,7.7598,7.7494,7.731,7.731,7.731,7.731,7.731,7.731,7.731,7.731,7.731,7.731,7.731,7.731,7.731,7.731,7.731,7.731,7.731,7.731,7.731,7.731,7.731,7.731,7.731,7.731,7.731,7.731,7.731,7.731,7.731,7.731,7.731,7.731,7.731,7.731,7.731,7.731,7.731,7.731,7.731,7.731,7.731,7.731,7.731,7.731,7.731,7.731,7.731,7.731,7.731,7.731,7.731,7.731,7.731,7.731,7.731,7.731,7.731,7.731,7.731,7.731,7.731,7.731,7.731,7.731,7.7671,7.8222,7.8809,7.914,7.9176,7.8993,7.8956,7.9029,7.925,7.947,7.9727,8.0167,8.0498,8.0681,8.0718,8.0791,8.1012,8.1232,8.1599,8.1893,8.2076,8.2186,8.2186,8.2186,8.2186,8.2186,8.2186,8.2186,8.2076,8.1966,8.1893,8.1819,8.1819,8.1782,8.1709,8.1709,8.1525,8.0828,8.0718,7.9947,7.8809,7.8479,7.8626,7.8185,7.7855,7.7781,7.7781,7.7604,7.7457,7.731,7.7457,7.7635,7.7384,7.731,7.7384,7.7384,7.731,7.731,7.731,7.731,7.731,7.731,7.731,7.731,7.731,7.731,7.731,7.731,7.731,7.731,7.731,7.731,7.731,7.731,7.731,7.731,7.731,7.731,7.731,7.731,7.731,7.731,7.731,7.731,7.731,7.731,7.731,7.731,7.731,7.731,7.731,7.731,7.731,7.731,7.731,7.731,7.731,7.731,7.731,7.731,7.731,7.731,7.731,7.731,7.731,7.731,7.731,7.731,7.731,7.731,7.731,7.731,7.731,7.731,7.731,7.7781,7.8332,7.8846,7.9323,7.958,7.969,7.9832,7.991,8.0131,8.0314,8.0571,8.1048,8.1452,8.1525,8.1525,8.1525,8.1709,8.1709,8.2039,8.2039,8.2186,8.2186,8.2186,8.2186,8.2186,8.2186,8.2186,8.2186,8.215,8.2076,8.2076,8.2039,8.2039,8.1893,8.1379,8.1599,8.1746,8.1269,8.0901,8.0094,7.9396,7.8956,7.8662,7.8442,7.7965,7.7561,7.753,7.7604,7.7457,7.7347,7.7745,7.7928,7.7708,7.7561,7.7598,7.7598,7.742,7.731,7.731,7.731,7.731,7.731,7.731,7.731,7.731,7.731,7.731,7.731,7.731,7.731,7.731,7.731,7.731,7.731,7.731,7.731,7.731,7.731,7.731,7.731,7.731,7.731,7.731,7.731,7.731,7.731,7.731,7.731,7.731,7.731,7.731,7.731,7.731,7.731,7.731,7.731,7.731,7.731,7.731,7.731,7.731,7.731,7.731,7.731,7.731,7.731,7.731,7.731,7.731,7.731,7.731,7.731,7.731,7.742,7.753,7.8148,7.8736,7.9286,7.98,8.0204,8.0498,8.0424,8.0424,8.0865,8.1048,8.1342,8.1929,8.215,8.215,8.2113,8.2113,8.215,8.2186,8.2186,8.2186,8.2186,8.2186,8.2186,8.2186,8.2186,8.2186,8.2186,8.2186,8.2186,8.2186,8.2186,8.2186,8.2186,8.1893,8.1305,8.1122,8.1158,8.1122,8.0901,8.0424,7.9727,7.9176,7.8883,7.8479,7.8222,7.7671,7.7384,7.742,7.7347,7.742,7.7892,7.8112,7.8002,7.7928,7.7708,7.7635,7.753,7.742,7.731,7.731,7.731,7.731,7.731,7.731,7.731,7.731,7.731,7.731,7.731,7.731,7.731,7.731,7.731,7.731,7.731,7.731,7.731,7.731,7.731,7.731,7.731,7.731,7.731,7.731,7.731,7.731,7.731,7.731,7.731,7.731,7.731,7.731,7.731,7.731,7.731,7.731,7.731,7.731,7.731,7.731,7.731,7.731,7.731,7.731,7.731,7.731,7.731,7.731,7.731,7.731,7.731,7.731,7.731,7.7494,7.7892,7.8552,7.914,7.9727,8.0351,8.0901,8.1195,8.1305,8.1415,8.1599,8.1746,8.1782,8.2186,8.2186,8.215,8.215,8.215,8.215,8.2186,8.2186,8.2186,8.2186,8.2186,8.2186,8.2186,8.2186,8.2186,8.2186,8.2186,8.2186,8.2186,8.2186,8.2186,8.2186,8.215,8.1782,8.1782,8.1782,8.1672,8.1232,8.0681,8.0131,7.9507,7.8442,7.7745,7.8259,7.7965,7.7567,7.7457,7.7781,7.8038,7.8185,7.8295,7.8369,7.7892,7.7457,7.7457,7.7708,7.742,7.731,7.731,7.731,7.7273,7.731,7.731]}]]